<?xml version="1.0" encoding="UTF-8" standalone="no" ?>
<gpx xmlns="http://www.topografix.com/GPX/1/1" xmlns:xsi="http://www.w3.org/2001/XMLSchema-instance" xsi:schemaLocation="http://www.topografix.com/GPX/1/1 http://www.topografix.com/GPX/1/1/gpx.xsd" version="1.1" creator="VisuGPX - https://www.visugpx.com">
  <metadata>
    <name>06 CCC Flémalle - Vorsen - Flémalle</name>
    <desc><![CDATA[Randonnée au départ de l'Auto5 de Flémalle.
Flémalle - Awirs - Horion-Hozémont - Haneffe - Viemme - Les Walleffes - Tourinne - Lens Saint Servais - Lens Saint Remy - Blehen - Villers Le Peuplier - Hannut - Trognée - Abdens - Lens Saint Servais - Trognée - Vorsen - Boelhe - Geer - Ligney - Hollogne-sur-Geer - Celles - Viemme - Haneffe - Horion Hozémont - Awirs - Flémalle.]]></desc>
  </metadata>
  <trk>
    <name><![CDATA[06 CCC]]></name>
    <extensions>
      <line xmlns="http://www.topografix.com/GPX/gpx_style/0/2">
        <color>0000FF</color>
        <width>4</width>
      </line>
    </extensions>
    <trkseg>
      <trkpt lat="50.60426" lon="5.48414">
        <ele>65</ele>
        <time>2019-03-25T23:16:53Z</time>
      </trkpt>
      <trkpt lat="50.60406" lon="5.48436">
        <ele>65</ele>
        <time>2019-03-25T23:17:53Z</time>
      </trkpt>
      <trkpt lat="50.60362" lon="5.48499">
        <ele>64</ele>
        <time>2019-03-25T23:18:53Z</time>
      </trkpt>
      <trkpt lat="50.60349" lon="5.48518">
        <ele>64</ele>
        <time>2019-03-25T23:19:53Z</time>
      </trkpt>
      <trkpt lat="50.60367" lon="5.48547">
        <ele>63</ele>
        <time>2019-03-25T23:20:53Z</time>
      </trkpt>
      <trkpt lat="50.60374" lon="5.48536">
        <ele>64</ele>
        <time>2019-03-25T23:21:53Z</time>
      </trkpt>
      <trkpt lat="50.60389" lon="5.48515">
        <ele>64</ele>
        <time>2019-03-25T23:22:53Z</time>
      </trkpt>
      <trkpt lat="50.60412" lon="5.48486">
        <ele>64</ele>
        <time>2019-03-25T23:23:53Z</time>
      </trkpt>
      <trkpt lat="50.60443" lon="5.48447">
        <ele>65</ele>
        <time>2019-03-25T23:24:53Z</time>
      </trkpt>
      <trkpt lat="50.6046" lon="5.48427">
        <ele>66</ele>
        <time>2019-03-25T23:25:53Z</time>
      </trkpt>
      <trkpt lat="50.60474" lon="5.48412">
        <ele>66</ele>
        <time>2019-03-25T23:26:53Z</time>
      </trkpt>
      <trkpt lat="50.60487" lon="5.48397">
        <ele>67</ele>
        <time>2019-03-25T23:27:53Z</time>
      </trkpt>
      <trkpt lat="50.60493" lon="5.48397">
        <ele>67</ele>
        <time>2019-03-25T23:28:53Z</time>
      </trkpt>
      <trkpt lat="50.60501" lon="5.48388">
        <ele>67</ele>
        <time>2019-03-25T23:29:53Z</time>
      </trkpt>
      <trkpt lat="50.60503" lon="5.48373">
        <ele>68</ele>
        <time>2019-03-25T23:30:53Z</time>
      </trkpt>
      <trkpt lat="50.60493" lon="5.48362">
        <ele>67</ele>
        <time>2019-03-25T23:31:53Z</time>
      </trkpt>
      <trkpt lat="50.60489" lon="5.48353">
        <ele>67</ele>
        <time>2019-03-25T23:32:53Z</time>
      </trkpt>
      <trkpt lat="50.60462" lon="5.48254">
        <ele>68</ele>
        <time>2019-03-25T23:33:53Z</time>
      </trkpt>
      <trkpt lat="50.60453" lon="5.48227">
        <ele>68</ele>
        <time>2019-03-25T23:34:53Z</time>
      </trkpt>
      <trkpt lat="50.60434" lon="5.48173">
        <ele>68</ele>
        <time>2019-03-25T23:35:53Z</time>
      </trkpt>
      <trkpt lat="50.6042" lon="5.48136">
        <ele>68</ele>
        <time>2019-03-25T23:36:53Z</time>
      </trkpt>
      <trkpt lat="50.60387" lon="5.48056">
        <ele>67</ele>
        <time>2019-03-25T23:37:53Z</time>
      </trkpt>
      <trkpt lat="50.60359" lon="5.47995">
        <ele>67</ele>
        <time>2019-03-25T23:38:53Z</time>
      </trkpt>
      <trkpt lat="50.60339" lon="5.47958">
        <ele>67</ele>
        <time>2019-03-25T23:39:53Z</time>
      </trkpt>
      <trkpt lat="50.60321" lon="5.47925">
        <ele>67</ele>
        <time>2019-03-25T23:40:53Z</time>
      </trkpt>
      <trkpt lat="50.60301" lon="5.47891">
        <ele>67</ele>
        <time>2019-03-25T23:41:53Z</time>
      </trkpt>
      <trkpt lat="50.60265" lon="5.47826">
        <ele>65</ele>
        <time>2019-03-25T23:42:53Z</time>
      </trkpt>
      <trkpt lat="50.60245" lon="5.47796">
        <ele>65</ele>
        <time>2019-03-25T23:43:53Z</time>
      </trkpt>
      <trkpt lat="50.60222" lon="5.47752">
        <ele>64</ele>
        <time>2019-03-25T23:44:53Z</time>
      </trkpt>
      <trkpt lat="50.60206" lon="5.47725">
        <ele>65</ele>
        <time>2019-03-25T23:45:53Z</time>
      </trkpt>
      <trkpt lat="50.60115" lon="5.47564">
        <ele>67</ele>
        <time>2019-03-25T23:46:53Z</time>
      </trkpt>
      <trkpt lat="50.60088" lon="5.47519">
        <ele>67</ele>
        <time>2019-03-25T23:47:53Z</time>
      </trkpt>
      <trkpt lat="50.60011" lon="5.4738">
        <ele>66</ele>
        <time>2019-03-25T23:48:53Z</time>
      </trkpt>
      <trkpt lat="50.59992" lon="5.47345">
        <ele>66</ele>
        <time>2019-03-25T23:49:53Z</time>
      </trkpt>
      <trkpt lat="50.59965" lon="5.47299">
        <ele>66</ele>
        <time>2019-03-25T23:50:53Z</time>
      </trkpt>
      <trkpt lat="50.59949" lon="5.47271">
        <ele>65</ele>
        <time>2019-03-25T23:51:53Z</time>
      </trkpt>
      <trkpt lat="50.5994" lon="5.47245">
        <ele>65</ele>
        <time>2019-03-25T23:52:53Z</time>
      </trkpt>
      <trkpt lat="50.59932" lon="5.47216">
        <ele>64</ele>
        <time>2019-03-25T23:53:53Z</time>
      </trkpt>
      <trkpt lat="50.59922" lon="5.47177">
        <ele>64</ele>
        <time>2019-03-25T23:54:53Z</time>
      </trkpt>
      <trkpt lat="50.5988" lon="5.46925">
        <ele>66</ele>
        <time>2019-03-25T23:55:53Z</time>
      </trkpt>
      <trkpt lat="50.59872" lon="5.46882">
        <ele>67</ele>
        <time>2019-03-25T23:56:53Z</time>
      </trkpt>
      <trkpt lat="50.59853" lon="5.4681">
        <ele>68</ele>
        <time>2019-03-25T23:57:53Z</time>
      </trkpt>
      <trkpt lat="50.59831" lon="5.46743">
        <ele>68</ele>
        <time>2019-03-25T23:58:53Z</time>
      </trkpt>
      <trkpt lat="50.59801" lon="5.46675">
        <ele>67</ele>
        <time>2019-03-25T23:59:53Z</time>
      </trkpt>
      <trkpt lat="50.5976" lon="5.46596">
        <ele>68</ele>
        <time>2019-03-26T00:00:53Z</time>
      </trkpt>
      <trkpt lat="50.59733" lon="5.4653">
        <ele>67</ele>
        <time>2019-03-26T00:01:53Z</time>
      </trkpt>
      <trkpt lat="50.59714" lon="5.46484">
        <ele>67</ele>
        <time>2019-03-26T00:02:53Z</time>
      </trkpt>
      <trkpt lat="50.59696" lon="5.46439">
        <ele>66</ele>
        <time>2019-03-26T00:03:53Z</time>
      </trkpt>
      <trkpt lat="50.59679" lon="5.46391">
        <ele>66</ele>
        <time>2019-03-26T00:04:53Z</time>
      </trkpt>
      <trkpt lat="50.59655" lon="5.46336">
        <ele>66</ele>
        <time>2019-03-26T00:05:53Z</time>
      </trkpt>
      <trkpt lat="50.59636" lon="5.46283">
        <ele>67</ele>
        <time>2019-03-26T00:06:53Z</time>
      </trkpt>
      <trkpt lat="50.59608" lon="5.46205">
        <ele>68</ele>
        <time>2019-03-26T00:07:53Z</time>
      </trkpt>
      <trkpt lat="50.59585" lon="5.46145">
        <ele>68</ele>
        <time>2019-03-26T00:08:53Z</time>
      </trkpt>
      <trkpt lat="50.59571" lon="5.46103">
        <ele>68</ele>
        <time>2019-03-26T00:09:53Z</time>
      </trkpt>
      <trkpt lat="50.59547" lon="5.46048">
        <ele>68</ele>
        <time>2019-03-26T00:10:53Z</time>
      </trkpt>
      <trkpt lat="50.59531" lon="5.46007">
        <ele>68</ele>
        <time>2019-03-26T00:11:53Z</time>
      </trkpt>
      <trkpt lat="50.59508" lon="5.45945">
        <ele>69</ele>
        <time>2019-03-26T00:12:53Z</time>
      </trkpt>
      <trkpt lat="50.59483" lon="5.45885">
        <ele>68</ele>
        <time>2019-03-26T00:13:53Z</time>
      </trkpt>
      <trkpt lat="50.59456" lon="5.45818">
        <ele>66</ele>
        <time>2019-03-26T00:14:53Z</time>
      </trkpt>
      <trkpt lat="50.59406" lon="5.45683">
        <ele>68</ele>
        <time>2019-03-26T00:15:53Z</time>
      </trkpt>
      <trkpt lat="50.59378" lon="5.4561">
        <ele>68</ele>
        <time>2019-03-26T00:16:53Z</time>
      </trkpt>
      <trkpt lat="50.59355" lon="5.45567">
        <ele>67</ele>
        <time>2019-03-26T00:17:53Z</time>
      </trkpt>
      <trkpt lat="50.59314" lon="5.45497">
        <ele>67</ele>
        <time>2019-03-26T00:18:53Z</time>
      </trkpt>
      <trkpt lat="50.59285" lon="5.45439">
        <ele>67</ele>
        <time>2019-03-26T00:19:53Z</time>
      </trkpt>
      <trkpt lat="50.59277" lon="5.45409">
        <ele>67</ele>
        <time>2019-03-26T00:20:53Z</time>
      </trkpt>
      <trkpt lat="50.59279" lon="5.45396">
        <ele>66</ele>
        <time>2019-03-26T00:21:53Z</time>
      </trkpt>
      <trkpt lat="50.59271" lon="5.45373">
        <ele>66</ele>
        <time>2019-03-26T00:22:53Z</time>
      </trkpt>
      <trkpt lat="50.59257" lon="5.45305">
        <ele>64</ele>
        <time>2019-03-26T00:23:53Z</time>
      </trkpt>
      <trkpt lat="50.5924" lon="5.45288">
        <ele>64</ele>
        <time>2019-03-26T00:24:53Z</time>
      </trkpt>
      <trkpt lat="50.59241" lon="5.45262">
        <ele>64</ele>
        <time>2019-03-26T00:25:53Z</time>
      </trkpt>
      <trkpt lat="50.59236" lon="5.45199">
        <ele>66</ele>
        <time>2019-03-26T00:26:53Z</time>
      </trkpt>
      <trkpt lat="50.59222" lon="5.45103">
        <ele>66</ele>
        <time>2019-03-26T00:27:53Z</time>
      </trkpt>
      <trkpt lat="50.59204" lon="5.44994">
        <ele>65</ele>
        <time>2019-03-26T00:28:53Z</time>
      </trkpt>
      <trkpt lat="50.59191" lon="5.44924">
        <ele>65</ele>
        <time>2019-03-26T00:29:53Z</time>
      </trkpt>
      <trkpt lat="50.5918" lon="5.44879">
        <ele>64</ele>
        <time>2019-03-26T00:30:53Z</time>
      </trkpt>
      <trkpt lat="50.59171" lon="5.44851">
        <ele>64</ele>
        <time>2019-03-26T00:31:53Z</time>
      </trkpt>
      <trkpt lat="50.5916" lon="5.44825">
        <ele>63</ele>
        <time>2019-03-26T00:32:53Z</time>
      </trkpt>
      <trkpt lat="50.59128" lon="5.4476">
        <ele>64</ele>
        <time>2019-03-26T00:33:53Z</time>
      </trkpt>
      <trkpt lat="50.59104" lon="5.4471">
        <ele>65</ele>
        <time>2019-03-26T00:34:53Z</time>
      </trkpt>
      <trkpt lat="50.59075" lon="5.44644">
        <ele>66</ele>
        <time>2019-03-26T00:35:53Z</time>
      </trkpt>
      <trkpt lat="50.59049" lon="5.44581">
        <ele>67</ele>
        <time>2019-03-26T00:36:53Z</time>
      </trkpt>
      <trkpt lat="50.59032" lon="5.44516">
        <ele>67</ele>
        <time>2019-03-26T00:37:53Z</time>
      </trkpt>
      <trkpt lat="50.5901" lon="5.44406">
        <ele>68</ele>
        <time>2019-03-26T00:38:53Z</time>
      </trkpt>
      <trkpt lat="50.58997" lon="5.44338">
        <ele>70</ele>
        <time>2019-03-26T00:39:53Z</time>
      </trkpt>
      <trkpt lat="50.58982" lon="5.44249">
        <ele>71</ele>
        <time>2019-03-26T00:40:53Z</time>
      </trkpt>
      <trkpt lat="50.58965" lon="5.4414">
        <ele>70</ele>
        <time>2019-03-26T00:41:53Z</time>
      </trkpt>
      <trkpt lat="50.58958" lon="5.4409">
        <ele>70</ele>
        <time>2019-03-26T00:42:53Z</time>
      </trkpt>
      <trkpt lat="50.5895" lon="5.44038">
        <ele>68</ele>
        <time>2019-03-26T00:43:53Z</time>
      </trkpt>
      <trkpt lat="50.58938" lon="5.43939">
        <ele>65</ele>
        <time>2019-03-26T00:44:53Z</time>
      </trkpt>
      <trkpt lat="50.5892" lon="5.43804">
        <ele>67</ele>
        <time>2019-03-26T00:45:53Z</time>
      </trkpt>
      <trkpt lat="50.58908" lon="5.43727">
        <ele>69</ele>
        <time>2019-03-26T00:46:53Z</time>
      </trkpt>
      <trkpt lat="50.58897" lon="5.4361">
        <ele>70</ele>
        <time>2019-03-26T00:47:53Z</time>
      </trkpt>
      <trkpt lat="50.58881" lon="5.43387">
        <ele>72</ele>
        <time>2019-03-26T00:48:53Z</time>
      </trkpt>
      <trkpt lat="50.58869" lon="5.43288">
        <ele>73</ele>
        <time>2019-03-26T00:49:53Z</time>
      </trkpt>
      <trkpt lat="50.58849" lon="5.43209">
        <ele>70</ele>
        <time>2019-03-26T00:50:53Z</time>
      </trkpt>
      <trkpt lat="50.58829" lon="5.43132">
        <ele>66</ele>
        <time>2019-03-26T00:51:53Z</time>
      </trkpt>
      <trkpt lat="50.58706" lon="5.42634">
        <ele>63</ele>
        <time>2019-03-26T00:52:53Z</time>
      </trkpt>
      <trkpt lat="50.58691" lon="5.42545">
        <ele>64</ele>
        <time>2019-03-26T00:53:53Z</time>
      </trkpt>
      <trkpt lat="50.58678" lon="5.42428">
        <ele>65</ele>
        <time>2019-03-26T00:54:53Z</time>
      </trkpt>
      <trkpt lat="50.58671" lon="5.42353">
        <ele>65</ele>
        <time>2019-03-26T00:55:53Z</time>
      </trkpt>
      <trkpt lat="50.58661" lon="5.42272">
        <ele>64</ele>
        <time>2019-03-26T00:56:53Z</time>
      </trkpt>
      <trkpt lat="50.58652" lon="5.42174">
        <ele>64</ele>
        <time>2019-03-26T00:57:53Z</time>
      </trkpt>
      <trkpt lat="50.58643" lon="5.42095">
        <ele>65</ele>
        <time>2019-03-26T00:58:53Z</time>
      </trkpt>
      <trkpt lat="50.58631" lon="5.41972">
        <ele>66</ele>
        <time>2019-03-26T00:59:53Z</time>
      </trkpt>
      <trkpt lat="50.58621" lon="5.41883">
        <ele>66</ele>
        <time>2019-03-26T01:00:53Z</time>
      </trkpt>
      <trkpt lat="50.58615" lon="5.41818">
        <ele>66</ele>
        <time>2019-03-26T01:01:53Z</time>
      </trkpt>
      <trkpt lat="50.58609" lon="5.41755">
        <ele>65</ele>
        <time>2019-03-26T01:02:53Z</time>
      </trkpt>
      <trkpt lat="50.58608" lon="5.41686">
        <ele>66</ele>
        <time>2019-03-26T01:03:53Z</time>
      </trkpt>
      <trkpt lat="50.58608" lon="5.41662">
        <ele>66</ele>
        <time>2019-03-26T01:04:53Z</time>
      </trkpt>
      <trkpt lat="50.58611" lon="5.41612">
        <ele>67</ele>
        <time>2019-03-26T01:05:53Z</time>
      </trkpt>
      <trkpt lat="50.58611" lon="5.41579">
        <ele>68</ele>
        <time>2019-03-26T01:06:53Z</time>
      </trkpt>
      <trkpt lat="50.58628" lon="5.41574">
        <ele>67</ele>
        <time>2019-03-26T01:07:53Z</time>
      </trkpt>
      <trkpt lat="50.58638" lon="5.4157">
        <ele>67</ele>
        <time>2019-03-26T01:08:53Z</time>
      </trkpt>
      <trkpt lat="50.58654" lon="5.41562">
        <ele>67</ele>
        <time>2019-03-26T01:09:53Z</time>
      </trkpt>
      <trkpt lat="50.5868" lon="5.41551">
        <ele>68</ele>
        <time>2019-03-26T01:10:53Z</time>
      </trkpt>
      <trkpt lat="50.5869" lon="5.41547">
        <ele>69</ele>
        <time>2019-03-26T01:11:53Z</time>
      </trkpt>
      <trkpt lat="50.587" lon="5.41542">
        <ele>70</ele>
        <time>2019-03-26T01:12:53Z</time>
      </trkpt>
      <trkpt lat="50.58713" lon="5.41534">
        <ele>70</ele>
        <time>2019-03-26T01:13:53Z</time>
      </trkpt>
      <trkpt lat="50.58722" lon="5.41526">
        <ele>71</ele>
        <time>2019-03-26T01:14:53Z</time>
      </trkpt>
      <trkpt lat="50.58727" lon="5.41521">
        <ele>71</ele>
        <time>2019-03-26T01:15:53Z</time>
      </trkpt>
      <trkpt lat="50.58751" lon="5.41489">
        <ele>70</ele>
        <time>2019-03-26T01:16:53Z</time>
      </trkpt>
      <trkpt lat="50.58774" lon="5.41461">
        <ele>70</ele>
        <time>2019-03-26T01:17:53Z</time>
      </trkpt>
      <trkpt lat="50.58801" lon="5.41421">
        <ele>68</ele>
        <time>2019-03-26T01:18:53Z</time>
      </trkpt>
      <trkpt lat="50.58818" lon="5.41401">
        <ele>68</ele>
        <time>2019-03-26T01:19:53Z</time>
      </trkpt>
      <trkpt lat="50.58847" lon="5.41373">
        <ele>69</ele>
        <time>2019-03-26T01:20:53Z</time>
      </trkpt>
      <trkpt lat="50.58868" lon="5.41353">
        <ele>71</ele>
        <time>2019-03-26T01:21:53Z</time>
      </trkpt>
      <trkpt lat="50.58888" lon="5.41324">
        <ele>72</ele>
        <time>2019-03-26T01:22:53Z</time>
      </trkpt>
      <trkpt lat="50.58905" lon="5.41286">
        <ele>73</ele>
        <time>2019-03-26T01:23:53Z</time>
      </trkpt>
      <trkpt lat="50.58937" lon="5.41199">
        <ele>76</ele>
        <time>2019-03-26T01:24:53Z</time>
      </trkpt>
      <trkpt lat="50.58955" lon="5.41149">
        <ele>77</ele>
        <time>2019-03-26T01:25:53Z</time>
      </trkpt>
      <trkpt lat="50.5897" lon="5.4112">
        <ele>77</ele>
        <time>2019-03-26T01:26:53Z</time>
      </trkpt>
      <trkpt lat="50.58976" lon="5.41106">
        <ele>76</ele>
        <time>2019-03-26T01:27:53Z</time>
      </trkpt>
      <trkpt lat="50.58993" lon="5.41092">
        <ele>76</ele>
        <time>2019-03-26T01:28:53Z</time>
      </trkpt>
      <trkpt lat="50.5902" lon="5.41086">
        <ele>77</ele>
        <time>2019-03-26T01:29:53Z</time>
      </trkpt>
      <trkpt lat="50.59044" lon="5.4109">
        <ele>79</ele>
        <time>2019-03-26T01:30:53Z</time>
      </trkpt>
      <trkpt lat="50.59073" lon="5.41102">
        <ele>82</ele>
        <time>2019-03-26T01:31:53Z</time>
      </trkpt>
      <trkpt lat="50.59088" lon="5.41108">
        <ele>83</ele>
        <time>2019-03-26T01:32:53Z</time>
      </trkpt>
      <trkpt lat="50.59103" lon="5.41113">
        <ele>84</ele>
        <time>2019-03-26T01:33:53Z</time>
      </trkpt>
      <trkpt lat="50.59144" lon="5.41129">
        <ele>85</ele>
        <time>2019-03-26T01:34:53Z</time>
      </trkpt>
      <trkpt lat="50.59199" lon="5.41148">
        <ele>86</ele>
        <time>2019-03-26T01:35:53Z</time>
      </trkpt>
      <trkpt lat="50.59222" lon="5.41148">
        <ele>88</ele>
        <time>2019-03-26T01:36:53Z</time>
      </trkpt>
      <trkpt lat="50.59228" lon="5.41147">
        <ele>88</ele>
        <time>2019-03-26T01:37:53Z</time>
      </trkpt>
      <trkpt lat="50.59251" lon="5.41138">
        <ele>90</ele>
        <time>2019-03-26T01:38:53Z</time>
      </trkpt>
      <trkpt lat="50.5927" lon="5.41127">
        <ele>89</ele>
        <time>2019-03-26T01:39:53Z</time>
      </trkpt>
      <trkpt lat="50.59319" lon="5.41115">
        <ele>85</ele>
        <time>2019-03-26T01:40:53Z</time>
      </trkpt>
      <trkpt lat="50.59338" lon="5.41111">
        <ele>84</ele>
        <time>2019-03-26T01:41:53Z</time>
      </trkpt>
      <trkpt lat="50.59387" lon="5.41101">
        <ele>83</ele>
        <time>2019-03-26T01:42:53Z</time>
      </trkpt>
      <trkpt lat="50.5943" lon="5.41093">
        <ele>82</ele>
        <time>2019-03-26T01:43:53Z</time>
      </trkpt>
      <trkpt lat="50.59436" lon="5.41092">
        <ele>82</ele>
        <time>2019-03-26T01:44:53Z</time>
      </trkpt>
      <trkpt lat="50.59442" lon="5.4109">
        <ele>82</ele>
        <time>2019-03-26T01:45:53Z</time>
      </trkpt>
      <trkpt lat="50.59499" lon="5.41082">
        <ele>81</ele>
        <time>2019-03-26T01:46:53Z</time>
      </trkpt>
      <trkpt lat="50.59537" lon="5.41086">
        <ele>82</ele>
        <time>2019-03-26T01:47:53Z</time>
      </trkpt>
      <trkpt lat="50.59542" lon="5.41088">
        <ele>82</ele>
        <time>2019-03-26T01:48:53Z</time>
      </trkpt>
      <trkpt lat="50.59571" lon="5.41093">
        <ele>83</ele>
        <time>2019-03-26T01:49:53Z</time>
      </trkpt>
      <trkpt lat="50.59604" lon="5.41099">
        <ele>84</ele>
        <time>2019-03-26T01:50:53Z</time>
      </trkpt>
      <trkpt lat="50.5963" lon="5.41106">
        <ele>84</ele>
        <time>2019-03-26T01:51:53Z</time>
      </trkpt>
      <trkpt lat="50.59657" lon="5.41112">
        <ele>85</ele>
        <time>2019-03-26T01:52:53Z</time>
      </trkpt>
      <trkpt lat="50.597" lon="5.41111">
        <ele>86</ele>
        <time>2019-03-26T01:53:53Z</time>
      </trkpt>
      <trkpt lat="50.59739" lon="5.41112">
        <ele>88</ele>
        <time>2019-03-26T01:54:53Z</time>
      </trkpt>
      <trkpt lat="50.59766" lon="5.4111">
        <ele>88</ele>
        <time>2019-03-26T01:55:53Z</time>
      </trkpt>
      <trkpt lat="50.59774" lon="5.41109">
        <ele>87</ele>
        <time>2019-03-26T01:56:53Z</time>
      </trkpt>
      <trkpt lat="50.59784" lon="5.41107">
        <ele>87</ele>
        <time>2019-03-26T01:57:53Z</time>
      </trkpt>
      <trkpt lat="50.59804" lon="5.41095">
        <ele>87</ele>
        <time>2019-03-26T01:58:53Z</time>
      </trkpt>
      <trkpt lat="50.59819" lon="5.41081">
        <ele>87</ele>
        <time>2019-03-26T01:59:53Z</time>
      </trkpt>
      <trkpt lat="50.59859" lon="5.41027">
        <ele>88</ele>
        <time>2019-03-26T02:00:53Z</time>
      </trkpt>
      <trkpt lat="50.59878" lon="5.40978">
        <ele>89</ele>
        <time>2019-03-26T02:01:53Z</time>
      </trkpt>
      <trkpt lat="50.59884" lon="5.40952">
        <ele>90</ele>
        <time>2019-03-26T02:02:53Z</time>
      </trkpt>
      <trkpt lat="50.59894" lon="5.40917">
        <ele>91</ele>
        <time>2019-03-26T02:03:53Z</time>
      </trkpt>
      <trkpt lat="50.59927" lon="5.40808">
        <ele>88</ele>
        <time>2019-03-26T02:04:53Z</time>
      </trkpt>
      <trkpt lat="50.59948" lon="5.40731">
        <ele>89</ele>
        <time>2019-03-26T02:05:53Z</time>
      </trkpt>
      <trkpt lat="50.5997" lon="5.4066">
        <ele>89</ele>
        <time>2019-03-26T02:06:53Z</time>
      </trkpt>
      <trkpt lat="50.59994" lon="5.40583">
        <ele>88</ele>
        <time>2019-03-26T02:07:53Z</time>
      </trkpt>
      <trkpt lat="50.60006" lon="5.40551">
        <ele>89</ele>
        <time>2019-03-26T02:08:53Z</time>
      </trkpt>
      <trkpt lat="50.60016" lon="5.40535">
        <ele>89</ele>
        <time>2019-03-26T02:09:53Z</time>
      </trkpt>
      <trkpt lat="50.60128" lon="5.40471">
        <ele>93</ele>
        <time>2019-03-26T02:10:53Z</time>
      </trkpt>
      <trkpt lat="50.6014" lon="5.40465">
        <ele>93</ele>
        <time>2019-03-26T02:11:53Z</time>
      </trkpt>
      <trkpt lat="50.60195" lon="5.40429">
        <ele>94</ele>
        <time>2019-03-26T02:12:53Z</time>
      </trkpt>
      <trkpt lat="50.6021" lon="5.40418">
        <ele>94</ele>
        <time>2019-03-26T02:13:53Z</time>
      </trkpt>
      <trkpt lat="50.60272" lon="5.40386">
        <ele>97</ele>
        <time>2019-03-26T02:14:53Z</time>
      </trkpt>
      <trkpt lat="50.60298" lon="5.40374">
        <ele>97</ele>
        <time>2019-03-26T02:15:53Z</time>
      </trkpt>
      <trkpt lat="50.6033" lon="5.40356">
        <ele>98</ele>
        <time>2019-03-26T02:16:53Z</time>
      </trkpt>
      <trkpt lat="50.60389" lon="5.40327">
        <ele>97</ele>
        <time>2019-03-26T02:17:53Z</time>
      </trkpt>
      <trkpt lat="50.60434" lon="5.40301">
        <ele>96</ele>
        <time>2019-03-26T02:18:53Z</time>
      </trkpt>
      <trkpt lat="50.60454" lon="5.40288">
        <ele>96</ele>
        <time>2019-03-26T02:19:53Z</time>
      </trkpt>
      <trkpt lat="50.60477" lon="5.40268">
        <ele>95</ele>
        <time>2019-03-26T02:20:53Z</time>
      </trkpt>
      <trkpt lat="50.60492" lon="5.40252">
        <ele>95</ele>
        <time>2019-03-26T02:21:53Z</time>
      </trkpt>
      <trkpt lat="50.60519" lon="5.40223">
        <ele>97</ele>
        <time>2019-03-26T02:22:53Z</time>
      </trkpt>
      <trkpt lat="50.6054" lon="5.40196">
        <ele>98</ele>
        <time>2019-03-26T02:23:53Z</time>
      </trkpt>
      <trkpt lat="50.60554" lon="5.40184">
        <ele>98</ele>
        <time>2019-03-26T02:24:53Z</time>
      </trkpt>
      <trkpt lat="50.60613" lon="5.40115">
        <ele>99</ele>
        <time>2019-03-26T02:25:53Z</time>
      </trkpt>
      <trkpt lat="50.60626" lon="5.40096">
        <ele>99</ele>
        <time>2019-03-26T02:26:53Z</time>
      </trkpt>
      <trkpt lat="50.60654" lon="5.40032">
        <ele>100</ele>
        <time>2019-03-26T02:27:53Z</time>
      </trkpt>
      <trkpt lat="50.60681" lon="5.39961">
        <ele>101</ele>
        <time>2019-03-26T02:28:53Z</time>
      </trkpt>
      <trkpt lat="50.60709" lon="5.39882">
        <ele>103</ele>
        <time>2019-03-26T02:29:53Z</time>
      </trkpt>
      <trkpt lat="50.60718" lon="5.39854">
        <ele>104</ele>
        <time>2019-03-26T02:30:53Z</time>
      </trkpt>
      <trkpt lat="50.60739" lon="5.39784">
        <ele>106</ele>
        <time>2019-03-26T02:31:53Z</time>
      </trkpt>
      <trkpt lat="50.60772" lon="5.39686">
        <ele>110</ele>
        <time>2019-03-26T02:32:53Z</time>
      </trkpt>
      <trkpt lat="50.60791" lon="5.39621">
        <ele>109.3</ele>
      </trkpt>
      <trkpt lat="50.6081" lon="5.39556">
        <ele>109</ele>
        <time>2019-03-26T02:34:53Z</time>
      </trkpt>
      <trkpt lat="50.60826" lon="5.39504">
        <ele>111</ele>
        <time>2019-03-26T02:35:53Z</time>
      </trkpt>
      <trkpt lat="50.60845" lon="5.39439">
        <ele>114.2</ele>
      </trkpt>
      <trkpt lat="50.60851" lon="5.39423">
        <ele>115</ele>
        <time>2019-03-26T02:37:53Z</time>
      </trkpt>
      <trkpt lat="50.60861" lon="5.39402">
        <ele>116</ele>
        <time>2019-03-26T02:38:53Z</time>
      </trkpt>
      <trkpt lat="50.60876" lon="5.39367">
        <ele>115</ele>
        <time>2019-03-26T02:39:53Z</time>
      </trkpt>
      <trkpt lat="50.60897" lon="5.39338">
        <ele>112</ele>
        <time>2019-03-26T02:40:53Z</time>
      </trkpt>
      <trkpt lat="50.60939" lon="5.39284">
        <ele>110</ele>
        <time>2019-03-26T02:41:53Z</time>
      </trkpt>
      <trkpt lat="50.60963" lon="5.39256">
        <ele>110</ele>
        <time>2019-03-26T02:42:53Z</time>
      </trkpt>
      <trkpt lat="50.6098" lon="5.39243">
        <ele>110</ele>
        <time>2019-03-26T02:43:53Z</time>
      </trkpt>
      <trkpt lat="50.61013" lon="5.39223">
        <ele>109</ele>
        <time>2019-03-26T02:44:53Z</time>
      </trkpt>
      <trkpt lat="50.61028" lon="5.39219">
        <ele>109.7</ele>
      </trkpt>
      <trkpt lat="50.61051" lon="5.39216">
        <ele>110.1</ele>
      </trkpt>
      <trkpt lat="50.61097" lon="5.39208">
        <ele>111.5</ele>
      </trkpt>
      <trkpt lat="50.61109" lon="5.39207">
        <ele>111.4</ele>
      </trkpt>
      <trkpt lat="50.61154" lon="5.39199">
        <ele>111</ele>
        <time>2019-03-26T02:49:53Z</time>
      </trkpt>
      <trkpt lat="50.6119" lon="5.39189">
        <ele>111</ele>
        <time>2019-03-26T02:50:53Z</time>
      </trkpt>
      <trkpt lat="50.612" lon="5.39184">
        <ele>111</ele>
        <time>2019-03-26T02:51:53Z</time>
      </trkpt>
      <trkpt lat="50.61225" lon="5.39166">
        <ele>110</ele>
        <time>2019-03-26T02:52:53Z</time>
      </trkpt>
      <trkpt lat="50.61249" lon="5.3914">
        <ele>111</ele>
        <time>2019-03-26T02:53:53Z</time>
      </trkpt>
      <trkpt lat="50.61286" lon="5.39099">
        <ele>112</ele>
        <time>2019-03-26T02:54:53Z</time>
      </trkpt>
      <trkpt lat="50.6131" lon="5.39066">
        <ele>112</ele>
        <time>2019-03-26T02:55:53Z</time>
      </trkpt>
      <trkpt lat="50.61331" lon="5.39042">
        <ele>112</ele>
        <time>2019-03-26T02:56:53Z</time>
      </trkpt>
      <trkpt lat="50.61355" lon="5.39014">
        <ele>115</ele>
        <time>2019-03-26T02:57:53Z</time>
      </trkpt>
      <trkpt lat="50.61364" lon="5.39006">
        <ele>116</ele>
        <time>2019-03-26T02:58:53Z</time>
      </trkpt>
      <trkpt lat="50.61396" lon="5.38971">
        <ele>118</ele>
        <time>2019-03-26T02:59:53Z</time>
      </trkpt>
      <trkpt lat="50.61429" lon="5.38943">
        <ele>118</ele>
        <time>2019-03-26T03:00:53Z</time>
      </trkpt>
      <trkpt lat="50.61443" lon="5.38935">
        <ele>118</ele>
        <time>2019-03-26T03:01:53Z</time>
      </trkpt>
      <trkpt lat="50.6146" lon="5.3893">
        <ele>119</ele>
        <time>2019-03-26T03:02:53Z</time>
      </trkpt>
      <trkpt lat="50.61473" lon="5.38928">
        <ele>120</ele>
        <time>2019-03-26T03:03:53Z</time>
      </trkpt>
      <trkpt lat="50.61486" lon="5.38929">
        <ele>121</ele>
        <time>2019-03-26T03:04:53Z</time>
      </trkpt>
      <trkpt lat="50.61499" lon="5.38934">
        <ele>122</ele>
        <time>2019-03-26T03:05:53Z</time>
      </trkpt>
      <trkpt lat="50.61505" lon="5.3894">
        <ele>123</ele>
        <time>2019-03-26T03:06:53Z</time>
      </trkpt>
      <trkpt lat="50.61524" lon="5.3896">
        <ele>124</ele>
        <time>2019-03-26T03:07:53Z</time>
      </trkpt>
      <trkpt lat="50.61532" lon="5.38966">
        <ele>124</ele>
        <time>2019-03-26T03:08:53Z</time>
      </trkpt>
      <trkpt lat="50.61573" lon="5.39003">
        <ele>124</ele>
        <time>2019-03-26T03:09:53Z</time>
      </trkpt>
      <trkpt lat="50.61589" lon="5.39012">
        <ele>124</ele>
        <time>2019-03-26T03:10:53Z</time>
      </trkpt>
      <trkpt lat="50.6161" lon="5.39024">
        <ele>125</ele>
        <time>2019-03-26T03:11:53Z</time>
      </trkpt>
      <trkpt lat="50.61631" lon="5.39039">
        <ele>127</ele>
        <time>2019-03-26T03:12:53Z</time>
      </trkpt>
      <trkpt lat="50.61682" lon="5.39077">
        <ele>128</ele>
        <time>2019-03-26T03:13:53Z</time>
      </trkpt>
      <trkpt lat="50.61718" lon="5.39114">
        <ele>129</ele>
        <time>2019-03-26T03:14:53Z</time>
      </trkpt>
      <trkpt lat="50.6175" lon="5.39156">
        <ele>128</ele>
        <time>2019-03-26T03:15:53Z</time>
      </trkpt>
      <trkpt lat="50.61885" lon="5.39352">
        <ele>135</ele>
        <time>2019-03-26T03:16:53Z</time>
      </trkpt>
      <trkpt lat="50.61909" lon="5.39382">
        <ele>135</ele>
        <time>2019-03-26T03:17:53Z</time>
      </trkpt>
      <trkpt lat="50.61919" lon="5.39392">
        <ele>135</ele>
        <time>2019-03-26T03:18:53Z</time>
      </trkpt>
      <trkpt lat="50.61951" lon="5.39424">
        <ele>138.9</ele>
      </trkpt>
      <trkpt lat="50.61986" lon="5.39458">
        <ele>135</ele>
        <time>2019-03-26T03:20:53Z</time>
      </trkpt>
      <trkpt lat="50.62002" lon="5.39474">
        <ele>135</ele>
        <time>2019-03-26T03:21:53Z</time>
      </trkpt>
      <trkpt lat="50.62023" lon="5.39495">
        <ele>136</ele>
        <time>2019-03-26T03:22:53Z</time>
      </trkpt>
      <trkpt lat="50.62077" lon="5.39546">
        <ele>138</ele>
        <time>2019-03-26T03:23:53Z</time>
      </trkpt>
      <trkpt lat="50.62089" lon="5.39558">
        <ele>139</ele>
        <time>2019-03-26T03:24:53Z</time>
      </trkpt>
      <trkpt lat="50.62102" lon="5.39566">
        <ele>139</ele>
        <time>2019-03-26T03:25:53Z</time>
      </trkpt>
      <trkpt lat="50.62117" lon="5.3958">
        <ele>140</ele>
        <time>2019-03-26T03:26:53Z</time>
      </trkpt>
      <trkpt lat="50.62137" lon="5.39594">
        <ele>138</ele>
        <time>2019-03-26T03:27:53Z</time>
      </trkpt>
      <trkpt lat="50.62156" lon="5.39605">
        <ele>137</ele>
        <time>2019-03-26T03:28:53Z</time>
      </trkpt>
      <trkpt lat="50.62156" lon="5.39608">
        <ele>137</ele>
        <time>2019-03-26T03:29:53Z</time>
      </trkpt>
      <trkpt lat="50.62182" lon="5.39613">
        <ele>136</ele>
        <time>2019-03-26T03:30:53Z</time>
      </trkpt>
      <trkpt lat="50.62193" lon="5.39613">
        <ele>136</ele>
        <time>2019-03-26T03:31:53Z</time>
      </trkpt>
      <trkpt lat="50.62346" lon="5.39607">
        <ele>136</ele>
        <time>2019-03-26T03:32:53Z</time>
      </trkpt>
      <trkpt lat="50.62356" lon="5.39606">
        <ele>137</ele>
        <time>2019-03-26T03:33:53Z</time>
      </trkpt>
      <trkpt lat="50.62391" lon="5.39608">
        <ele>140</ele>
        <time>2019-03-26T03:34:53Z</time>
      </trkpt>
      <trkpt lat="50.62414" lon="5.39605">
        <ele>141</ele>
        <time>2019-03-26T03:35:53Z</time>
      </trkpt>
      <trkpt lat="50.6252" lon="5.39604">
        <ele>143</ele>
        <time>2019-03-26T03:36:53Z</time>
      </trkpt>
      <trkpt lat="50.62541" lon="5.39603">
        <ele>143</ele>
        <time>2019-03-26T03:37:53Z</time>
      </trkpt>
      <trkpt lat="50.62553" lon="5.39604">
        <ele>143</ele>
        <time>2019-03-26T03:38:53Z</time>
      </trkpt>
      <trkpt lat="50.6258" lon="5.39604">
        <ele>144</ele>
        <time>2019-03-26T03:39:53Z</time>
      </trkpt>
      <trkpt lat="50.62614" lon="5.39602">
        <ele>145</ele>
        <time>2019-03-26T03:40:53Z</time>
      </trkpt>
      <trkpt lat="50.62623" lon="5.39602">
        <ele>146</ele>
        <time>2019-03-26T03:41:53Z</time>
      </trkpt>
      <trkpt lat="50.62643" lon="5.39597">
        <ele>147</ele>
        <time>2019-03-26T03:42:53Z</time>
      </trkpt>
      <trkpt lat="50.62657" lon="5.39596">
        <ele>148</ele>
        <time>2019-03-26T03:43:53Z</time>
      </trkpt>
      <trkpt lat="50.62678" lon="5.39588">
        <ele>149</ele>
        <time>2019-03-26T03:44:53Z</time>
      </trkpt>
      <trkpt lat="50.62699" lon="5.39582">
        <ele>150</ele>
        <time>2019-03-26T03:45:53Z</time>
      </trkpt>
      <trkpt lat="50.62738" lon="5.39568">
        <ele>152</ele>
        <time>2019-03-26T03:46:53Z</time>
      </trkpt>
      <trkpt lat="50.6276" lon="5.39558">
        <ele>154</ele>
        <time>2019-03-26T03:47:53Z</time>
      </trkpt>
      <trkpt lat="50.62793" lon="5.39548">
        <ele>156</ele>
        <time>2019-03-26T03:48:53Z</time>
      </trkpt>
      <trkpt lat="50.62815" lon="5.3954">
        <ele>157</ele>
        <time>2019-03-26T03:49:53Z</time>
      </trkpt>
      <trkpt lat="50.6283" lon="5.39534">
        <ele>158</ele>
        <time>2019-03-26T03:50:53Z</time>
      </trkpt>
      <trkpt lat="50.62843" lon="5.39531">
        <ele>159</ele>
        <time>2019-03-26T03:51:53Z</time>
      </trkpt>
      <trkpt lat="50.62865" lon="5.39524">
        <ele>161</ele>
        <time>2019-03-26T03:52:53Z</time>
      </trkpt>
      <trkpt lat="50.62902" lon="5.3951">
        <ele>163</ele>
        <time>2019-03-26T03:53:53Z</time>
      </trkpt>
      <trkpt lat="50.62934" lon="5.39497">
        <ele>164</ele>
        <time>2019-03-26T03:54:53Z</time>
      </trkpt>
      <trkpt lat="50.62982" lon="5.39481">
        <ele>165</ele>
        <time>2019-03-26T03:55:53Z</time>
      </trkpt>
      <trkpt lat="50.63001" lon="5.39473">
        <ele>165</ele>
        <time>2019-03-26T03:56:53Z</time>
      </trkpt>
      <trkpt lat="50.63041" lon="5.39458">
        <ele>166</ele>
        <time>2019-03-26T03:57:53Z</time>
      </trkpt>
      <trkpt lat="50.63052" lon="5.39455">
        <ele>167</ele>
        <time>2019-03-26T03:58:53Z</time>
      </trkpt>
      <trkpt lat="50.63084" lon="5.39442">
        <ele>168</ele>
        <time>2019-03-26T03:59:53Z</time>
      </trkpt>
      <trkpt lat="50.63094" lon="5.39439">
        <ele>167</ele>
        <time>2019-03-26T04:00:53Z</time>
      </trkpt>
      <trkpt lat="50.63122" lon="5.39427">
        <ele>167</ele>
        <time>2019-03-26T04:01:53Z</time>
      </trkpt>
      <trkpt lat="50.63167" lon="5.39409">
        <ele>168</ele>
        <time>2019-03-26T04:02:53Z</time>
      </trkpt>
      <trkpt lat="50.63218" lon="5.39391">
        <ele>168</ele>
        <time>2019-03-26T04:03:53Z</time>
      </trkpt>
      <trkpt lat="50.63252" lon="5.39382">
        <ele>169</ele>
        <time>2019-03-26T04:04:53Z</time>
      </trkpt>
      <trkpt lat="50.6327" lon="5.39375">
        <ele>168</ele>
        <time>2019-03-26T04:05:53Z</time>
      </trkpt>
      <trkpt lat="50.63286" lon="5.39374">
        <ele>167</ele>
        <time>2019-03-26T04:06:53Z</time>
      </trkpt>
      <trkpt lat="50.63292" lon="5.39374">
        <ele>167</ele>
        <time>2019-03-26T04:07:53Z</time>
      </trkpt>
      <trkpt lat="50.63311" lon="5.39375">
        <ele>166</ele>
        <time>2019-03-26T04:08:53Z</time>
      </trkpt>
      <trkpt lat="50.63326" lon="5.39382">
        <ele>166</ele>
        <time>2019-03-26T04:09:53Z</time>
      </trkpt>
      <trkpt lat="50.63344" lon="5.39392">
        <ele>166</ele>
        <time>2019-03-26T04:10:53Z</time>
      </trkpt>
      <trkpt lat="50.6336" lon="5.39402">
        <ele>165</ele>
        <time>2019-03-26T04:11:53Z</time>
      </trkpt>
      <trkpt lat="50.63378" lon="5.39419">
        <ele>164</ele>
        <time>2019-03-26T04:12:53Z</time>
      </trkpt>
      <trkpt lat="50.63395" lon="5.39442">
        <ele>163</ele>
        <time>2019-03-26T04:13:53Z</time>
      </trkpt>
      <trkpt lat="50.63413" lon="5.39468">
        <ele>162</ele>
        <time>2019-03-26T04:14:53Z</time>
      </trkpt>
      <trkpt lat="50.63434" lon="5.39512">
        <ele>163</ele>
        <time>2019-03-26T04:15:53Z</time>
      </trkpt>
      <trkpt lat="50.63461" lon="5.39564">
        <ele>165</ele>
        <time>2019-03-26T04:16:53Z</time>
      </trkpt>
      <trkpt lat="50.6348" lon="5.39589">
        <ele>165</ele>
        <time>2019-03-26T04:17:53Z</time>
      </trkpt>
      <trkpt lat="50.63489" lon="5.39598">
        <ele>165</ele>
        <time>2019-03-26T04:18:53Z</time>
      </trkpt>
      <trkpt lat="50.635" lon="5.39611">
        <ele>166</ele>
        <time>2019-03-26T04:19:53Z</time>
      </trkpt>
      <trkpt lat="50.63505" lon="5.39625">
        <ele>166</ele>
        <time>2019-03-26T04:20:53Z</time>
      </trkpt>
      <trkpt lat="50.63514" lon="5.39631">
        <ele>166</ele>
        <time>2019-03-26T04:21:53Z</time>
      </trkpt>
      <trkpt lat="50.63524" lon="5.39621">
        <ele>166</ele>
        <time>2019-03-26T04:22:53Z</time>
      </trkpt>
      <trkpt lat="50.63522" lon="5.39607">
        <ele>165</ele>
        <time>2019-03-26T04:23:53Z</time>
      </trkpt>
      <trkpt lat="50.63514" lon="5.39581">
        <ele>165</ele>
        <time>2019-03-26T04:24:53Z</time>
      </trkpt>
      <trkpt lat="50.63483" lon="5.39201">
        <ele>161</ele>
        <time>2019-03-26T04:25:53Z</time>
      </trkpt>
      <trkpt lat="50.63475" lon="5.39118">
        <ele>162</ele>
        <time>2019-03-26T04:26:53Z</time>
      </trkpt>
      <trkpt lat="50.63452" lon="5.38809">
        <ele>162</ele>
        <time>2019-03-26T04:27:53Z</time>
      </trkpt>
      <trkpt lat="50.63445" lon="5.38739">
        <ele>162</ele>
        <time>2019-03-26T04:28:53Z</time>
      </trkpt>
      <trkpt lat="50.63425" lon="5.38459">
        <ele>164</ele>
        <time>2019-03-26T04:29:53Z</time>
      </trkpt>
      <trkpt lat="50.6342" lon="5.38402">
        <ele>164</ele>
        <time>2019-03-26T04:30:53Z</time>
      </trkpt>
      <trkpt lat="50.63418" lon="5.38361">
        <ele>165</ele>
        <time>2019-03-26T04:31:53Z</time>
      </trkpt>
      <trkpt lat="50.63408" lon="5.38262">
        <ele>166</ele>
        <time>2019-03-26T04:32:53Z</time>
      </trkpt>
      <trkpt lat="50.63398" lon="5.38123">
        <ele>168</ele>
        <time>2019-03-26T04:33:53Z</time>
      </trkpt>
      <trkpt lat="50.63396" lon="5.38087">
        <ele>168</ele>
        <time>2019-03-26T04:34:53Z</time>
      </trkpt>
      <trkpt lat="50.6339" lon="5.38014">
        <ele>170</ele>
        <time>2019-03-26T04:35:53Z</time>
      </trkpt>
      <trkpt lat="50.63375" lon="5.37807">
        <ele>170</ele>
        <time>2019-03-26T04:36:53Z</time>
      </trkpt>
      <trkpt lat="50.63368" lon="5.37716">
        <ele>172</ele>
        <time>2019-03-26T04:37:53Z</time>
      </trkpt>
      <trkpt lat="50.63362" lon="5.37618">
        <ele>174</ele>
        <time>2019-03-26T04:38:53Z</time>
      </trkpt>
      <trkpt lat="50.63358" lon="5.37563">
        <ele>175</ele>
        <time>2019-03-26T04:39:53Z</time>
      </trkpt>
      <trkpt lat="50.63346" lon="5.37427">
        <ele>176</ele>
        <time>2019-03-26T04:40:53Z</time>
      </trkpt>
      <trkpt lat="50.63339" lon="5.37353">
        <ele>177</ele>
        <time>2019-03-26T04:41:53Z</time>
      </trkpt>
      <trkpt lat="50.63331" lon="5.37238">
        <ele>177</ele>
        <time>2019-03-26T04:42:53Z</time>
      </trkpt>
      <trkpt lat="50.63325" lon="5.37181">
        <ele>177</ele>
        <time>2019-03-26T04:43:53Z</time>
      </trkpt>
      <trkpt lat="50.63298" lon="5.36834">
        <ele>175</ele>
        <time>2019-03-26T04:44:53Z</time>
      </trkpt>
      <trkpt lat="50.63295" lon="5.36802">
        <ele>176</ele>
        <time>2019-03-26T04:45:53Z</time>
      </trkpt>
      <trkpt lat="50.63294" lon="5.36737">
        <ele>177</ele>
        <time>2019-03-26T04:46:53Z</time>
      </trkpt>
      <trkpt lat="50.63293" lon="5.36668">
        <ele>178</ele>
        <time>2019-03-26T04:47:53Z</time>
      </trkpt>
      <trkpt lat="50.63295" lon="5.36633">
        <ele>178</ele>
        <time>2019-03-26T04:48:53Z</time>
      </trkpt>
      <trkpt lat="50.63295" lon="5.36553">
        <ele>178</ele>
        <time>2019-03-26T04:49:53Z</time>
      </trkpt>
      <trkpt lat="50.63294" lon="5.36473">
        <ele>179</ele>
        <time>2019-03-26T04:50:53Z</time>
      </trkpt>
      <trkpt lat="50.63295" lon="5.36424">
        <ele>179</ele>
        <time>2019-03-26T04:51:53Z</time>
      </trkpt>
      <trkpt lat="50.63295" lon="5.36358">
        <ele>179</ele>
        <time>2019-03-26T04:52:53Z</time>
      </trkpt>
      <trkpt lat="50.63293" lon="5.36336">
        <ele>179</ele>
        <time>2019-03-26T04:53:53Z</time>
      </trkpt>
      <trkpt lat="50.63291" lon="5.36306">
        <ele>179</ele>
        <time>2019-03-26T04:54:53Z</time>
      </trkpt>
      <trkpt lat="50.63284" lon="5.36258">
        <ele>179</ele>
        <time>2019-03-26T04:55:53Z</time>
      </trkpt>
      <trkpt lat="50.63278" lon="5.3621">
        <ele>179</ele>
        <time>2019-03-26T04:56:53Z</time>
      </trkpt>
      <trkpt lat="50.63275" lon="5.36178">
        <ele>179</ele>
        <time>2019-03-26T04:57:53Z</time>
      </trkpt>
      <trkpt lat="50.63267" lon="5.3611">
        <ele>178</ele>
        <time>2019-03-26T04:58:53Z</time>
      </trkpt>
      <trkpt lat="50.63262" lon="5.36065">
        <ele>178</ele>
        <time>2019-03-26T04:59:53Z</time>
      </trkpt>
      <trkpt lat="50.63265" lon="5.36004">
        <ele>178</ele>
        <time>2019-03-26T05:00:53Z</time>
      </trkpt>
      <trkpt lat="50.6327" lon="5.3595">
        <ele>178</ele>
        <time>2019-03-26T05:01:53Z</time>
      </trkpt>
      <trkpt lat="50.63276" lon="5.35892">
        <ele>177</ele>
        <time>2019-03-26T05:02:53Z</time>
      </trkpt>
      <trkpt lat="50.63287" lon="5.35801">
        <ele>176</ele>
        <time>2019-03-26T05:03:53Z</time>
      </trkpt>
      <trkpt lat="50.63292" lon="5.35741">
        <ele>175</ele>
        <time>2019-03-26T05:04:53Z</time>
      </trkpt>
      <trkpt lat="50.633" lon="5.35676">
        <ele>174</ele>
        <time>2019-03-26T05:05:53Z</time>
      </trkpt>
      <trkpt lat="50.63312" lon="5.35575">
        <ele>172</ele>
        <time>2019-03-26T05:06:53Z</time>
      </trkpt>
      <trkpt lat="50.63315" lon="5.35526">
        <ele>172</ele>
        <time>2019-03-26T05:07:53Z</time>
      </trkpt>
      <trkpt lat="50.63319" lon="5.35483">
        <ele>171</ele>
        <time>2019-03-26T05:08:53Z</time>
      </trkpt>
      <trkpt lat="50.63323" lon="5.354">
        <ele>170</ele>
        <time>2019-03-26T05:09:53Z</time>
      </trkpt>
      <trkpt lat="50.63327" lon="5.35252">
        <ele>171</ele>
        <time>2019-03-26T05:10:53Z</time>
      </trkpt>
      <trkpt lat="50.63329" lon="5.35174">
        <ele>173</ele>
        <time>2019-03-26T05:11:53Z</time>
      </trkpt>
      <trkpt lat="50.63337" lon="5.35064">
        <ele>174</ele>
        <time>2019-03-26T05:12:53Z</time>
      </trkpt>
      <trkpt lat="50.6334" lon="5.34998">
        <ele>174</ele>
        <time>2019-03-26T05:13:53Z</time>
      </trkpt>
      <trkpt lat="50.63345" lon="5.34937">
        <ele>175</ele>
        <time>2019-03-26T05:14:53Z</time>
      </trkpt>
      <trkpt lat="50.63346" lon="5.34914">
        <ele>175</ele>
        <time>2019-03-26T05:15:53Z</time>
      </trkpt>
      <trkpt lat="50.63354" lon="5.34846">
        <ele>177</ele>
        <time>2019-03-26T05:16:53Z</time>
      </trkpt>
      <trkpt lat="50.63367" lon="5.34763">
        <ele>176</ele>
        <time>2019-03-26T05:17:53Z</time>
      </trkpt>
      <trkpt lat="50.63388" lon="5.34648">
        <ele>173</ele>
        <time>2019-03-26T05:18:53Z</time>
      </trkpt>
      <trkpt lat="50.63396" lon="5.3461">
        <ele>172</ele>
        <time>2019-03-26T05:19:53Z</time>
      </trkpt>
      <trkpt lat="50.63441" lon="5.34349">
        <ele>173</ele>
        <time>2019-03-26T05:20:53Z</time>
      </trkpt>
      <trkpt lat="50.63459" lon="5.34249">
        <ele>175</ele>
        <time>2019-03-26T05:21:53Z</time>
      </trkpt>
      <trkpt lat="50.6347" lon="5.34179">
        <ele>176</ele>
        <time>2019-03-26T05:22:53Z</time>
      </trkpt>
      <trkpt lat="50.63479" lon="5.34127">
        <ele>175</ele>
        <time>2019-03-26T05:23:53Z</time>
      </trkpt>
      <trkpt lat="50.6348" lon="5.34105">
        <ele>175</ele>
        <time>2019-03-26T05:24:53Z</time>
      </trkpt>
      <trkpt lat="50.6348" lon="5.34029">
        <ele>175</ele>
        <time>2019-03-26T05:25:53Z</time>
      </trkpt>
      <trkpt lat="50.63483" lon="5.33727">
        <ele>173</ele>
        <time>2019-03-26T05:26:53Z</time>
      </trkpt>
      <trkpt lat="50.63487" lon="5.33663">
        <ele>172</ele>
        <time>2019-03-26T05:27:53Z</time>
      </trkpt>
      <trkpt lat="50.63492" lon="5.33607">
        <ele>171</ele>
        <time>2019-03-26T05:28:53Z</time>
      </trkpt>
      <trkpt lat="50.63499" lon="5.3356">
        <ele>171</ele>
        <time>2019-03-26T05:29:53Z</time>
      </trkpt>
      <trkpt lat="50.63518" lon="5.33464">
        <ele>170</ele>
        <time>2019-03-26T05:30:53Z</time>
      </trkpt>
      <trkpt lat="50.63525" lon="5.33407">
        <ele>170</ele>
        <time>2019-03-26T05:31:53Z</time>
      </trkpt>
      <trkpt lat="50.63527" lon="5.33389">
        <ele>170</ele>
        <time>2019-03-26T05:32:53Z</time>
      </trkpt>
      <trkpt lat="50.63526" lon="5.33342">
        <ele>170</ele>
        <time>2019-03-26T05:33:53Z</time>
      </trkpt>
      <trkpt lat="50.63525" lon="5.33312">
        <ele>169</ele>
        <time>2019-03-26T05:34:53Z</time>
      </trkpt>
      <trkpt lat="50.63517" lon="5.33253">
        <ele>169</ele>
        <time>2019-03-26T05:35:53Z</time>
      </trkpt>
      <trkpt lat="50.63513" lon="5.33201">
        <ele>168</ele>
        <time>2019-03-26T05:36:53Z</time>
      </trkpt>
      <trkpt lat="50.6351" lon="5.33177">
        <ele>167</ele>
        <time>2019-03-26T05:37:53Z</time>
      </trkpt>
      <trkpt lat="50.635" lon="5.33123">
        <ele>167</ele>
        <time>2019-03-26T05:38:53Z</time>
      </trkpt>
      <trkpt lat="50.63487" lon="5.33061">
        <ele>167</ele>
        <time>2019-03-26T05:39:53Z</time>
      </trkpt>
      <trkpt lat="50.63474" lon="5.33006">
        <ele>166</ele>
        <time>2019-03-26T05:40:53Z</time>
      </trkpt>
      <trkpt lat="50.63464" lon="5.32954">
        <ele>166</ele>
        <time>2019-03-26T05:41:53Z</time>
      </trkpt>
      <trkpt lat="50.63457" lon="5.32907">
        <ele>165</ele>
        <time>2019-03-26T05:42:53Z</time>
      </trkpt>
      <trkpt lat="50.63452" lon="5.3288">
        <ele>165</ele>
        <time>2019-03-26T05:43:53Z</time>
      </trkpt>
      <trkpt lat="50.63449" lon="5.32847">
        <ele>164</ele>
        <time>2019-03-26T05:44:53Z</time>
      </trkpt>
      <trkpt lat="50.63439" lon="5.32779">
        <ele>164</ele>
        <time>2019-03-26T05:45:53Z</time>
      </trkpt>
      <trkpt lat="50.63413" lon="5.32567">
        <ele>160</ele>
        <time>2019-03-26T05:46:53Z</time>
      </trkpt>
      <trkpt lat="50.63406" lon="5.32501">
        <ele>156</ele>
        <time>2019-03-26T05:47:53Z</time>
      </trkpt>
      <trkpt lat="50.63408" lon="5.32489">
        <ele>155</ele>
        <time>2019-03-26T05:48:53Z</time>
      </trkpt>
      <trkpt lat="50.63412" lon="5.32484">
        <ele>155</ele>
        <time>2019-03-26T05:49:53Z</time>
      </trkpt>
      <trkpt lat="50.63416" lon="5.32479">
        <ele>155</ele>
        <time>2019-03-26T05:50:53Z</time>
      </trkpt>
      <trkpt lat="50.63429" lon="5.32473">
        <ele>155</ele>
        <time>2019-03-26T05:51:53Z</time>
      </trkpt>
      <trkpt lat="50.63435" lon="5.32471">
        <ele>155</ele>
        <time>2019-03-26T05:52:53Z</time>
      </trkpt>
      <trkpt lat="50.63442" lon="5.32467">
        <ele>155</ele>
        <time>2019-03-26T05:53:53Z</time>
      </trkpt>
      <trkpt lat="50.63448" lon="5.32461">
        <ele>154</ele>
        <time>2019-03-26T05:54:53Z</time>
      </trkpt>
      <trkpt lat="50.63463" lon="5.32429">
        <ele>153</ele>
        <time>2019-03-26T05:55:53Z</time>
      </trkpt>
      <trkpt lat="50.6347" lon="5.3241">
        <ele>152</ele>
        <time>2019-03-26T05:56:53Z</time>
      </trkpt>
      <trkpt lat="50.63483" lon="5.32375">
        <ele>150</ele>
        <time>2019-03-26T05:57:53Z</time>
      </trkpt>
      <trkpt lat="50.63511" lon="5.32289">
        <ele>146</ele>
        <time>2019-03-26T05:58:53Z</time>
      </trkpt>
      <trkpt lat="50.63523" lon="5.32251">
        <ele>146</ele>
        <time>2019-03-26T05:59:53Z</time>
      </trkpt>
      <trkpt lat="50.63532" lon="5.32228">
        <ele>146</ele>
        <time>2019-03-26T06:00:53Z</time>
      </trkpt>
      <trkpt lat="50.63535" lon="5.32218">
        <ele>146</ele>
        <time>2019-03-26T06:01:53Z</time>
      </trkpt>
      <trkpt lat="50.63547" lon="5.32215">
        <ele>146</ele>
        <time>2019-03-26T06:02:53Z</time>
      </trkpt>
      <trkpt lat="50.63577" lon="5.32213">
        <ele>145</ele>
        <time>2019-03-26T06:03:53Z</time>
      </trkpt>
      <trkpt lat="50.63596" lon="5.32212">
        <ele>145</ele>
        <time>2019-03-26T06:04:53Z</time>
      </trkpt>
      <trkpt lat="50.63613" lon="5.32208">
        <ele>144</ele>
        <time>2019-03-26T06:05:53Z</time>
      </trkpt>
      <trkpt lat="50.63621" lon="5.32208">
        <ele>144</ele>
        <time>2019-03-26T06:06:53Z</time>
      </trkpt>
      <trkpt lat="50.63638" lon="5.32201">
        <ele>144</ele>
        <time>2019-03-26T06:07:53Z</time>
      </trkpt>
      <trkpt lat="50.63656" lon="5.32191">
        <ele>144</ele>
        <time>2019-03-26T06:08:53Z</time>
      </trkpt>
      <trkpt lat="50.63675" lon="5.32174">
        <ele>143</ele>
        <time>2019-03-26T06:09:53Z</time>
      </trkpt>
      <trkpt lat="50.63713" lon="5.32131">
        <ele>144</ele>
        <time>2019-03-26T06:10:53Z</time>
      </trkpt>
      <trkpt lat="50.63731" lon="5.32109">
        <ele>144</ele>
        <time>2019-03-26T06:11:53Z</time>
      </trkpt>
      <trkpt lat="50.63777" lon="5.32057">
        <ele>146</ele>
        <time>2019-03-26T06:12:53Z</time>
      </trkpt>
      <trkpt lat="50.63795" lon="5.32034">
        <ele>146</ele>
        <time>2019-03-26T06:13:53Z</time>
      </trkpt>
      <trkpt lat="50.63813" lon="5.32017">
        <ele>146</ele>
        <time>2019-03-26T06:14:53Z</time>
      </trkpt>
      <trkpt lat="50.6383" lon="5.32007">
        <ele>146</ele>
        <time>2019-03-26T06:15:53Z</time>
      </trkpt>
      <trkpt lat="50.63846" lon="5.31997">
        <ele>146</ele>
        <time>2019-03-26T06:16:53Z</time>
      </trkpt>
      <trkpt lat="50.63855" lon="5.3198">
        <ele>146</ele>
        <time>2019-03-26T06:17:53Z</time>
      </trkpt>
      <trkpt lat="50.63861" lon="5.31967">
        <ele>146</ele>
        <time>2019-03-26T06:18:53Z</time>
      </trkpt>
      <trkpt lat="50.63908" lon="5.31885">
        <ele>148</ele>
        <time>2019-03-26T06:19:53Z</time>
      </trkpt>
      <trkpt lat="50.63932" lon="5.31842">
        <ele>149</ele>
        <time>2019-03-26T06:20:53Z</time>
      </trkpt>
      <trkpt lat="50.63956" lon="5.31802">
        <ele>148</ele>
        <time>2019-03-26T06:21:53Z</time>
      </trkpt>
      <trkpt lat="50.63992" lon="5.31736">
        <ele>147</ele>
        <time>2019-03-26T06:22:53Z</time>
      </trkpt>
      <trkpt lat="50.63996" lon="5.31716">
        <ele>147</ele>
        <time>2019-03-26T06:23:53Z</time>
      </trkpt>
      <trkpt lat="50.63999" lon="5.31674">
        <ele>147</ele>
        <time>2019-03-26T06:24:53Z</time>
      </trkpt>
      <trkpt lat="50.64" lon="5.31593">
        <ele>149</ele>
        <time>2019-03-26T06:25:53Z</time>
      </trkpt>
      <trkpt lat="50.64001" lon="5.3155">
        <ele>149</ele>
        <time>2019-03-26T06:26:53Z</time>
      </trkpt>
      <trkpt lat="50.64005" lon="5.3151">
        <ele>150</ele>
        <time>2019-03-26T06:27:53Z</time>
      </trkpt>
      <trkpt lat="50.6401" lon="5.31479">
        <ele>150</ele>
        <time>2019-03-26T06:28:53Z</time>
      </trkpt>
      <trkpt lat="50.64016" lon="5.31453">
        <ele>151</ele>
        <time>2019-03-26T06:29:53Z</time>
      </trkpt>
      <trkpt lat="50.64033" lon="5.31369">
        <ele>153</ele>
        <time>2019-03-26T06:30:53Z</time>
      </trkpt>
      <trkpt lat="50.64041" lon="5.31329">
        <ele>155</ele>
        <time>2019-03-26T06:31:53Z</time>
      </trkpt>
      <trkpt lat="50.64045" lon="5.31316">
        <ele>155</ele>
        <time>2019-03-26T06:32:53Z</time>
      </trkpt>
      <trkpt lat="50.64049" lon="5.31299">
        <ele>156</ele>
        <time>2019-03-26T06:33:53Z</time>
      </trkpt>
      <trkpt lat="50.64053" lon="5.31276">
        <ele>156</ele>
        <time>2019-03-26T06:34:53Z</time>
      </trkpt>
      <trkpt lat="50.6406" lon="5.31255">
        <ele>157</ele>
        <time>2019-03-26T06:35:53Z</time>
      </trkpt>
      <trkpt lat="50.64064" lon="5.31234">
        <ele>158</ele>
        <time>2019-03-26T06:36:53Z</time>
      </trkpt>
      <trkpt lat="50.64069" lon="5.31217">
        <ele>158</ele>
        <time>2019-03-26T06:37:53Z</time>
      </trkpt>
      <trkpt lat="50.64078" lon="5.31178">
        <ele>160</ele>
        <time>2019-03-26T06:38:53Z</time>
      </trkpt>
      <trkpt lat="50.64082" lon="5.31162">
        <ele>160</ele>
        <time>2019-03-26T06:39:53Z</time>
      </trkpt>
      <trkpt lat="50.64119" lon="5.31003">
        <ele>162</ele>
        <time>2019-03-26T06:40:53Z</time>
      </trkpt>
      <trkpt lat="50.64125" lon="5.30978">
        <ele>162</ele>
        <time>2019-03-26T06:41:53Z</time>
      </trkpt>
      <trkpt lat="50.64146" lon="5.30881">
        <ele>162</ele>
        <time>2019-03-26T06:42:53Z</time>
      </trkpt>
      <trkpt lat="50.64151" lon="5.30859">
        <ele>163</ele>
        <time>2019-03-26T06:43:53Z</time>
      </trkpt>
      <trkpt lat="50.64152" lon="5.30823">
        <ele>163</ele>
        <time>2019-03-26T06:44:53Z</time>
      </trkpt>
      <trkpt lat="50.64157" lon="5.30755">
        <ele>161</ele>
        <time>2019-03-26T06:45:53Z</time>
      </trkpt>
      <trkpt lat="50.64163" lon="5.30643">
        <ele>160</ele>
        <time>2019-03-26T06:46:53Z</time>
      </trkpt>
      <trkpt lat="50.64165" lon="5.30592">
        <ele>160</ele>
        <time>2019-03-26T06:47:53Z</time>
      </trkpt>
      <trkpt lat="50.64174" lon="5.30484">
        <ele>156</ele>
        <time>2019-03-26T06:48:53Z</time>
      </trkpt>
      <trkpt lat="50.64179" lon="5.30421">
        <ele>155</ele>
        <time>2019-03-26T06:49:53Z</time>
      </trkpt>
      <trkpt lat="50.64179" lon="5.30422">
        <ele>155</ele>
        <time>2019-03-26T06:50:53Z</time>
      </trkpt>
      <trkpt lat="50.64186" lon="5.30355">
        <ele>155</ele>
        <time>2019-03-26T06:51:53Z</time>
      </trkpt>
      <trkpt lat="50.64193" lon="5.30299">
        <ele>154</ele>
        <time>2019-03-26T06:52:53Z</time>
      </trkpt>
      <trkpt lat="50.64208" lon="5.30195">
        <ele>155</ele>
        <time>2019-03-26T06:53:53Z</time>
      </trkpt>
      <trkpt lat="50.64226" lon="5.30098">
        <ele>157</ele>
        <time>2019-03-26T06:54:53Z</time>
      </trkpt>
      <trkpt lat="50.64233" lon="5.30053">
        <ele>158</ele>
        <time>2019-03-26T06:55:53Z</time>
      </trkpt>
      <trkpt lat="50.64245" lon="5.29986">
        <ele>159</ele>
        <time>2019-03-26T06:56:53Z</time>
      </trkpt>
      <trkpt lat="50.64254" lon="5.29943">
        <ele>159</ele>
        <time>2019-03-26T06:57:53Z</time>
      </trkpt>
      <trkpt lat="50.64264" lon="5.2991">
        <ele>159</ele>
        <time>2019-03-26T06:58:53Z</time>
      </trkpt>
      <trkpt lat="50.64282" lon="5.29861">
        <ele>158</ele>
        <time>2019-03-26T06:59:53Z</time>
      </trkpt>
      <trkpt lat="50.64316" lon="5.29778">
        <ele>158</ele>
        <time>2019-03-26T07:00:53Z</time>
      </trkpt>
      <trkpt lat="50.64365" lon="5.29653">
        <ele>158</ele>
        <time>2019-03-26T07:01:53Z</time>
      </trkpt>
      <trkpt lat="50.64386" lon="5.29602">
        <ele>158</ele>
        <time>2019-03-26T07:02:53Z</time>
      </trkpt>
      <trkpt lat="50.64415" lon="5.29528">
        <ele>160</ele>
        <time>2019-03-26T07:03:53Z</time>
      </trkpt>
      <trkpt lat="50.64431" lon="5.29488">
        <ele>161</ele>
        <time>2019-03-26T07:04:53Z</time>
      </trkpt>
      <trkpt lat="50.64477" lon="5.29367">
        <ele>160</ele>
        <time>2019-03-26T07:05:53Z</time>
      </trkpt>
      <trkpt lat="50.6451" lon="5.29287">
        <ele>158</ele>
        <time>2019-03-26T07:06:53Z</time>
      </trkpt>
      <trkpt lat="50.64537" lon="5.2921">
        <ele>159</ele>
        <time>2019-03-26T07:07:53Z</time>
      </trkpt>
      <trkpt lat="50.64545" lon="5.29191">
        <ele>159</ele>
        <time>2019-03-26T07:08:53Z</time>
      </trkpt>
      <trkpt lat="50.64561" lon="5.29144">
        <ele>159</ele>
        <time>2019-03-26T07:09:53Z</time>
      </trkpt>
      <trkpt lat="50.64573" lon="5.29106">
        <ele>159</ele>
        <time>2019-03-26T07:10:53Z</time>
      </trkpt>
      <trkpt lat="50.6458" lon="5.29059">
        <ele>159</ele>
        <time>2019-03-26T07:11:53Z</time>
      </trkpt>
      <trkpt lat="50.64583" lon="5.29015">
        <ele>158</ele>
        <time>2019-03-26T07:12:53Z</time>
      </trkpt>
      <trkpt lat="50.64599" lon="5.28655">
        <ele>152</ele>
        <time>2019-03-26T07:13:53Z</time>
      </trkpt>
      <trkpt lat="50.64604" lon="5.28565">
        <ele>150</ele>
        <time>2019-03-26T07:14:53Z</time>
      </trkpt>
      <trkpt lat="50.64604" lon="5.28522">
        <ele>149</ele>
        <time>2019-03-26T07:15:53Z</time>
      </trkpt>
      <trkpt lat="50.64599" lon="5.28473">
        <ele>149</ele>
        <time>2019-03-26T07:16:53Z</time>
      </trkpt>
      <trkpt lat="50.64596" lon="5.28437">
        <ele>149</ele>
        <time>2019-03-26T07:17:53Z</time>
      </trkpt>
      <trkpt lat="50.64539" lon="5.28216">
        <ele>152</ele>
        <time>2019-03-26T07:18:53Z</time>
      </trkpt>
      <trkpt lat="50.64521" lon="5.28144">
        <ele>153</ele>
        <time>2019-03-26T07:19:53Z</time>
      </trkpt>
      <trkpt lat="50.64492" lon="5.28041">
        <ele>155</ele>
        <time>2019-03-26T07:20:53Z</time>
      </trkpt>
      <trkpt lat="50.6447" lon="5.27954">
        <ele>155</ele>
        <time>2019-03-26T07:21:53Z</time>
      </trkpt>
      <trkpt lat="50.64446" lon="5.27868">
        <ele>155</ele>
        <time>2019-03-26T07:22:53Z</time>
      </trkpt>
      <trkpt lat="50.64428" lon="5.27808">
        <ele>155</ele>
        <time>2019-03-26T07:23:53Z</time>
      </trkpt>
      <trkpt lat="50.64394" lon="5.27725">
        <ele>155</ele>
        <time>2019-03-26T07:24:53Z</time>
      </trkpt>
      <trkpt lat="50.64364" lon="5.27657">
        <ele>155</ele>
        <time>2019-03-26T07:25:53Z</time>
      </trkpt>
      <trkpt lat="50.6435" lon="5.27621">
        <ele>156</ele>
        <time>2019-03-26T07:26:53Z</time>
      </trkpt>
      <trkpt lat="50.64321" lon="5.27551">
        <ele>156</ele>
        <time>2019-03-26T07:27:53Z</time>
      </trkpt>
      <trkpt lat="50.64303" lon="5.27511">
        <ele>156</ele>
        <time>2019-03-26T07:28:53Z</time>
      </trkpt>
      <trkpt lat="50.64269" lon="5.27429">
        <ele>158</ele>
        <time>2019-03-26T07:29:53Z</time>
      </trkpt>
      <trkpt lat="50.64252" lon="5.27388">
        <ele>158</ele>
        <time>2019-03-26T07:30:53Z</time>
      </trkpt>
      <trkpt lat="50.64229" lon="5.27337">
        <ele>159</ele>
        <time>2019-03-26T07:31:53Z</time>
      </trkpt>
      <trkpt lat="50.64208" lon="5.27276">
        <ele>160</ele>
        <time>2019-03-26T07:32:53Z</time>
      </trkpt>
      <trkpt lat="50.64194" lon="5.27209">
        <ele>160</ele>
        <time>2019-03-26T07:33:53Z</time>
      </trkpt>
      <trkpt lat="50.64181" lon="5.2713">
        <ele>160</ele>
        <time>2019-03-26T07:34:53Z</time>
      </trkpt>
      <trkpt lat="50.64177" lon="5.2711">
        <ele>160</ele>
        <time>2019-03-26T07:35:53Z</time>
      </trkpt>
      <trkpt lat="50.64168" lon="5.27065">
        <ele>160</ele>
        <time>2019-03-26T07:36:53Z</time>
      </trkpt>
      <trkpt lat="50.64161" lon="5.27043">
        <ele>160</ele>
        <time>2019-03-26T07:37:53Z</time>
      </trkpt>
      <trkpt lat="50.64151" lon="5.26992">
        <ele>159</ele>
        <time>2019-03-26T07:38:53Z</time>
      </trkpt>
      <trkpt lat="50.64144" lon="5.26963">
        <ele>159</ele>
        <time>2019-03-26T07:39:53Z</time>
      </trkpt>
      <trkpt lat="50.64141" lon="5.26939">
        <ele>158</ele>
        <time>2019-03-26T07:40:53Z</time>
      </trkpt>
      <trkpt lat="50.64141" lon="5.26922">
        <ele>158</ele>
        <time>2019-03-26T07:41:53Z</time>
      </trkpt>
      <trkpt lat="50.64144" lon="5.26918">
        <ele>158</ele>
        <time>2019-03-26T07:42:53Z</time>
      </trkpt>
      <trkpt lat="50.64149" lon="5.26902">
        <ele>158</ele>
        <time>2019-03-26T07:43:53Z</time>
      </trkpt>
      <trkpt lat="50.64146" lon="5.26885">
        <ele>157</ele>
        <time>2019-03-26T07:44:53Z</time>
      </trkpt>
      <trkpt lat="50.64138" lon="5.26877">
        <ele>157</ele>
        <time>2019-03-26T07:45:53Z</time>
      </trkpt>
      <trkpt lat="50.64128" lon="5.26867">
        <ele>157</ele>
        <time>2019-03-26T07:46:53Z</time>
      </trkpt>
      <trkpt lat="50.64126" lon="5.26847">
        <ele>157</ele>
        <time>2019-03-26T07:47:53Z</time>
      </trkpt>
      <trkpt lat="50.64121" lon="5.26824">
        <ele>156</ele>
        <time>2019-03-26T07:48:53Z</time>
      </trkpt>
      <trkpt lat="50.64112" lon="5.26779">
        <ele>155</ele>
        <time>2019-03-26T07:49:53Z</time>
      </trkpt>
      <trkpt lat="50.64106" lon="5.26739">
        <ele>155</ele>
        <time>2019-03-26T07:50:53Z</time>
      </trkpt>
      <trkpt lat="50.64103" lon="5.26714">
        <ele>154</ele>
        <time>2019-03-26T07:51:53Z</time>
      </trkpt>
      <trkpt lat="50.64102" lon="5.26686">
        <ele>154</ele>
        <time>2019-03-26T07:52:53Z</time>
      </trkpt>
      <trkpt lat="50.64101" lon="5.26662">
        <ele>154</ele>
        <time>2019-03-26T07:53:53Z</time>
      </trkpt>
      <trkpt lat="50.64099" lon="5.26646">
        <ele>153</ele>
        <time>2019-03-26T07:54:53Z</time>
      </trkpt>
      <trkpt lat="50.64096" lon="5.26626">
        <ele>153</ele>
        <time>2019-03-26T07:55:53Z</time>
      </trkpt>
      <trkpt lat="50.64082" lon="5.26604">
        <ele>153</ele>
        <time>2019-03-26T07:56:53Z</time>
      </trkpt>
      <trkpt lat="50.64061" lon="5.26575">
        <ele>153</ele>
        <time>2019-03-26T07:57:53Z</time>
      </trkpt>
      <trkpt lat="50.64043" lon="5.26541">
        <ele>153</ele>
        <time>2019-03-26T07:58:53Z</time>
      </trkpt>
      <trkpt lat="50.64038" lon="5.26522">
        <ele>153</ele>
        <time>2019-03-26T07:59:53Z</time>
      </trkpt>
      <trkpt lat="50.6404" lon="5.26501">
        <ele>153</ele>
        <time>2019-03-26T08:00:53Z</time>
      </trkpt>
      <trkpt lat="50.64064" lon="5.2636">
        <ele>152</ele>
        <time>2019-03-26T08:01:53Z</time>
      </trkpt>
      <trkpt lat="50.64065" lon="5.26326">
        <ele>152</ele>
        <time>2019-03-26T08:02:53Z</time>
      </trkpt>
      <trkpt lat="50.64064" lon="5.26312">
        <ele>152</ele>
        <time>2019-03-26T08:03:53Z</time>
      </trkpt>
      <trkpt lat="50.6406" lon="5.26282">
        <ele>153</ele>
        <time>2019-03-26T08:04:53Z</time>
      </trkpt>
      <trkpt lat="50.64055" lon="5.26258">
        <ele>153</ele>
        <time>2019-03-26T08:05:53Z</time>
      </trkpt>
      <trkpt lat="50.6404" lon="5.2617">
        <ele>156</ele>
        <time>2019-03-26T08:06:53Z</time>
      </trkpt>
      <trkpt lat="50.64036" lon="5.26153">
        <ele>157</ele>
        <time>2019-03-26T08:07:53Z</time>
      </trkpt>
      <trkpt lat="50.64032" lon="5.26108">
        <ele>157</ele>
        <time>2019-03-26T08:08:53Z</time>
      </trkpt>
      <trkpt lat="50.64029" lon="5.26076">
        <ele>158</ele>
        <time>2019-03-26T08:09:53Z</time>
      </trkpt>
      <trkpt lat="50.64027" lon="5.26035">
        <ele>159</ele>
        <time>2019-03-26T08:10:53Z</time>
      </trkpt>
      <trkpt lat="50.64024" lon="5.25997">
        <ele>159</ele>
        <time>2019-03-26T08:11:53Z</time>
      </trkpt>
      <trkpt lat="50.64021" lon="5.25962">
        <ele>159</ele>
        <time>2019-03-26T08:12:53Z</time>
      </trkpt>
      <trkpt lat="50.64017" lon="5.25928">
        <ele>158</ele>
        <time>2019-03-26T08:13:53Z</time>
      </trkpt>
      <trkpt lat="50.64012" lon="5.25908">
        <ele>158</ele>
        <time>2019-03-26T08:14:53Z</time>
      </trkpt>
      <trkpt lat="50.63999" lon="5.25861">
        <ele>158</ele>
        <time>2019-03-26T08:15:53Z</time>
      </trkpt>
      <trkpt lat="50.63836" lon="5.2534">
        <ele>156</ele>
        <time>2019-03-26T08:16:53Z</time>
      </trkpt>
      <trkpt lat="50.63814" lon="5.25271">
        <ele>156</ele>
        <time>2019-03-26T08:17:53Z</time>
      </trkpt>
      <trkpt lat="50.63794" lon="5.25205">
        <ele>155</ele>
        <time>2019-03-26T08:18:53Z</time>
      </trkpt>
      <trkpt lat="50.63765" lon="5.25116">
        <ele>153</ele>
        <time>2019-03-26T08:19:53Z</time>
      </trkpt>
      <trkpt lat="50.63724" lon="5.24982">
        <ele>151</ele>
        <time>2019-03-26T08:20:53Z</time>
      </trkpt>
      <trkpt lat="50.63714" lon="5.24949">
        <ele>151</ele>
        <time>2019-03-26T08:21:53Z</time>
      </trkpt>
      <trkpt lat="50.63705" lon="5.24924">
        <ele>152</ele>
        <time>2019-03-26T08:22:53Z</time>
      </trkpt>
      <trkpt lat="50.63621" lon="5.24712">
        <ele>155</ele>
        <time>2019-03-26T08:23:53Z</time>
      </trkpt>
      <trkpt lat="50.6361" lon="5.24684">
        <ele>155</ele>
        <time>2019-03-26T08:24:53Z</time>
      </trkpt>
      <trkpt lat="50.63581" lon="5.24613">
        <ele>157</ele>
        <time>2019-03-26T08:25:53Z</time>
      </trkpt>
      <trkpt lat="50.63574" lon="5.24596">
        <ele>157</ele>
        <time>2019-03-26T08:26:53Z</time>
      </trkpt>
      <trkpt lat="50.63552" lon="5.24552">
        <ele>157</ele>
        <time>2019-03-26T08:27:53Z</time>
      </trkpt>
      <trkpt lat="50.63529" lon="5.24517">
        <ele>158</ele>
        <time>2019-03-26T08:28:53Z</time>
      </trkpt>
      <trkpt lat="50.63503" lon="5.24481">
        <ele>158</ele>
        <time>2019-03-26T08:29:53Z</time>
      </trkpt>
      <trkpt lat="50.63465" lon="5.24436">
        <ele>158</ele>
        <time>2019-03-26T08:30:53Z</time>
      </trkpt>
      <trkpt lat="50.63426" lon="5.24389">
        <ele>159</ele>
        <time>2019-03-26T08:31:53Z</time>
      </trkpt>
      <trkpt lat="50.63409" lon="5.24371">
        <ele>159</ele>
        <time>2019-03-26T08:32:53Z</time>
      </trkpt>
      <trkpt lat="50.63396" lon="5.24359">
        <ele>160</ele>
        <time>2019-03-26T08:33:53Z</time>
      </trkpt>
      <trkpt lat="50.63378" lon="5.24348">
        <ele>160</ele>
        <time>2019-03-26T08:34:53Z</time>
      </trkpt>
      <trkpt lat="50.63361" lon="5.24339">
        <ele>161</ele>
        <time>2019-03-26T08:35:53Z</time>
      </trkpt>
      <trkpt lat="50.63348" lon="5.24337">
        <ele>161</ele>
        <time>2019-03-26T08:36:53Z</time>
      </trkpt>
      <trkpt lat="50.63335" lon="5.24342">
        <ele>161</ele>
        <time>2019-03-26T08:37:53Z</time>
      </trkpt>
      <trkpt lat="50.63327" lon="5.24337">
        <ele>161</ele>
        <time>2019-03-26T08:38:53Z</time>
      </trkpt>
      <trkpt lat="50.63318" lon="5.2432">
        <ele>161</ele>
        <time>2019-03-26T08:39:53Z</time>
      </trkpt>
      <trkpt lat="50.633" lon="5.24281">
        <ele>161</ele>
        <time>2019-03-26T08:40:53Z</time>
      </trkpt>
      <trkpt lat="50.63292" lon="5.24254">
        <ele>161</ele>
        <time>2019-03-26T08:41:53Z</time>
      </trkpt>
      <trkpt lat="50.63291" lon="5.2424">
        <ele>162</ele>
        <time>2019-03-26T08:42:53Z</time>
      </trkpt>
      <trkpt lat="50.63293" lon="5.2423">
        <ele>161</ele>
        <time>2019-03-26T08:43:53Z</time>
      </trkpt>
      <trkpt lat="50.63301" lon="5.24212">
        <ele>161</ele>
        <time>2019-03-26T08:44:53Z</time>
      </trkpt>
      <trkpt lat="50.63309" lon="5.24199">
        <ele>161</ele>
        <time>2019-03-26T08:45:53Z</time>
      </trkpt>
      <trkpt lat="50.63336" lon="5.24161">
        <ele>161</ele>
        <time>2019-03-26T08:46:53Z</time>
      </trkpt>
      <trkpt lat="50.6334" lon="5.24153">
        <ele>161</ele>
        <time>2019-03-26T08:47:53Z</time>
      </trkpt>
      <trkpt lat="50.63359" lon="5.24094">
        <ele>161</ele>
        <time>2019-03-26T08:48:53Z</time>
      </trkpt>
      <trkpt lat="50.63386" lon="5.2401">
        <ele>160</ele>
        <time>2019-03-26T08:49:53Z</time>
      </trkpt>
      <trkpt lat="50.63406" lon="5.23944">
        <ele>157</ele>
        <time>2019-03-26T08:50:53Z</time>
      </trkpt>
      <trkpt lat="50.63427" lon="5.23874">
        <ele>155</ele>
        <time>2019-03-26T08:51:53Z</time>
      </trkpt>
      <trkpt lat="50.63444" lon="5.23821">
        <ele>154</ele>
        <time>2019-03-26T08:52:53Z</time>
      </trkpt>
      <trkpt lat="50.63471" lon="5.2374">
        <ele>155</ele>
        <time>2019-03-26T08:53:53Z</time>
      </trkpt>
      <trkpt lat="50.63517" lon="5.23588">
        <ele>160</ele>
        <time>2019-03-26T08:54:53Z</time>
      </trkpt>
      <trkpt lat="50.63533" lon="5.23537">
        <ele>160</ele>
        <time>2019-03-26T08:55:53Z</time>
      </trkpt>
      <trkpt lat="50.63556" lon="5.23458">
        <ele>160</ele>
        <time>2019-03-26T08:56:53Z</time>
      </trkpt>
      <trkpt lat="50.63569" lon="5.23422">
        <ele>160</ele>
        <time>2019-03-26T08:57:53Z</time>
      </trkpt>
      <trkpt lat="50.63582" lon="5.23393">
        <ele>159</ele>
        <time>2019-03-26T08:58:53Z</time>
      </trkpt>
      <trkpt lat="50.63627" lon="5.23302">
        <ele>157</ele>
        <time>2019-03-26T08:59:53Z</time>
      </trkpt>
      <trkpt lat="50.6364" lon="5.23275">
        <ele>155</ele>
        <time>2019-03-26T09:00:53Z</time>
      </trkpt>
      <trkpt lat="50.63662" lon="5.23226">
        <ele>153</ele>
        <time>2019-03-26T09:01:53Z</time>
      </trkpt>
      <trkpt lat="50.63674" lon="5.23198">
        <ele>153</ele>
        <time>2019-03-26T09:02:53Z</time>
      </trkpt>
      <trkpt lat="50.63687" lon="5.23174">
        <ele>153</ele>
        <time>2019-03-26T09:03:53Z</time>
      </trkpt>
      <trkpt lat="50.63692" lon="5.23159">
        <ele>153</ele>
        <time>2019-03-26T09:04:53Z</time>
      </trkpt>
      <trkpt lat="50.63684" lon="5.23141">
        <ele>154</ele>
        <time>2019-03-26T09:05:53Z</time>
      </trkpt>
      <trkpt lat="50.63664" lon="5.23099">
        <ele>155</ele>
        <time>2019-03-26T09:06:53Z</time>
      </trkpt>
      <trkpt lat="50.6363" lon="5.2303">
        <ele>159</ele>
        <time>2019-03-26T09:07:53Z</time>
      </trkpt>
      <trkpt lat="50.63611" lon="5.22991">
        <ele>160</ele>
        <time>2019-03-26T09:08:53Z</time>
      </trkpt>
      <trkpt lat="50.63595" lon="5.22964">
        <ele>160</ele>
        <time>2019-03-26T09:09:53Z</time>
      </trkpt>
      <trkpt lat="50.63571" lon="5.22916">
        <ele>159</ele>
        <time>2019-03-26T09:10:53Z</time>
      </trkpt>
      <trkpt lat="50.63566" lon="5.22895">
        <ele>160</ele>
        <time>2019-03-26T09:11:53Z</time>
      </trkpt>
      <trkpt lat="50.63572" lon="5.22879">
        <ele>160</ele>
        <time>2019-03-26T09:12:53Z</time>
      </trkpt>
      <trkpt lat="50.63594" lon="5.2286">
        <ele>160</ele>
        <time>2019-03-26T09:13:53Z</time>
      </trkpt>
      <trkpt lat="50.63629" lon="5.22832">
        <ele>160</ele>
        <time>2019-03-26T09:14:53Z</time>
      </trkpt>
      <trkpt lat="50.63668" lon="5.22799">
        <ele>160</ele>
        <time>2019-03-26T09:15:53Z</time>
      </trkpt>
      <trkpt lat="50.63715" lon="5.22763">
        <ele>161</ele>
        <time>2019-03-26T09:16:53Z</time>
      </trkpt>
      <trkpt lat="50.6374" lon="5.22745">
        <ele>161</ele>
        <time>2019-03-26T09:17:53Z</time>
      </trkpt>
      <trkpt lat="50.63772" lon="5.22721">
        <ele>161</ele>
        <time>2019-03-26T09:18:53Z</time>
      </trkpt>
      <trkpt lat="50.6379" lon="5.22704">
        <ele>162</ele>
        <time>2019-03-26T09:19:53Z</time>
      </trkpt>
      <trkpt lat="50.63797" lon="5.22687">
        <ele>162</ele>
        <time>2019-03-26T09:20:53Z</time>
      </trkpt>
      <trkpt lat="50.63801" lon="5.22665">
        <ele>162</ele>
        <time>2019-03-26T09:21:53Z</time>
      </trkpt>
      <trkpt lat="50.6382" lon="5.22518">
        <ele>158</ele>
        <time>2019-03-26T09:22:53Z</time>
      </trkpt>
      <trkpt lat="50.63822" lon="5.22497">
        <ele>157</ele>
        <time>2019-03-26T09:23:53Z</time>
      </trkpt>
      <trkpt lat="50.63815" lon="5.22466">
        <ele>157</ele>
        <time>2019-03-26T09:24:53Z</time>
      </trkpt>
      <trkpt lat="50.63784" lon="5.2236">
        <ele>156</ele>
        <time>2019-03-26T09:25:53Z</time>
      </trkpt>
      <trkpt lat="50.63778" lon="5.22333">
        <ele>155</ele>
        <time>2019-03-26T09:26:53Z</time>
      </trkpt>
      <trkpt lat="50.63788" lon="5.22321">
        <ele>155</ele>
        <time>2019-03-26T09:27:53Z</time>
      </trkpt>
      <trkpt lat="50.6381" lon="5.22289">
        <ele>154</ele>
        <time>2019-03-26T09:28:53Z</time>
      </trkpt>
      <trkpt lat="50.63829" lon="5.22257">
        <ele>153</ele>
        <time>2019-03-26T09:29:53Z</time>
      </trkpt>
      <trkpt lat="50.63848" lon="5.22221">
        <ele>153</ele>
        <time>2019-03-26T09:30:53Z</time>
      </trkpt>
      <trkpt lat="50.63877" lon="5.22168">
        <ele>153</ele>
        <time>2019-03-26T09:31:53Z</time>
      </trkpt>
      <trkpt lat="50.6391" lon="5.22102">
        <ele>153</ele>
        <time>2019-03-26T09:32:53Z</time>
      </trkpt>
      <trkpt lat="50.63945" lon="5.22036">
        <ele>154</ele>
        <time>2019-03-26T09:33:53Z</time>
      </trkpt>
      <trkpt lat="50.63959" lon="5.22003">
        <ele>154</ele>
        <time>2019-03-26T09:34:53Z</time>
      </trkpt>
      <trkpt lat="50.63975" lon="5.21946">
        <ele>155</ele>
        <time>2019-03-26T09:35:53Z</time>
      </trkpt>
      <trkpt lat="50.6398" lon="5.21927">
        <ele>155</ele>
        <time>2019-03-26T09:36:53Z</time>
      </trkpt>
      <trkpt lat="50.63985" lon="5.21893">
        <ele>156</ele>
        <time>2019-03-26T09:37:53Z</time>
      </trkpt>
      <trkpt lat="50.63992" lon="5.21866">
        <ele>156</ele>
        <time>2019-03-26T09:38:53Z</time>
      </trkpt>
      <trkpt lat="50.64006" lon="5.21813">
        <ele>157</ele>
        <time>2019-03-26T09:39:53Z</time>
      </trkpt>
      <trkpt lat="50.64017" lon="5.2178">
        <ele>157</ele>
        <time>2019-03-26T09:40:53Z</time>
      </trkpt>
      <trkpt lat="50.64021" lon="5.21763">
        <ele>156</ele>
        <time>2019-03-26T09:41:53Z</time>
      </trkpt>
      <trkpt lat="50.64016" lon="5.21724">
        <ele>157</ele>
        <time>2019-03-26T09:42:53Z</time>
      </trkpt>
      <trkpt lat="50.64013" lon="5.21672">
        <ele>157</ele>
        <time>2019-03-26T09:43:53Z</time>
      </trkpt>
      <trkpt lat="50.64015" lon="5.2163">
        <ele>157</ele>
        <time>2019-03-26T09:44:53Z</time>
      </trkpt>
      <trkpt lat="50.64019" lon="5.21589">
        <ele>157</ele>
        <time>2019-03-26T09:45:53Z</time>
      </trkpt>
      <trkpt lat="50.64023" lon="5.21555">
        <ele>157</ele>
        <time>2019-03-26T09:46:53Z</time>
      </trkpt>
      <trkpt lat="50.64033" lon="5.21507">
        <ele>157</ele>
        <time>2019-03-26T09:47:53Z</time>
      </trkpt>
      <trkpt lat="50.64077" lon="5.21325">
        <ele>156</ele>
        <time>2019-03-26T09:48:53Z</time>
      </trkpt>
      <trkpt lat="50.64089" lon="5.21271">
        <ele>156</ele>
        <time>2019-03-26T09:49:53Z</time>
      </trkpt>
      <trkpt lat="50.64103" lon="5.21182">
        <ele>155</ele>
        <time>2019-03-26T09:50:53Z</time>
      </trkpt>
      <trkpt lat="50.64108" lon="5.21151">
        <ele>155</ele>
        <time>2019-03-26T09:51:53Z</time>
      </trkpt>
      <trkpt lat="50.64115" lon="5.21099">
        <ele>155</ele>
        <time>2019-03-26T09:52:53Z</time>
      </trkpt>
      <trkpt lat="50.64121" lon="5.21059">
        <ele>155</ele>
        <time>2019-03-26T09:53:53Z</time>
      </trkpt>
      <trkpt lat="50.64126" lon="5.2099">
        <ele>153</ele>
        <time>2019-03-26T09:54:53Z</time>
      </trkpt>
      <trkpt lat="50.64126" lon="5.20973">
        <ele>153</ele>
        <time>2019-03-26T09:55:53Z</time>
      </trkpt>
      <trkpt lat="50.64139" lon="5.20873">
        <ele>152</ele>
        <time>2019-03-26T09:56:53Z</time>
      </trkpt>
      <trkpt lat="50.64143" lon="5.20847">
        <ele>151</ele>
        <time>2019-03-26T09:57:53Z</time>
      </trkpt>
      <trkpt lat="50.64166" lon="5.20638">
        <ele>149</ele>
        <time>2019-03-26T09:58:53Z</time>
      </trkpt>
      <trkpt lat="50.64172" lon="5.20573">
        <ele>148</ele>
        <time>2019-03-26T09:59:53Z</time>
      </trkpt>
      <trkpt lat="50.64174" lon="5.20542">
        <ele>148</ele>
        <time>2019-03-26T10:00:53Z</time>
      </trkpt>
      <trkpt lat="50.64177" lon="5.20492">
        <ele>148</ele>
        <time>2019-03-26T10:01:53Z</time>
      </trkpt>
      <trkpt lat="50.64176" lon="5.20468">
        <ele>148</ele>
        <time>2019-03-26T10:02:53Z</time>
      </trkpt>
      <trkpt lat="50.64174" lon="5.20453">
        <ele>149</ele>
        <time>2019-03-26T10:03:53Z</time>
      </trkpt>
      <trkpt lat="50.64174" lon="5.20438">
        <ele>149</ele>
        <time>2019-03-26T10:04:53Z</time>
      </trkpt>
      <trkpt lat="50.64176" lon="5.20412">
        <ele>149</ele>
        <time>2019-03-26T10:05:53Z</time>
      </trkpt>
      <trkpt lat="50.64181" lon="5.20362">
        <ele>149</ele>
        <time>2019-03-26T10:06:53Z</time>
      </trkpt>
      <trkpt lat="50.64193" lon="5.20255">
        <ele>150</ele>
        <time>2019-03-26T10:07:53Z</time>
      </trkpt>
      <trkpt lat="50.64202" lon="5.20177">
        <ele>152</ele>
        <time>2019-03-26T10:08:53Z</time>
      </trkpt>
      <trkpt lat="50.64206" lon="5.20126">
        <ele>151</ele>
        <time>2019-03-26T10:09:53Z</time>
      </trkpt>
      <trkpt lat="50.6421" lon="5.20084">
        <ele>150</ele>
        <time>2019-03-26T10:10:53Z</time>
      </trkpt>
      <trkpt lat="50.64209" lon="5.20064">
        <ele>150</ele>
        <time>2019-03-26T10:11:53Z</time>
      </trkpt>
      <trkpt lat="50.64209" lon="5.20026">
        <ele>150</ele>
        <time>2019-03-26T10:12:53Z</time>
      </trkpt>
      <trkpt lat="50.64207" lon="5.19949">
        <ele>150</ele>
        <time>2019-03-26T10:13:53Z</time>
      </trkpt>
      <trkpt lat="50.64207" lon="5.1991">
        <ele>150</ele>
        <time>2019-03-26T10:14:53Z</time>
      </trkpt>
      <trkpt lat="50.64205" lon="5.19833">
        <ele>150</ele>
        <time>2019-03-26T10:15:53Z</time>
      </trkpt>
      <trkpt lat="50.64205" lon="5.1979">
        <ele>150</ele>
        <time>2019-03-26T10:16:53Z</time>
      </trkpt>
      <trkpt lat="50.64205" lon="5.19712">
        <ele>149</ele>
        <time>2019-03-26T10:17:53Z</time>
      </trkpt>
      <trkpt lat="50.64211" lon="5.19668">
        <ele>149</ele>
        <time>2019-03-26T10:18:53Z</time>
      </trkpt>
      <trkpt lat="50.64218" lon="5.19629">
        <ele>149</ele>
        <time>2019-03-26T10:19:53Z</time>
      </trkpt>
      <trkpt lat="50.64228" lon="5.19563">
        <ele>149</ele>
        <time>2019-03-26T10:20:53Z</time>
      </trkpt>
      <trkpt lat="50.6424" lon="5.19495">
        <ele>149</ele>
        <time>2019-03-26T10:21:53Z</time>
      </trkpt>
      <trkpt lat="50.6425" lon="5.19428">
        <ele>146</ele>
        <time>2019-03-26T10:22:53Z</time>
      </trkpt>
      <trkpt lat="50.64255" lon="5.19397">
        <ele>145</ele>
        <time>2019-03-26T10:23:53Z</time>
      </trkpt>
      <trkpt lat="50.64256" lon="5.19374">
        <ele>145</ele>
        <time>2019-03-26T10:24:53Z</time>
      </trkpt>
      <trkpt lat="50.6426" lon="5.19315">
        <ele>144</ele>
        <time>2019-03-26T10:25:53Z</time>
      </trkpt>
      <trkpt lat="50.64259" lon="5.19294">
        <ele>144</ele>
        <time>2019-03-26T10:26:53Z</time>
      </trkpt>
      <trkpt lat="50.64256" lon="5.1925">
        <ele>143</ele>
        <time>2019-03-26T10:27:53Z</time>
      </trkpt>
      <trkpt lat="50.6425" lon="5.19205">
        <ele>142</ele>
        <time>2019-03-26T10:28:53Z</time>
      </trkpt>
      <trkpt lat="50.64244" lon="5.19169">
        <ele>142</ele>
        <time>2019-03-26T10:29:53Z</time>
      </trkpt>
      <trkpt lat="50.64235" lon="5.19124">
        <ele>141</ele>
        <time>2019-03-26T10:30:53Z</time>
      </trkpt>
      <trkpt lat="50.64222" lon="5.19056">
        <ele>139</ele>
        <time>2019-03-26T10:31:53Z</time>
      </trkpt>
      <trkpt lat="50.64185" lon="5.18856">
        <ele>140</ele>
        <time>2019-03-26T10:32:53Z</time>
      </trkpt>
      <trkpt lat="50.64175" lon="5.18802">
        <ele>140</ele>
        <time>2019-03-26T10:33:53Z</time>
      </trkpt>
      <trkpt lat="50.64169" lon="5.18771">
        <ele>140</ele>
        <time>2019-03-26T10:34:53Z</time>
      </trkpt>
      <trkpt lat="50.64163" lon="5.18743">
        <ele>140</ele>
        <time>2019-03-26T10:35:53Z</time>
      </trkpt>
      <trkpt lat="50.64152" lon="5.18681">
        <ele>139</ele>
        <time>2019-03-26T10:36:53Z</time>
      </trkpt>
      <trkpt lat="50.64116" lon="5.18492">
        <ele>140</ele>
        <time>2019-03-26T10:37:53Z</time>
      </trkpt>
      <trkpt lat="50.64107" lon="5.18449">
        <ele>141</ele>
        <time>2019-03-26T10:38:53Z</time>
      </trkpt>
      <trkpt lat="50.64104" lon="5.18421">
        <ele>142</ele>
        <time>2019-03-26T10:39:53Z</time>
      </trkpt>
      <trkpt lat="50.641" lon="5.18395">
        <ele>142</ele>
        <time>2019-03-26T10:40:53Z</time>
      </trkpt>
      <trkpt lat="50.64091" lon="5.18316">
        <ele>144</ele>
        <time>2019-03-26T10:41:53Z</time>
      </trkpt>
      <trkpt lat="50.6408" lon="5.18207">
        <ele>147</ele>
        <time>2019-03-26T10:42:53Z</time>
      </trkpt>
      <trkpt lat="50.64074" lon="5.18151">
        <ele>149</ele>
        <time>2019-03-26T10:43:53Z</time>
      </trkpt>
      <trkpt lat="50.6406" lon="5.18032">
        <ele>150</ele>
        <time>2019-03-26T10:44:53Z</time>
      </trkpt>
      <trkpt lat="50.64059" lon="5.17997">
        <ele>150</ele>
        <time>2019-03-26T10:45:53Z</time>
      </trkpt>
      <trkpt lat="50.64055" lon="5.17985">
        <ele>150</ele>
        <time>2019-03-26T10:46:53Z</time>
      </trkpt>
      <trkpt lat="50.64035" lon="5.17945">
        <ele>149</ele>
        <time>2019-03-26T10:47:53Z</time>
      </trkpt>
      <trkpt lat="50.64012" lon="5.17897">
        <ele>148</ele>
        <time>2019-03-26T10:48:53Z</time>
      </trkpt>
      <trkpt lat="50.63986" lon="5.17851">
        <ele>149</ele>
        <time>2019-03-26T10:49:53Z</time>
      </trkpt>
      <trkpt lat="50.63969" lon="5.17818">
        <ele>149</ele>
        <time>2019-03-26T10:50:53Z</time>
      </trkpt>
      <trkpt lat="50.6396" lon="5.17795">
        <ele>150</ele>
        <time>2019-03-26T10:51:53Z</time>
      </trkpt>
      <trkpt lat="50.63955" lon="5.17775">
        <ele>150</ele>
        <time>2019-03-26T10:52:53Z</time>
      </trkpt>
      <trkpt lat="50.63948" lon="5.17753">
        <ele>150</ele>
        <time>2019-03-26T10:53:53Z</time>
      </trkpt>
      <trkpt lat="50.6394" lon="5.1772">
        <ele>151</ele>
        <time>2019-03-26T10:54:53Z</time>
      </trkpt>
      <trkpt lat="50.63936" lon="5.17697">
        <ele>151</ele>
        <time>2019-03-26T10:55:53Z</time>
      </trkpt>
      <trkpt lat="50.63928" lon="5.17623">
        <ele>151</ele>
        <time>2019-03-26T10:56:53Z</time>
      </trkpt>
      <trkpt lat="50.63925" lon="5.17607">
        <ele>151</ele>
        <time>2019-03-26T10:57:53Z</time>
      </trkpt>
      <trkpt lat="50.63918" lon="5.17587">
        <ele>152</ele>
        <time>2019-03-26T10:58:53Z</time>
      </trkpt>
      <trkpt lat="50.63902" lon="5.1755">
        <ele>152</ele>
        <time>2019-03-26T10:59:53Z</time>
      </trkpt>
      <trkpt lat="50.6389" lon="5.17517">
        <ele>152</ele>
        <time>2019-03-26T11:00:53Z</time>
      </trkpt>
      <trkpt lat="50.63907" lon="5.17462">
        <ele>151</ele>
        <time>2019-03-26T11:01:53Z</time>
      </trkpt>
      <trkpt lat="50.63914" lon="5.17436">
        <ele>150</ele>
        <time>2019-03-26T11:02:53Z</time>
      </trkpt>
      <trkpt lat="50.63922" lon="5.17414">
        <ele>150</ele>
        <time>2019-03-26T11:03:53Z</time>
      </trkpt>
      <trkpt lat="50.6393" lon="5.17397">
        <ele>149</ele>
        <time>2019-03-26T11:04:53Z</time>
      </trkpt>
      <trkpt lat="50.63949" lon="5.17369">
        <ele>148</ele>
        <time>2019-03-26T11:05:53Z</time>
      </trkpt>
      <trkpt lat="50.63964" lon="5.17349">
        <ele>147</ele>
        <time>2019-03-26T11:06:53Z</time>
      </trkpt>
      <trkpt lat="50.63977" lon="5.17335">
        <ele>147</ele>
        <time>2019-03-26T11:07:53Z</time>
      </trkpt>
      <trkpt lat="50.64011" lon="5.17304">
        <ele>146</ele>
        <time>2019-03-26T11:08:53Z</time>
      </trkpt>
      <trkpt lat="50.64029" lon="5.17288">
        <ele>146</ele>
        <time>2019-03-26T11:09:53Z</time>
      </trkpt>
      <trkpt lat="50.64069" lon="5.17258">
        <ele>147</ele>
        <time>2019-03-26T11:10:53Z</time>
      </trkpt>
      <trkpt lat="50.6411" lon="5.17228">
        <ele>147</ele>
        <time>2019-03-26T11:11:53Z</time>
      </trkpt>
      <trkpt lat="50.64143" lon="5.17201">
        <ele>146</ele>
        <time>2019-03-26T11:12:53Z</time>
      </trkpt>
      <trkpt lat="50.64177" lon="5.17174">
        <ele>146</ele>
        <time>2019-03-26T11:13:53Z</time>
      </trkpt>
      <trkpt lat="50.64208" lon="5.17147">
        <ele>146</ele>
        <time>2019-03-26T11:14:53Z</time>
      </trkpt>
      <trkpt lat="50.64248" lon="5.17114">
        <ele>146</ele>
        <time>2019-03-26T11:15:53Z</time>
      </trkpt>
      <trkpt lat="50.6428" lon="5.17086">
        <ele>147</ele>
        <time>2019-03-26T11:16:53Z</time>
      </trkpt>
      <trkpt lat="50.64307" lon="5.17061">
        <ele>147</ele>
        <time>2019-03-26T11:17:53Z</time>
      </trkpt>
      <trkpt lat="50.64321" lon="5.17044">
        <ele>147</ele>
        <time>2019-03-26T11:18:53Z</time>
      </trkpt>
      <trkpt lat="50.64369" lon="5.16974">
        <ele>148</ele>
        <time>2019-03-26T11:19:53Z</time>
      </trkpt>
      <trkpt lat="50.64402" lon="5.16924">
        <ele>148</ele>
        <time>2019-03-26T11:20:53Z</time>
      </trkpt>
      <trkpt lat="50.64427" lon="5.16888">
        <ele>147</ele>
        <time>2019-03-26T11:21:53Z</time>
      </trkpt>
      <trkpt lat="50.64451" lon="5.16856">
        <ele>145</ele>
        <time>2019-03-26T11:22:53Z</time>
      </trkpt>
      <trkpt lat="50.64485" lon="5.16807">
        <ele>143</ele>
        <time>2019-03-26T11:23:53Z</time>
      </trkpt>
      <trkpt lat="50.64549" lon="5.16725">
        <ele>140</ele>
        <time>2019-03-26T11:24:53Z</time>
      </trkpt>
      <trkpt lat="50.64597" lon="5.1666">
        <ele>138</ele>
        <time>2019-03-26T11:25:53Z</time>
      </trkpt>
      <trkpt lat="50.64639" lon="5.16607">
        <ele>137</ele>
        <time>2019-03-26T11:26:53Z</time>
      </trkpt>
      <trkpt lat="50.64662" lon="5.16578">
        <ele>136</ele>
        <time>2019-03-26T11:27:53Z</time>
      </trkpt>
      <trkpt lat="50.64703" lon="5.16531">
        <ele>136</ele>
        <time>2019-03-26T11:28:53Z</time>
      </trkpt>
      <trkpt lat="50.64719" lon="5.16512">
        <ele>136</ele>
        <time>2019-03-26T11:29:53Z</time>
      </trkpt>
      <trkpt lat="50.64736" lon="5.16497">
        <ele>136</ele>
        <time>2019-03-26T11:30:53Z</time>
      </trkpt>
      <trkpt lat="50.64771" lon="5.16471">
        <ele>136</ele>
        <time>2019-03-26T11:31:53Z</time>
      </trkpt>
      <trkpt lat="50.64803" lon="5.1645">
        <ele>136</ele>
        <time>2019-03-26T11:32:53Z</time>
      </trkpt>
      <trkpt lat="50.64844" lon="5.16421">
        <ele>136</ele>
        <time>2019-03-26T11:33:53Z</time>
      </trkpt>
      <trkpt lat="50.64902" lon="5.16378">
        <ele>138</ele>
        <time>2019-03-26T11:34:53Z</time>
      </trkpt>
      <trkpt lat="50.64924" lon="5.16362">
        <ele>138</ele>
        <time>2019-03-26T11:35:53Z</time>
      </trkpt>
      <trkpt lat="50.64978" lon="5.1631">
        <ele>140</ele>
        <time>2019-03-26T11:36:53Z</time>
      </trkpt>
      <trkpt lat="50.65" lon="5.16289">
        <ele>141</ele>
        <time>2019-03-26T11:37:53Z</time>
      </trkpt>
      <trkpt lat="50.6502" lon="5.16269">
        <ele>142</ele>
        <time>2019-03-26T11:38:53Z</time>
      </trkpt>
      <trkpt lat="50.65035" lon="5.16249">
        <ele>142</ele>
        <time>2019-03-26T11:39:53Z</time>
      </trkpt>
      <trkpt lat="50.65082" lon="5.1619">
        <ele>141</ele>
        <time>2019-03-26T11:40:53Z</time>
      </trkpt>
      <trkpt lat="50.65106" lon="5.16157">
        <ele>140</ele>
        <time>2019-03-26T11:41:53Z</time>
      </trkpt>
      <trkpt lat="50.65129" lon="5.16133">
        <ele>140</ele>
        <time>2019-03-26T11:42:53Z</time>
      </trkpt>
      <trkpt lat="50.65152" lon="5.16112">
        <ele>139</ele>
        <time>2019-03-26T11:43:53Z</time>
      </trkpt>
      <trkpt lat="50.65182" lon="5.16086">
        <ele>139</ele>
        <time>2019-03-26T11:44:53Z</time>
      </trkpt>
      <trkpt lat="50.65248" lon="5.16035">
        <ele>138</ele>
        <time>2019-03-26T11:45:53Z</time>
      </trkpt>
      <trkpt lat="50.65278" lon="5.1601">
        <ele>138</ele>
        <time>2019-03-26T11:46:53Z</time>
      </trkpt>
      <trkpt lat="50.65321" lon="5.15969">
        <ele>137</ele>
        <time>2019-03-26T11:47:53Z</time>
      </trkpt>
      <trkpt lat="50.65361" lon="5.15928">
        <ele>137</ele>
        <time>2019-03-26T11:48:53Z</time>
      </trkpt>
      <trkpt lat="50.65429" lon="5.15861">
        <ele>134</ele>
        <time>2019-03-26T11:49:53Z</time>
      </trkpt>
      <trkpt lat="50.6547" lon="5.15821">
        <ele>132</ele>
        <time>2019-03-26T11:50:53Z</time>
      </trkpt>
      <trkpt lat="50.65592" lon="5.15677">
        <ele>128</ele>
        <time>2019-03-26T11:51:53Z</time>
      </trkpt>
      <trkpt lat="50.65616" lon="5.15647">
        <ele>128</ele>
        <time>2019-03-26T11:52:53Z</time>
      </trkpt>
      <trkpt lat="50.65649" lon="5.15609">
        <ele>129</ele>
        <time>2019-03-26T11:53:53Z</time>
      </trkpt>
      <trkpt lat="50.65671" lon="5.15587">
        <ele>129</ele>
        <time>2019-03-26T11:54:53Z</time>
      </trkpt>
      <trkpt lat="50.65693" lon="5.15569">
        <ele>130</ele>
        <time>2019-03-26T11:55:53Z</time>
      </trkpt>
      <trkpt lat="50.65733" lon="5.1555">
        <ele>131</ele>
        <time>2019-03-26T11:56:53Z</time>
      </trkpt>
      <trkpt lat="50.65753" lon="5.15539">
        <ele>132</ele>
        <time>2019-03-26T11:57:53Z</time>
      </trkpt>
      <trkpt lat="50.65827" lon="5.15505">
        <ele>133</ele>
        <time>2019-03-26T11:58:53Z</time>
      </trkpt>
      <trkpt lat="50.65845" lon="5.15499">
        <ele>133</ele>
        <time>2019-03-26T11:59:53Z</time>
      </trkpt>
      <trkpt lat="50.65865" lon="5.15498">
        <ele>133</ele>
        <time>2019-03-26T12:00:53Z</time>
      </trkpt>
      <trkpt lat="50.65906" lon="5.15496">
        <ele>133</ele>
        <time>2019-03-26T12:01:53Z</time>
      </trkpt>
      <trkpt lat="50.66003" lon="5.15486">
        <ele>132</ele>
        <time>2019-03-26T12:02:53Z</time>
      </trkpt>
      <trkpt lat="50.66047" lon="5.15483">
        <ele>131</ele>
        <time>2019-03-26T12:03:53Z</time>
      </trkpt>
      <trkpt lat="50.6606" lon="5.1549">
        <ele>131</ele>
        <time>2019-03-26T12:04:53Z</time>
      </trkpt>
      <trkpt lat="50.66073" lon="5.15499">
        <ele>131</ele>
        <time>2019-03-26T12:05:53Z</time>
      </trkpt>
      <trkpt lat="50.66084" lon="5.15512">
        <ele>131</ele>
        <time>2019-03-26T12:06:53Z</time>
      </trkpt>
      <trkpt lat="50.66105" lon="5.15543">
        <ele>131</ele>
        <time>2019-03-26T12:07:53Z</time>
      </trkpt>
      <trkpt lat="50.66121" lon="5.15567">
        <ele>131</ele>
        <time>2019-03-26T12:08:53Z</time>
      </trkpt>
      <trkpt lat="50.6613" lon="5.15583">
        <ele>130</ele>
        <time>2019-03-26T12:09:53Z</time>
      </trkpt>
      <trkpt lat="50.66139" lon="5.15602">
        <ele>130</ele>
        <time>2019-03-26T12:10:53Z</time>
      </trkpt>
      <trkpt lat="50.66158" lon="5.15647">
        <ele>130</ele>
        <time>2019-03-26T12:11:53Z</time>
      </trkpt>
      <trkpt lat="50.66167" lon="5.15669">
        <ele>130</ele>
        <time>2019-03-26T12:12:53Z</time>
      </trkpt>
      <trkpt lat="50.66178" lon="5.15662">
        <ele>130</ele>
        <time>2019-03-26T12:13:53Z</time>
      </trkpt>
      <trkpt lat="50.66284" lon="5.15579">
        <ele>128</ele>
        <time>2019-03-26T12:14:53Z</time>
      </trkpt>
      <trkpt lat="50.66301" lon="5.15569">
        <ele>128</ele>
        <time>2019-03-26T12:15:53Z</time>
      </trkpt>
      <trkpt lat="50.66314" lon="5.15565">
        <ele>128</ele>
        <time>2019-03-26T12:16:53Z</time>
      </trkpt>
      <trkpt lat="50.6635" lon="5.15578">
        <ele>127</ele>
        <time>2019-03-26T12:17:53Z</time>
      </trkpt>
      <trkpt lat="50.66356" lon="5.15581">
        <ele>126</ele>
        <time>2019-03-26T12:18:53Z</time>
      </trkpt>
      <trkpt lat="50.66363" lon="5.15567">
        <ele>126</ele>
        <time>2019-03-26T12:19:53Z</time>
      </trkpt>
      <trkpt lat="50.66412" lon="5.15523">
        <ele>126</ele>
        <time>2019-03-26T12:20:53Z</time>
      </trkpt>
      <trkpt lat="50.66428" lon="5.15508">
        <ele>126</ele>
        <time>2019-03-26T12:21:53Z</time>
      </trkpt>
      <trkpt lat="50.66444" lon="5.15484">
        <ele>126</ele>
        <time>2019-03-26T12:22:53Z</time>
      </trkpt>
      <trkpt lat="50.66459" lon="5.15444">
        <ele>125</ele>
        <time>2019-03-26T12:23:53Z</time>
      </trkpt>
      <trkpt lat="50.66467" lon="5.15415">
        <ele>125</ele>
        <time>2019-03-26T12:24:53Z</time>
      </trkpt>
      <trkpt lat="50.66489" lon="5.15326">
        <ele>125</ele>
        <time>2019-03-26T12:25:53Z</time>
      </trkpt>
      <trkpt lat="50.66497" lon="5.15304">
        <ele>125</ele>
        <time>2019-03-26T12:26:53Z</time>
      </trkpt>
      <trkpt lat="50.6651" lon="5.15282">
        <ele>126</ele>
        <time>2019-03-26T12:27:53Z</time>
      </trkpt>
      <trkpt lat="50.6653" lon="5.15267">
        <ele>126</ele>
        <time>2019-03-26T12:28:53Z</time>
      </trkpt>
      <trkpt lat="50.66584" lon="5.15231">
        <ele>125</ele>
        <time>2019-03-26T12:29:53Z</time>
      </trkpt>
      <trkpt lat="50.66667" lon="5.15184">
        <ele>129</ele>
        <time>2019-03-26T12:30:53Z</time>
      </trkpt>
      <trkpt lat="50.66691" lon="5.1517">
        <ele>129</ele>
        <time>2019-03-26T12:31:53Z</time>
      </trkpt>
      <trkpt lat="50.66721" lon="5.15162">
        <ele>130</ele>
        <time>2019-03-26T12:32:53Z</time>
      </trkpt>
      <trkpt lat="50.66762" lon="5.15151">
        <ele>130</ele>
        <time>2019-03-26T12:33:53Z</time>
      </trkpt>
      <trkpt lat="50.66798" lon="5.15139">
        <ele>130</ele>
        <time>2019-03-26T12:34:53Z</time>
      </trkpt>
      <trkpt lat="50.66862" lon="5.15123">
        <ele>131</ele>
        <time>2019-03-26T12:35:53Z</time>
      </trkpt>
      <trkpt lat="50.66897" lon="5.15112">
        <ele>132</ele>
        <time>2019-03-26T12:36:53Z</time>
      </trkpt>
      <trkpt lat="50.66935" lon="5.15102">
        <ele>133</ele>
        <time>2019-03-26T12:37:53Z</time>
      </trkpt>
      <trkpt lat="50.66956" lon="5.15093">
        <ele>133</ele>
        <time>2019-03-26T12:38:53Z</time>
      </trkpt>
      <trkpt lat="50.66971" lon="5.15084">
        <ele>133</ele>
        <time>2019-03-26T12:39:53Z</time>
      </trkpt>
      <trkpt lat="50.67011" lon="5.15053">
        <ele>134</ele>
        <time>2019-03-26T12:40:53Z</time>
      </trkpt>
      <trkpt lat="50.67041" lon="5.15032">
        <ele>134</ele>
        <time>2019-03-26T12:41:53Z</time>
      </trkpt>
      <trkpt lat="50.67075" lon="5.15012">
        <ele>134</ele>
        <time>2019-03-26T12:42:53Z</time>
      </trkpt>
      <trkpt lat="50.67095" lon="5.15001">
        <ele>134</ele>
        <time>2019-03-26T12:43:53Z</time>
      </trkpt>
      <trkpt lat="50.67129" lon="5.14992">
        <ele>135</ele>
        <time>2019-03-26T12:44:53Z</time>
      </trkpt>
      <trkpt lat="50.67183" lon="5.1498">
        <ele>135</ele>
        <time>2019-03-26T12:45:53Z</time>
      </trkpt>
      <trkpt lat="50.67205" lon="5.14974">
        <ele>134</ele>
        <time>2019-03-26T12:46:53Z</time>
      </trkpt>
      <trkpt lat="50.67235" lon="5.14943">
        <ele>133</ele>
        <time>2019-03-26T12:47:53Z</time>
      </trkpt>
      <trkpt lat="50.67279" lon="5.14902">
        <ele>132</ele>
        <time>2019-03-26T12:48:53Z</time>
      </trkpt>
      <trkpt lat="50.67307" lon="5.14874">
        <ele>132</ele>
        <time>2019-03-26T12:49:53Z</time>
      </trkpt>
      <trkpt lat="50.67353" lon="5.14831">
        <ele>132</ele>
        <time>2019-03-26T12:50:53Z</time>
      </trkpt>
      <trkpt lat="50.67391" lon="5.14798">
        <ele>134</ele>
        <time>2019-03-26T12:51:53Z</time>
      </trkpt>
      <trkpt lat="50.67427" lon="5.1476">
        <ele>135</ele>
        <time>2019-03-26T12:52:53Z</time>
      </trkpt>
      <trkpt lat="50.67442" lon="5.14748">
        <ele>136</ele>
        <time>2019-03-26T12:53:53Z</time>
      </trkpt>
      <trkpt lat="50.67473" lon="5.14717">
        <ele>138</ele>
        <time>2019-03-26T12:54:53Z</time>
      </trkpt>
      <trkpt lat="50.67496" lon="5.14692">
        <ele>139</ele>
        <time>2019-03-26T12:55:53Z</time>
      </trkpt>
      <trkpt lat="50.67512" lon="5.14674">
        <ele>139</ele>
        <time>2019-03-26T12:56:53Z</time>
      </trkpt>
      <trkpt lat="50.6754" lon="5.14651">
        <ele>140</ele>
        <time>2019-03-26T12:57:53Z</time>
      </trkpt>
      <trkpt lat="50.67555" lon="5.14642">
        <ele>140</ele>
        <time>2019-03-26T12:58:53Z</time>
      </trkpt>
      <trkpt lat="50.67569" lon="5.14641">
        <ele>140</ele>
        <time>2019-03-26T12:59:53Z</time>
      </trkpt>
      <trkpt lat="50.67587" lon="5.14643">
        <ele>140</ele>
        <time>2019-03-26T13:00:53Z</time>
      </trkpt>
      <trkpt lat="50.6763" lon="5.14643">
        <ele>140</ele>
        <time>2019-03-26T13:01:53Z</time>
      </trkpt>
      <trkpt lat="50.67666" lon="5.14644">
        <ele>140</ele>
        <time>2019-03-26T13:02:53Z</time>
      </trkpt>
      <trkpt lat="50.67724" lon="5.14647">
        <ele>140</ele>
        <time>2019-03-26T13:03:53Z</time>
      </trkpt>
      <trkpt lat="50.67736" lon="5.14645">
        <ele>140</ele>
        <time>2019-03-26T13:04:53Z</time>
      </trkpt>
      <trkpt lat="50.6775" lon="5.14633">
        <ele>140</ele>
        <time>2019-03-26T13:05:53Z</time>
      </trkpt>
      <trkpt lat="50.67761" lon="5.14622">
        <ele>140</ele>
        <time>2019-03-26T13:06:53Z</time>
      </trkpt>
      <trkpt lat="50.67814" lon="5.14541">
        <ele>138</ele>
        <time>2019-03-26T13:07:53Z</time>
      </trkpt>
      <trkpt lat="50.6784" lon="5.14502">
        <ele>138</ele>
        <time>2019-03-26T13:08:53Z</time>
      </trkpt>
      <trkpt lat="50.67881" lon="5.14442">
        <ele>139</ele>
        <time>2019-03-26T13:09:53Z</time>
      </trkpt>
      <trkpt lat="50.67927" lon="5.14375">
        <ele>142</ele>
        <time>2019-03-26T13:10:53Z</time>
      </trkpt>
      <trkpt lat="50.68155" lon="5.14037">
        <ele>139</ele>
        <time>2019-03-26T13:11:53Z</time>
      </trkpt>
      <trkpt lat="50.68198" lon="5.13975">
        <ele>141</ele>
        <time>2019-03-26T13:12:53Z</time>
      </trkpt>
      <trkpt lat="50.68206" lon="5.13958">
        <ele>142</ele>
        <time>2019-03-26T13:13:53Z</time>
      </trkpt>
      <trkpt lat="50.68237" lon="5.13905">
        <ele>143</ele>
        <time>2019-03-26T13:14:53Z</time>
      </trkpt>
      <trkpt lat="50.68255" lon="5.13868">
        <ele>143</ele>
        <time>2019-03-26T13:15:53Z</time>
      </trkpt>
      <trkpt lat="50.68276" lon="5.13817">
        <ele>142</ele>
        <time>2019-03-26T13:16:53Z</time>
      </trkpt>
      <trkpt lat="50.68301" lon="5.13762">
        <ele>140</ele>
        <time>2019-03-26T13:17:53Z</time>
      </trkpt>
      <trkpt lat="50.68321" lon="5.13717">
        <ele>139</ele>
        <time>2019-03-26T13:18:53Z</time>
      </trkpt>
      <trkpt lat="50.6833" lon="5.13692">
        <ele>138</ele>
        <time>2019-03-26T13:19:53Z</time>
      </trkpt>
      <trkpt lat="50.68338" lon="5.13668">
        <ele>138</ele>
        <time>2019-03-26T13:20:53Z</time>
      </trkpt>
      <trkpt lat="50.68382" lon="5.1355">
        <ele>136</ele>
        <time>2019-03-26T13:21:53Z</time>
      </trkpt>
      <trkpt lat="50.68398" lon="5.13507">
        <ele>135</ele>
        <time>2019-03-26T13:22:53Z</time>
      </trkpt>
      <trkpt lat="50.68412" lon="5.13465">
        <ele>135</ele>
        <time>2019-03-26T13:23:53Z</time>
      </trkpt>
      <trkpt lat="50.68423" lon="5.13425">
        <ele>134</ele>
        <time>2019-03-26T13:24:53Z</time>
      </trkpt>
      <trkpt lat="50.68432" lon="5.13375">
        <ele>133</ele>
        <time>2019-03-26T13:25:53Z</time>
      </trkpt>
      <trkpt lat="50.68438" lon="5.13332">
        <ele>132</ele>
        <time>2019-03-26T13:26:53Z</time>
      </trkpt>
      <trkpt lat="50.68457" lon="5.13213">
        <ele>132</ele>
        <time>2019-03-26T13:27:53Z</time>
      </trkpt>
      <trkpt lat="50.68472" lon="5.13119">
        <ele>132</ele>
        <time>2019-03-26T13:28:53Z</time>
      </trkpt>
      <trkpt lat="50.68491" lon="5.13007">
        <ele>134</ele>
        <time>2019-03-26T13:29:53Z</time>
      </trkpt>
      <trkpt lat="50.68499" lon="5.12955">
        <ele>136</ele>
        <time>2019-03-26T13:30:53Z</time>
      </trkpt>
      <trkpt lat="50.68505" lon="5.12923">
        <ele>138</ele>
        <time>2019-03-26T13:31:53Z</time>
      </trkpt>
      <trkpt lat="50.68515" lon="5.12877">
        <ele>138</ele>
        <time>2019-03-26T13:32:53Z</time>
      </trkpt>
      <trkpt lat="50.6852" lon="5.1286">
        <ele>137</ele>
        <time>2019-03-26T13:33:53Z</time>
      </trkpt>
      <trkpt lat="50.68532" lon="5.12832">
        <ele>137</ele>
        <time>2019-03-26T13:34:53Z</time>
      </trkpt>
      <trkpt lat="50.68541" lon="5.12814">
        <ele>137</ele>
        <time>2019-03-26T13:35:53Z</time>
      </trkpt>
      <trkpt lat="50.68605" lon="5.12703">
        <ele>137</ele>
        <time>2019-03-26T13:36:53Z</time>
      </trkpt>
      <trkpt lat="50.68621" lon="5.12668">
        <ele>137</ele>
        <time>2019-03-26T13:37:53Z</time>
      </trkpt>
      <trkpt lat="50.68643" lon="5.12615">
        <ele>137</ele>
        <time>2019-03-26T13:38:53Z</time>
      </trkpt>
      <trkpt lat="50.68689" lon="5.12487">
        <ele>134</ele>
        <time>2019-03-26T13:39:53Z</time>
      </trkpt>
      <trkpt lat="50.68693" lon="5.12476">
        <ele>134</ele>
        <time>2019-03-26T13:40:53Z</time>
      </trkpt>
      <trkpt lat="50.6871" lon="5.12482">
        <ele>134</ele>
        <time>2019-03-26T13:41:53Z</time>
      </trkpt>
      <trkpt lat="50.68722" lon="5.12488">
        <ele>134</ele>
        <time>2019-03-26T13:42:53Z</time>
      </trkpt>
      <trkpt lat="50.68772" lon="5.12517">
        <ele>134</ele>
        <time>2019-03-26T13:43:53Z</time>
      </trkpt>
      <trkpt lat="50.68802" lon="5.12528">
        <ele>135</ele>
        <time>2019-03-26T13:44:53Z</time>
      </trkpt>
      <trkpt lat="50.68903" lon="5.12542">
        <ele>133</ele>
        <time>2019-03-26T13:45:53Z</time>
      </trkpt>
      <trkpt lat="50.68929" lon="5.12547">
        <ele>133</ele>
        <time>2019-03-26T13:46:53Z</time>
      </trkpt>
      <trkpt lat="50.68975" lon="5.12559">
        <ele>132</ele>
        <time>2019-03-26T13:47:53Z</time>
      </trkpt>
      <trkpt lat="50.69014" lon="5.12571">
        <ele>131</ele>
        <time>2019-03-26T13:48:53Z</time>
      </trkpt>
      <trkpt lat="50.69041" lon="5.12579">
        <ele>130</ele>
        <time>2019-03-26T13:49:53Z</time>
      </trkpt>
      <trkpt lat="50.69075" lon="5.12588">
        <ele>129</ele>
        <time>2019-03-26T13:50:53Z</time>
      </trkpt>
      <trkpt lat="50.69124" lon="5.12603">
        <ele>128</ele>
        <time>2019-03-26T13:51:53Z</time>
      </trkpt>
      <trkpt lat="50.69364" lon="5.12671">
        <ele>127</ele>
        <time>2019-03-26T13:52:53Z</time>
      </trkpt>
      <trkpt lat="50.69377" lon="5.12669">
        <ele>127</ele>
        <time>2019-03-26T13:53:53Z</time>
      </trkpt>
      <trkpt lat="50.69386" lon="5.12685">
        <ele>127</ele>
        <time>2019-03-26T13:54:53Z</time>
      </trkpt>
      <trkpt lat="50.69404" lon="5.12713">
        <ele>128</ele>
        <time>2019-03-26T13:55:53Z</time>
      </trkpt>
      <trkpt lat="50.69441" lon="5.1277">
        <ele>129</ele>
        <time>2019-03-26T13:56:53Z</time>
      </trkpt>
      <trkpt lat="50.69462" lon="5.12796">
        <ele>130</ele>
        <time>2019-03-26T13:57:53Z</time>
      </trkpt>
      <trkpt lat="50.69482" lon="5.1282">
        <ele>131</ele>
        <time>2019-03-26T13:58:53Z</time>
      </trkpt>
      <trkpt lat="50.69497" lon="5.12836">
        <ele>132</ele>
        <time>2019-03-26T13:59:53Z</time>
      </trkpt>
      <trkpt lat="50.69518" lon="5.12858">
        <ele>133</ele>
        <time>2019-03-26T14:00:53Z</time>
      </trkpt>
      <trkpt lat="50.69568" lon="5.12907">
        <ele>134</ele>
        <time>2019-03-26T14:01:53Z</time>
      </trkpt>
      <trkpt lat="50.69592" lon="5.12933">
        <ele>135</ele>
        <time>2019-03-26T14:02:53Z</time>
      </trkpt>
      <trkpt lat="50.69608" lon="5.12946">
        <ele>135</ele>
        <time>2019-03-26T14:03:53Z</time>
      </trkpt>
      <trkpt lat="50.6964" lon="5.12964">
        <ele>136</ele>
        <time>2019-03-26T14:04:53Z</time>
      </trkpt>
      <trkpt lat="50.69658" lon="5.12977">
        <ele>136</ele>
        <time>2019-03-26T14:05:53Z</time>
      </trkpt>
      <trkpt lat="50.69672" lon="5.12991">
        <ele>136</ele>
        <time>2019-03-26T14:06:53Z</time>
      </trkpt>
      <trkpt lat="50.69761" lon="5.13118">
        <ele>138</ele>
        <time>2019-03-26T14:07:53Z</time>
      </trkpt>
      <trkpt lat="50.69777" lon="5.1314">
        <ele>138</ele>
        <time>2019-03-26T14:08:53Z</time>
      </trkpt>
      <trkpt lat="50.69809" lon="5.13187">
        <ele>138</ele>
        <time>2019-03-26T14:09:53Z</time>
      </trkpt>
      <trkpt lat="50.69822" lon="5.13203">
        <ele>137</ele>
        <time>2019-03-26T14:10:53Z</time>
      </trkpt>
      <trkpt lat="50.69863" lon="5.13236">
        <ele>136</ele>
        <time>2019-03-26T14:11:53Z</time>
      </trkpt>
      <trkpt lat="50.70028" lon="5.13359">
        <ele>128</ele>
        <time>2019-03-26T14:12:53Z</time>
      </trkpt>
      <trkpt lat="50.70052" lon="5.13376">
        <ele>127</ele>
        <time>2019-03-26T14:13:53Z</time>
      </trkpt>
      <trkpt lat="50.70082" lon="5.134">
        <ele>126</ele>
        <time>2019-03-26T14:14:53Z</time>
      </trkpt>
      <trkpt lat="50.70097" lon="5.13417">
        <ele>126</ele>
        <time>2019-03-26T14:15:53Z</time>
      </trkpt>
      <trkpt lat="50.70114" lon="5.13444">
        <ele>125</ele>
        <time>2019-03-26T14:16:53Z</time>
      </trkpt>
      <trkpt lat="50.70125" lon="5.13467">
        <ele>125</ele>
        <time>2019-03-26T14:17:53Z</time>
      </trkpt>
      <trkpt lat="50.70135" lon="5.13496">
        <ele>125</ele>
        <time>2019-03-26T14:18:53Z</time>
      </trkpt>
      <trkpt lat="50.7014" lon="5.13517">
        <ele>126</ele>
        <time>2019-03-26T14:19:53Z</time>
      </trkpt>
      <trkpt lat="50.70144" lon="5.13541">
        <ele>127</ele>
        <time>2019-03-26T14:20:53Z</time>
      </trkpt>
      <trkpt lat="50.70145" lon="5.13556">
        <ele>128</ele>
        <time>2019-03-26T14:21:53Z</time>
      </trkpt>
      <trkpt lat="50.70146" lon="5.13579">
        <ele>129</ele>
        <time>2019-03-26T14:22:53Z</time>
      </trkpt>
      <trkpt lat="50.70146" lon="5.136">
        <ele>129</ele>
        <time>2019-03-26T14:23:53Z</time>
      </trkpt>
      <trkpt lat="50.70144" lon="5.13622">
        <ele>130</ele>
        <time>2019-03-26T14:24:53Z</time>
      </trkpt>
      <trkpt lat="50.70143" lon="5.13633">
        <ele>131</ele>
        <time>2019-03-26T14:25:53Z</time>
      </trkpt>
      <trkpt lat="50.70139" lon="5.13653">
        <ele>131</ele>
        <time>2019-03-26T14:26:53Z</time>
      </trkpt>
      <trkpt lat="50.70136" lon="5.13674">
        <ele>132</ele>
        <time>2019-03-26T14:27:53Z</time>
      </trkpt>
      <trkpt lat="50.70124" lon="5.13734">
        <ele>133</ele>
        <time>2019-03-26T14:28:53Z</time>
      </trkpt>
      <trkpt lat="50.70118" lon="5.13764">
        <ele>134</ele>
        <time>2019-03-26T14:29:53Z</time>
      </trkpt>
      <trkpt lat="50.70114" lon="5.13793">
        <ele>134</ele>
        <time>2019-03-26T14:30:53Z</time>
      </trkpt>
      <trkpt lat="50.70112" lon="5.1381">
        <ele>134</ele>
        <time>2019-03-26T14:31:53Z</time>
      </trkpt>
      <trkpt lat="50.70111" lon="5.13832">
        <ele>134</ele>
        <time>2019-03-26T14:32:53Z</time>
      </trkpt>
      <trkpt lat="50.70115" lon="5.13881">
        <ele>135</ele>
        <time>2019-03-26T14:33:53Z</time>
      </trkpt>
      <trkpt lat="50.70123" lon="5.13923">
        <ele>135</ele>
        <time>2019-03-26T14:34:53Z</time>
      </trkpt>
      <trkpt lat="50.70143" lon="5.13971">
        <ele>135</ele>
        <time>2019-03-26T14:35:53Z</time>
      </trkpt>
      <trkpt lat="50.70158" lon="5.13997">
        <ele>134</ele>
        <time>2019-03-26T14:36:53Z</time>
      </trkpt>
      <trkpt lat="50.70174" lon="5.14017">
        <ele>134</ele>
        <time>2019-03-26T14:37:53Z</time>
      </trkpt>
      <trkpt lat="50.70231" lon="5.14078">
        <ele>134</ele>
        <time>2019-03-26T14:38:53Z</time>
      </trkpt>
      <trkpt lat="50.70252" lon="5.141">
        <ele>134</ele>
        <time>2019-03-26T14:39:53Z</time>
      </trkpt>
      <trkpt lat="50.70274" lon="5.1413">
        <ele>133</ele>
        <time>2019-03-26T14:40:53Z</time>
      </trkpt>
      <trkpt lat="50.70289" lon="5.14156">
        <ele>133</ele>
        <time>2019-03-26T14:41:53Z</time>
      </trkpt>
      <trkpt lat="50.70302" lon="5.14191">
        <ele>133</ele>
        <time>2019-03-26T14:42:53Z</time>
      </trkpt>
      <trkpt lat="50.7031" lon="5.14216">
        <ele>133</ele>
        <time>2019-03-26T14:43:53Z</time>
      </trkpt>
      <trkpt lat="50.70318" lon="5.14248">
        <ele>133</ele>
        <time>2019-03-26T14:44:53Z</time>
      </trkpt>
      <trkpt lat="50.70333" lon="5.14309">
        <ele>131</ele>
        <time>2019-03-26T14:45:53Z</time>
      </trkpt>
      <trkpt lat="50.70343" lon="5.14359">
        <ele>130</ele>
        <time>2019-03-26T14:46:53Z</time>
      </trkpt>
      <trkpt lat="50.70354" lon="5.14411">
        <ele>130</ele>
        <time>2019-03-26T14:47:53Z</time>
      </trkpt>
      <trkpt lat="50.7037" lon="5.14482">
        <ele>129</ele>
        <time>2019-03-26T14:48:53Z</time>
      </trkpt>
      <trkpt lat="50.70379" lon="5.14523">
        <ele>128</ele>
        <time>2019-03-26T14:49:53Z</time>
      </trkpt>
      <trkpt lat="50.70389" lon="5.1455">
        <ele>127</ele>
        <time>2019-03-26T14:50:53Z</time>
      </trkpt>
      <trkpt lat="50.70399" lon="5.14571">
        <ele>127</ele>
        <time>2019-03-26T14:51:53Z</time>
      </trkpt>
      <trkpt lat="50.70418" lon="5.14594">
        <ele>126</ele>
        <time>2019-03-26T14:52:53Z</time>
      </trkpt>
      <trkpt lat="50.706" lon="5.14762">
        <ele>123</ele>
        <time>2019-03-26T14:53:53Z</time>
      </trkpt>
      <trkpt lat="50.70645" lon="5.14803">
        <ele>123</ele>
        <time>2019-03-26T14:54:53Z</time>
      </trkpt>
      <trkpt lat="50.7067" lon="5.14831">
        <ele>122</ele>
        <time>2019-03-26T14:55:53Z</time>
      </trkpt>
      <trkpt lat="50.70687" lon="5.14854">
        <ele>122</ele>
        <time>2019-03-26T14:56:53Z</time>
      </trkpt>
      <trkpt lat="50.70721" lon="5.149">
        <ele>122</ele>
        <time>2019-03-26T14:57:53Z</time>
      </trkpt>
      <trkpt lat="50.70741" lon="5.14936">
        <ele>122</ele>
        <time>2019-03-26T14:58:53Z</time>
      </trkpt>
      <trkpt lat="50.70745" lon="5.14947">
        <ele>122</ele>
        <time>2019-03-26T14:59:53Z</time>
      </trkpt>
      <trkpt lat="50.70744" lon="5.14957">
        <ele>122</ele>
        <time>2019-03-26T15:00:53Z</time>
      </trkpt>
      <trkpt lat="50.70738" lon="5.14977">
        <ele>122</ele>
        <time>2019-03-26T15:01:53Z</time>
      </trkpt>
      <trkpt lat="50.7073" lon="5.14991">
        <ele>122</ele>
        <time>2019-03-26T15:02:53Z</time>
      </trkpt>
      <trkpt lat="50.70715" lon="5.15019">
        <ele>123</ele>
        <time>2019-03-26T15:03:53Z</time>
      </trkpt>
      <trkpt lat="50.7071" lon="5.15027">
        <ele>124</ele>
        <time>2019-03-26T15:04:53Z</time>
      </trkpt>
      <trkpt lat="50.70682" lon="5.15059">
        <ele>125</ele>
        <time>2019-03-26T15:05:53Z</time>
      </trkpt>
      <trkpt lat="50.70674" lon="5.15066">
        <ele>125</ele>
        <time>2019-03-26T15:06:53Z</time>
      </trkpt>
      <trkpt lat="50.7066" lon="5.15079">
        <ele>126</ele>
        <time>2019-03-26T15:07:53Z</time>
      </trkpt>
      <trkpt lat="50.70646" lon="5.15103">
        <ele>127</ele>
        <time>2019-03-26T15:08:53Z</time>
      </trkpt>
      <trkpt lat="50.70642" lon="5.1511">
        <ele>128</ele>
        <time>2019-03-26T15:09:53Z</time>
      </trkpt>
      <trkpt lat="50.70625" lon="5.15152">
        <ele>129</ele>
        <time>2019-03-26T15:10:53Z</time>
      </trkpt>
      <trkpt lat="50.7062" lon="5.15174">
        <ele>130</ele>
        <time>2019-03-26T15:11:53Z</time>
      </trkpt>
      <trkpt lat="50.70619" lon="5.15201">
        <ele>130</ele>
        <time>2019-03-26T15:12:53Z</time>
      </trkpt>
      <trkpt lat="50.70619" lon="5.15218">
        <ele>130</ele>
        <time>2019-03-26T15:13:53Z</time>
      </trkpt>
      <trkpt lat="50.70624" lon="5.15259">
        <ele>130</ele>
        <time>2019-03-26T15:14:53Z</time>
      </trkpt>
      <trkpt lat="50.7063" lon="5.1532">
        <ele>130</ele>
        <time>2019-03-26T15:15:53Z</time>
      </trkpt>
      <trkpt lat="50.70631" lon="5.15339">
        <ele>130</ele>
        <time>2019-03-26T15:16:53Z</time>
      </trkpt>
      <trkpt lat="50.7063" lon="5.1536">
        <ele>130</ele>
        <time>2019-03-26T15:17:53Z</time>
      </trkpt>
      <trkpt lat="50.70626" lon="5.15397">
        <ele>131</ele>
        <time>2019-03-26T15:18:53Z</time>
      </trkpt>
      <trkpt lat="50.70618" lon="5.15452">
        <ele>132</ele>
        <time>2019-03-26T15:19:53Z</time>
      </trkpt>
      <trkpt lat="50.70611" lon="5.15508">
        <ele>133</ele>
        <time>2019-03-26T15:20:53Z</time>
      </trkpt>
      <trkpt lat="50.70605" lon="5.15559">
        <ele>133</ele>
        <time>2019-03-26T15:21:53Z</time>
      </trkpt>
      <trkpt lat="50.70562" lon="5.15891">
        <ele>129</ele>
        <time>2019-03-26T15:22:53Z</time>
      </trkpt>
      <trkpt lat="50.70557" lon="5.15935">
        <ele>129</ele>
        <time>2019-03-26T15:23:53Z</time>
      </trkpt>
      <trkpt lat="50.70548" lon="5.15999">
        <ele>128</ele>
        <time>2019-03-26T15:24:53Z</time>
      </trkpt>
      <trkpt lat="50.70501" lon="5.16357">
        <ele>127</ele>
        <time>2019-03-26T15:25:53Z</time>
      </trkpt>
      <trkpt lat="50.70488" lon="5.16457">
        <ele>129</ele>
        <time>2019-03-26T15:26:53Z</time>
      </trkpt>
      <trkpt lat="50.70482" lon="5.16497">
        <ele>129</ele>
        <time>2019-03-26T15:27:53Z</time>
      </trkpt>
      <trkpt lat="50.70475" lon="5.16552">
        <ele>130</ele>
        <time>2019-03-26T15:28:53Z</time>
      </trkpt>
      <trkpt lat="50.70468" lon="5.16579">
        <ele>131</ele>
        <time>2019-03-26T15:29:53Z</time>
      </trkpt>
      <trkpt lat="50.70458" lon="5.16616">
        <ele>131</ele>
        <time>2019-03-26T15:30:53Z</time>
      </trkpt>
      <trkpt lat="50.70414" lon="5.1677">
        <ele>130</ele>
        <time>2019-03-26T15:31:53Z</time>
      </trkpt>
      <trkpt lat="50.70405" lon="5.16801">
        <ele>130</ele>
        <time>2019-03-26T15:32:53Z</time>
      </trkpt>
      <trkpt lat="50.7039" lon="5.16858">
        <ele>128</ele>
        <time>2019-03-26T15:33:53Z</time>
      </trkpt>
      <trkpt lat="50.70386" lon="5.16864">
        <ele>128</ele>
        <time>2019-03-26T15:34:53Z</time>
      </trkpt>
      <trkpt lat="50.70382" lon="5.16864">
        <ele>128</ele>
        <time>2019-03-26T15:35:53Z</time>
      </trkpt>
      <trkpt lat="50.70372" lon="5.16856">
        <ele>128</ele>
        <time>2019-03-26T15:36:53Z</time>
      </trkpt>
      <trkpt lat="50.70362" lon="5.16825">
        <ele>129</ele>
        <time>2019-03-26T15:37:53Z</time>
      </trkpt>
      <trkpt lat="50.70343" lon="5.16835">
        <ele>128</ele>
        <time>2019-03-26T15:38:53Z</time>
      </trkpt>
      <trkpt lat="50.7033" lon="5.1684">
        <ele>128</ele>
        <time>2019-03-26T15:39:53Z</time>
      </trkpt>
      <trkpt lat="50.70288" lon="5.16856">
        <ele>128</ele>
        <time>2019-03-26T15:40:53Z</time>
      </trkpt>
      <trkpt lat="50.70281" lon="5.16858">
        <ele>128</ele>
        <time>2019-03-26T15:41:53Z</time>
      </trkpt>
      <trkpt lat="50.70265" lon="5.16865">
        <ele>129</ele>
        <time>2019-03-26T15:42:53Z</time>
      </trkpt>
      <trkpt lat="50.7026" lon="5.1683">
        <ele>130</ele>
        <time>2019-03-26T15:43:53Z</time>
      </trkpt>
      <trkpt lat="50.70253" lon="5.16816">
        <ele>130</ele>
        <time>2019-03-26T15:44:53Z</time>
      </trkpt>
      <trkpt lat="50.7024" lon="5.1682">
        <ele>130</ele>
        <time>2019-03-26T15:45:53Z</time>
      </trkpt>
      <trkpt lat="50.70211" lon="5.16829">
        <ele>131</ele>
        <time>2019-03-26T15:46:53Z</time>
      </trkpt>
      <trkpt lat="50.70186" lon="5.16838">
        <ele>131</ele>
        <time>2019-03-26T15:47:53Z</time>
      </trkpt>
      <trkpt lat="50.70165" lon="5.16844">
        <ele>132</ele>
        <time>2019-03-26T15:48:53Z</time>
      </trkpt>
      <trkpt lat="50.70136" lon="5.16854">
        <ele>131</ele>
        <time>2019-03-26T15:49:53Z</time>
      </trkpt>
      <trkpt lat="50.70095" lon="5.16864">
        <ele>132</ele>
        <time>2019-03-26T15:50:53Z</time>
      </trkpt>
      <trkpt lat="50.70065" lon="5.16875">
        <ele>131</ele>
        <time>2019-03-26T15:51:53Z</time>
      </trkpt>
      <trkpt lat="50.70048" lon="5.1688">
        <ele>131</ele>
        <time>2019-03-26T15:52:53Z</time>
      </trkpt>
      <trkpt lat="50.70024" lon="5.16887">
        <ele>130</ele>
        <time>2019-03-26T15:53:53Z</time>
      </trkpt>
      <trkpt lat="50.69979" lon="5.16902">
        <ele>128</ele>
        <time>2019-03-26T15:54:53Z</time>
      </trkpt>
      <trkpt lat="50.69938" lon="5.16914">
        <ele>126</ele>
        <time>2019-03-26T15:55:53Z</time>
      </trkpt>
      <trkpt lat="50.69879" lon="5.16935">
        <ele>125</ele>
        <time>2019-03-26T15:56:53Z</time>
      </trkpt>
      <trkpt lat="50.69853" lon="5.16944">
        <ele>126</ele>
        <time>2019-03-26T15:57:53Z</time>
      </trkpt>
      <trkpt lat="50.69829" lon="5.16957">
        <ele>126</ele>
        <time>2019-03-26T15:58:53Z</time>
      </trkpt>
      <trkpt lat="50.69808" lon="5.16975">
        <ele>127</ele>
        <time>2019-03-26T15:59:53Z</time>
      </trkpt>
      <trkpt lat="50.69788" lon="5.16997">
        <ele>128</ele>
        <time>2019-03-26T16:00:53Z</time>
      </trkpt>
      <trkpt lat="50.69766" lon="5.17028">
        <ele>128</ele>
        <time>2019-03-26T16:01:53Z</time>
      </trkpt>
      <trkpt lat="50.6976" lon="5.17035">
        <ele>129</ele>
        <time>2019-03-26T16:02:53Z</time>
      </trkpt>
      <trkpt lat="50.69755" lon="5.17043">
        <ele>129</ele>
        <time>2019-03-26T16:03:53Z</time>
      </trkpt>
      <trkpt lat="50.69733" lon="5.17074">
        <ele>130</ele>
        <time>2019-03-26T16:04:53Z</time>
      </trkpt>
      <trkpt lat="50.6971" lon="5.17043">
        <ele>131</ele>
        <time>2019-03-26T16:05:53Z</time>
      </trkpt>
      <trkpt lat="50.69696" lon="5.17024">
        <ele>131</ele>
        <time>2019-03-26T16:06:53Z</time>
      </trkpt>
      <trkpt lat="50.6968" lon="5.17008">
        <ele>132</ele>
        <time>2019-03-26T16:07:53Z</time>
      </trkpt>
      <trkpt lat="50.69663" lon="5.16992">
        <ele>132</ele>
        <time>2019-03-26T16:08:53Z</time>
      </trkpt>
      <trkpt lat="50.69654" lon="5.16981">
        <ele>132</ele>
        <time>2019-03-26T16:09:53Z</time>
      </trkpt>
      <trkpt lat="50.69644" lon="5.16963">
        <ele>131</ele>
        <time>2019-03-26T16:10:53Z</time>
      </trkpt>
      <trkpt lat="50.69632" lon="5.16968">
        <ele>131</ele>
        <time>2019-03-26T16:11:53Z</time>
      </trkpt>
      <trkpt lat="50.69616" lon="5.16985">
        <ele>132</ele>
        <time>2019-03-26T16:12:53Z</time>
      </trkpt>
      <trkpt lat="50.69605" lon="5.16995">
        <ele>132</ele>
        <time>2019-03-26T16:13:53Z</time>
      </trkpt>
      <trkpt lat="50.69581" lon="5.17015">
        <ele>132</ele>
        <time>2019-03-26T16:14:53Z</time>
      </trkpt>
      <trkpt lat="50.69557" lon="5.17033">
        <ele>133</ele>
        <time>2019-03-26T16:15:53Z</time>
      </trkpt>
      <trkpt lat="50.69546" lon="5.17042">
        <ele>133</ele>
        <time>2019-03-26T16:16:53Z</time>
      </trkpt>
      <trkpt lat="50.6945" lon="5.17113">
        <ele>135</ele>
        <time>2019-03-26T16:17:53Z</time>
      </trkpt>
      <trkpt lat="50.69436" lon="5.17115">
        <ele>135</ele>
        <time>2019-03-26T16:18:53Z</time>
      </trkpt>
      <trkpt lat="50.69429" lon="5.17112">
        <ele>135</ele>
        <time>2019-03-26T16:19:53Z</time>
      </trkpt>
      <trkpt lat="50.69407" lon="5.17099">
        <ele>135</ele>
        <time>2019-03-26T16:20:53Z</time>
      </trkpt>
      <trkpt lat="50.69216" lon="5.16973">
        <ele>136</ele>
        <time>2019-03-26T16:21:53Z</time>
      </trkpt>
      <trkpt lat="50.69167" lon="5.16942">
        <ele>135</ele>
        <time>2019-03-26T16:22:53Z</time>
      </trkpt>
      <trkpt lat="50.69122" lon="5.1691">
        <ele>134</ele>
        <time>2019-03-26T16:23:53Z</time>
      </trkpt>
      <trkpt lat="50.69078" lon="5.16882">
        <ele>133</ele>
        <time>2019-03-26T16:24:53Z</time>
      </trkpt>
      <trkpt lat="50.69056" lon="5.16867">
        <ele>133</ele>
        <time>2019-03-26T16:25:53Z</time>
      </trkpt>
      <trkpt lat="50.69034" lon="5.16852">
        <ele>132</ele>
        <time>2019-03-26T16:26:53Z</time>
      </trkpt>
      <trkpt lat="50.69012" lon="5.16838">
        <ele>132</ele>
        <time>2019-03-26T16:27:53Z</time>
      </trkpt>
      <trkpt lat="50.68996" lon="5.16825">
        <ele>132</ele>
        <time>2019-03-26T16:28:53Z</time>
      </trkpt>
      <trkpt lat="50.68936" lon="5.16799">
        <ele>131</ele>
        <time>2019-03-26T16:29:53Z</time>
      </trkpt>
      <trkpt lat="50.68913" lon="5.16788">
        <ele>131</ele>
        <time>2019-03-26T16:30:53Z</time>
      </trkpt>
      <trkpt lat="50.6886" lon="5.16769">
        <ele>131</ele>
        <time>2019-03-26T16:31:53Z</time>
      </trkpt>
      <trkpt lat="50.68838" lon="5.16761">
        <ele>131</ele>
        <time>2019-03-26T16:32:53Z</time>
      </trkpt>
      <trkpt lat="50.6879" lon="5.16742">
        <ele>132</ele>
        <time>2019-03-26T16:33:53Z</time>
      </trkpt>
      <trkpt lat="50.68731" lon="5.16721">
        <ele>132</ele>
        <time>2019-03-26T16:34:53Z</time>
      </trkpt>
      <trkpt lat="50.68725" lon="5.16718">
        <ele>132</ele>
        <time>2019-03-26T16:35:53Z</time>
      </trkpt>
      <trkpt lat="50.68706" lon="5.1671">
        <ele>132</ele>
        <time>2019-03-26T16:36:53Z</time>
      </trkpt>
      <trkpt lat="50.6868" lon="5.167">
        <ele>133</ele>
        <time>2019-03-26T16:37:53Z</time>
      </trkpt>
      <trkpt lat="50.6866" lon="5.16693">
        <ele>133</ele>
        <time>2019-03-26T16:38:53Z</time>
      </trkpt>
      <trkpt lat="50.68609" lon="5.16664">
        <ele>134</ele>
        <time>2019-03-26T16:39:53Z</time>
      </trkpt>
      <trkpt lat="50.6858" lon="5.16645">
        <ele>134</ele>
        <time>2019-03-26T16:40:53Z</time>
      </trkpt>
      <trkpt lat="50.68558" lon="5.16624">
        <ele>136</ele>
        <time>2019-03-26T16:41:53Z</time>
      </trkpt>
      <trkpt lat="50.68547" lon="5.16611">
        <ele>137</ele>
        <time>2019-03-26T16:42:53Z</time>
      </trkpt>
      <trkpt lat="50.6853" lon="5.16588">
        <ele>138</ele>
        <time>2019-03-26T16:43:53Z</time>
      </trkpt>
      <trkpt lat="50.68515" lon="5.16558">
        <ele>138</ele>
        <time>2019-03-26T16:44:53Z</time>
      </trkpt>
      <trkpt lat="50.68497" lon="5.16517">
        <ele>138</ele>
        <time>2019-03-26T16:45:53Z</time>
      </trkpt>
      <trkpt lat="50.68488" lon="5.16484">
        <ele>139</ele>
        <time>2019-03-26T16:46:53Z</time>
      </trkpt>
      <trkpt lat="50.6848" lon="5.16461">
        <ele>139</ele>
        <time>2019-03-26T16:47:53Z</time>
      </trkpt>
      <trkpt lat="50.68476" lon="5.16448">
        <ele>139</ele>
        <time>2019-03-26T16:48:53Z</time>
      </trkpt>
      <trkpt lat="50.68452" lon="5.16464">
        <ele>140</ele>
        <time>2019-03-26T16:49:53Z</time>
      </trkpt>
      <trkpt lat="50.68439" lon="5.16471">
        <ele>140</ele>
        <time>2019-03-26T16:50:53Z</time>
      </trkpt>
      <trkpt lat="50.68414" lon="5.16487">
        <ele>142</ele>
        <time>2019-03-26T16:51:53Z</time>
      </trkpt>
      <trkpt lat="50.68337" lon="5.16539">
        <ele>142</ele>
        <time>2019-03-26T16:52:53Z</time>
      </trkpt>
      <trkpt lat="50.6831" lon="5.16558">
        <ele>142</ele>
        <time>2019-03-26T16:53:53Z</time>
      </trkpt>
      <trkpt lat="50.68279" lon="5.16582">
        <ele>141</ele>
        <time>2019-03-26T16:54:53Z</time>
      </trkpt>
      <trkpt lat="50.6826" lon="5.16601">
        <ele>141</ele>
        <time>2019-03-26T16:55:53Z</time>
      </trkpt>
      <trkpt lat="50.68244" lon="5.16614">
        <ele>141</ele>
        <time>2019-03-26T16:56:53Z</time>
      </trkpt>
      <trkpt lat="50.68222" lon="5.16644">
        <ele>141</ele>
        <time>2019-03-26T16:57:53Z</time>
      </trkpt>
      <trkpt lat="50.68216" lon="5.16652">
        <ele>141</ele>
        <time>2019-03-26T16:58:53Z</time>
      </trkpt>
      <trkpt lat="50.68194" lon="5.16668">
        <ele>141</ele>
        <time>2019-03-26T16:59:53Z</time>
      </trkpt>
      <trkpt lat="50.68114" lon="5.16712">
        <ele>140</ele>
        <time>2019-03-26T17:00:53Z</time>
      </trkpt>
      <trkpt lat="50.68072" lon="5.16742">
        <ele>139</ele>
        <time>2019-03-26T17:01:53Z</time>
      </trkpt>
      <trkpt lat="50.68057" lon="5.16759">
        <ele>139</ele>
        <time>2019-03-26T17:02:53Z</time>
      </trkpt>
      <trkpt lat="50.68048" lon="5.16774">
        <ele>139</ele>
        <time>2019-03-26T17:03:53Z</time>
      </trkpt>
      <trkpt lat="50.68043" lon="5.16781">
        <ele>139</ele>
        <time>2019-03-26T17:04:53Z</time>
      </trkpt>
      <trkpt lat="50.68027" lon="5.16801">
        <ele>138</ele>
        <time>2019-03-26T17:05:53Z</time>
      </trkpt>
      <trkpt lat="50.67994" lon="5.16847">
        <ele>138</ele>
        <time>2019-03-26T17:06:53Z</time>
      </trkpt>
      <trkpt lat="50.67963" lon="5.16882">
        <ele>137</ele>
        <time>2019-03-26T17:07:53Z</time>
      </trkpt>
      <trkpt lat="50.67944" lon="5.16901">
        <ele>136</ele>
        <time>2019-03-26T17:08:53Z</time>
      </trkpt>
      <trkpt lat="50.67902" lon="5.16933">
        <ele>135</ele>
        <time>2019-03-26T17:09:53Z</time>
      </trkpt>
      <trkpt lat="50.67888" lon="5.16943">
        <ele>134</ele>
        <time>2019-03-26T17:10:53Z</time>
      </trkpt>
      <trkpt lat="50.67867" lon="5.16955">
        <ele>134</ele>
        <time>2019-03-26T17:11:53Z</time>
      </trkpt>
      <trkpt lat="50.6786" lon="5.1696">
        <ele>134</ele>
        <time>2019-03-26T17:12:53Z</time>
      </trkpt>
      <trkpt lat="50.67853" lon="5.16956">
        <ele>134</ele>
        <time>2019-03-26T17:13:53Z</time>
      </trkpt>
      <trkpt lat="50.67846" lon="5.16957">
        <ele>134</ele>
        <time>2019-03-26T17:14:53Z</time>
      </trkpt>
      <trkpt lat="50.67843" lon="5.1697">
        <ele>134</ele>
        <time>2019-03-26T17:15:53Z</time>
      </trkpt>
      <trkpt lat="50.67834" lon="5.16976">
        <ele>134</ele>
        <time>2019-03-26T17:16:53Z</time>
      </trkpt>
      <trkpt lat="50.67816" lon="5.16988">
        <ele>134</ele>
        <time>2019-03-26T17:17:53Z</time>
      </trkpt>
      <trkpt lat="50.67766" lon="5.17015">
        <ele>134</ele>
        <time>2019-03-26T17:18:53Z</time>
      </trkpt>
      <trkpt lat="50.67759" lon="5.17018">
        <ele>134</ele>
        <time>2019-03-26T17:19:53Z</time>
      </trkpt>
      <trkpt lat="50.67699" lon="5.17033">
        <ele>134</ele>
        <time>2019-03-26T17:20:53Z</time>
      </trkpt>
      <trkpt lat="50.67663" lon="5.17041">
        <ele>133</ele>
        <time>2019-03-26T17:21:53Z</time>
      </trkpt>
      <trkpt lat="50.67649" lon="5.17046">
        <ele>133</ele>
        <time>2019-03-26T17:22:53Z</time>
      </trkpt>
      <trkpt lat="50.6762" lon="5.17054">
        <ele>132</ele>
        <time>2019-03-26T17:23:53Z</time>
      </trkpt>
      <trkpt lat="50.67612" lon="5.17057">
        <ele>132</ele>
        <time>2019-03-26T17:24:53Z</time>
      </trkpt>
      <trkpt lat="50.67605" lon="5.17061">
        <ele>132</ele>
        <time>2019-03-26T17:25:53Z</time>
      </trkpt>
      <trkpt lat="50.67554" lon="5.1709">
        <ele>131</ele>
        <time>2019-03-26T17:26:53Z</time>
      </trkpt>
      <trkpt lat="50.67545" lon="5.17099">
        <ele>131</ele>
        <time>2019-03-26T17:27:53Z</time>
      </trkpt>
      <trkpt lat="50.67509" lon="5.17123">
        <ele>131</ele>
        <time>2019-03-26T17:28:53Z</time>
      </trkpt>
      <trkpt lat="50.67471" lon="5.17152">
        <ele>130</ele>
        <time>2019-03-26T17:29:53Z</time>
      </trkpt>
      <trkpt lat="50.67448" lon="5.17169">
        <ele>129</ele>
        <time>2019-03-26T17:30:53Z</time>
      </trkpt>
      <trkpt lat="50.67432" lon="5.17178">
        <ele>129</ele>
        <time>2019-03-26T17:31:53Z</time>
      </trkpt>
      <trkpt lat="50.67423" lon="5.17182">
        <ele>128</ele>
        <time>2019-03-26T17:32:53Z</time>
      </trkpt>
      <trkpt lat="50.67382" lon="5.17193">
        <ele>127</ele>
        <time>2019-03-26T17:33:53Z</time>
      </trkpt>
      <trkpt lat="50.6733" lon="5.17198">
        <ele>126</ele>
        <time>2019-03-26T17:34:53Z</time>
      </trkpt>
      <trkpt lat="50.67288" lon="5.17204">
        <ele>126</ele>
        <time>2019-03-26T17:35:53Z</time>
      </trkpt>
      <trkpt lat="50.67258" lon="5.17218">
        <ele>126</ele>
        <time>2019-03-26T17:36:53Z</time>
      </trkpt>
      <trkpt lat="50.67225" lon="5.17247">
        <ele>126</ele>
        <time>2019-03-26T17:37:53Z</time>
      </trkpt>
      <trkpt lat="50.67208" lon="5.17266">
        <ele>126</ele>
        <time>2019-03-26T17:38:53Z</time>
      </trkpt>
      <trkpt lat="50.6718" lon="5.17291">
        <ele>126</ele>
        <time>2019-03-26T17:39:53Z</time>
      </trkpt>
      <trkpt lat="50.67131" lon="5.17342">
        <ele>127</ele>
        <time>2019-03-26T17:40:53Z</time>
      </trkpt>
      <trkpt lat="50.67105" lon="5.17364">
        <ele>128</ele>
        <time>2019-03-26T17:41:53Z</time>
      </trkpt>
      <trkpt lat="50.67087" lon="5.17376">
        <ele>128</ele>
        <time>2019-03-26T17:42:53Z</time>
      </trkpt>
      <trkpt lat="50.67069" lon="5.17386">
        <ele>127</ele>
        <time>2019-03-26T17:43:53Z</time>
      </trkpt>
      <trkpt lat="50.67044" lon="5.17397">
        <ele>127</ele>
        <time>2019-03-26T17:44:53Z</time>
      </trkpt>
      <trkpt lat="50.67008" lon="5.17412">
        <ele>126</ele>
        <time>2019-03-26T17:45:53Z</time>
      </trkpt>
      <trkpt lat="50.67" lon="5.17405">
        <ele>126</ele>
        <time>2019-03-26T17:46:53Z</time>
      </trkpt>
      <trkpt lat="50.66989" lon="5.17407">
        <ele>126</ele>
        <time>2019-03-26T17:47:53Z</time>
      </trkpt>
      <trkpt lat="50.66985" lon="5.1742">
        <ele>126</ele>
        <time>2019-03-26T17:48:53Z</time>
      </trkpt>
      <trkpt lat="50.66953" lon="5.17431">
        <ele>126</ele>
        <time>2019-03-26T17:49:53Z</time>
      </trkpt>
      <trkpt lat="50.66903" lon="5.17459">
        <ele>125</ele>
        <time>2019-03-26T17:50:53Z</time>
      </trkpt>
      <trkpt lat="50.66896" lon="5.17464">
        <ele>125</ele>
        <time>2019-03-26T17:51:53Z</time>
      </trkpt>
      <trkpt lat="50.66882" lon="5.17473">
        <ele>125</ele>
        <time>2019-03-26T17:52:53Z</time>
      </trkpt>
      <trkpt lat="50.66859" lon="5.17484">
        <ele>124</ele>
        <time>2019-03-26T17:53:53Z</time>
      </trkpt>
      <trkpt lat="50.66852" lon="5.17486">
        <ele>124</ele>
        <time>2019-03-26T17:54:53Z</time>
      </trkpt>
      <trkpt lat="50.66829" lon="5.17491">
        <ele>123</ele>
        <time>2019-03-26T17:55:53Z</time>
      </trkpt>
      <trkpt lat="50.66807" lon="5.17491">
        <ele>123</ele>
        <time>2019-03-26T17:56:53Z</time>
      </trkpt>
      <trkpt lat="50.66778" lon="5.17489">
        <ele>123</ele>
        <time>2019-03-26T17:57:53Z</time>
      </trkpt>
      <trkpt lat="50.66763" lon="5.17486">
        <ele>123</ele>
        <time>2019-03-26T17:58:53Z</time>
      </trkpt>
      <trkpt lat="50.6671" lon="5.17474">
        <ele>123</ele>
        <time>2019-03-26T17:59:53Z</time>
      </trkpt>
      <trkpt lat="50.66618" lon="5.17456">
        <ele>122</ele>
        <time>2019-03-26T18:00:53Z</time>
      </trkpt>
      <trkpt lat="50.66589" lon="5.17451">
        <ele>121</ele>
        <time>2019-03-26T18:01:53Z</time>
      </trkpt>
      <trkpt lat="50.66517" lon="5.17447">
        <ele>123</ele>
        <time>2019-03-26T18:02:53Z</time>
      </trkpt>
      <trkpt lat="50.6648" lon="5.17441">
        <ele>125</ele>
        <time>2019-03-26T18:03:53Z</time>
      </trkpt>
      <trkpt lat="50.66446" lon="5.17439">
        <ele>126</ele>
        <time>2019-03-26T18:04:53Z</time>
      </trkpt>
      <trkpt lat="50.66425" lon="5.17439">
        <ele>126</ele>
        <time>2019-03-26T18:05:53Z</time>
      </trkpt>
      <trkpt lat="50.66411" lon="5.17442">
        <ele>126</ele>
        <time>2019-03-26T18:06:53Z</time>
      </trkpt>
      <trkpt lat="50.66372" lon="5.17449">
        <ele>126</ele>
        <time>2019-03-26T18:07:53Z</time>
      </trkpt>
      <trkpt lat="50.66346" lon="5.17456">
        <ele>126</ele>
        <time>2019-03-26T18:08:53Z</time>
      </trkpt>
      <trkpt lat="50.66319" lon="5.17462">
        <ele>126</ele>
        <time>2019-03-26T18:09:53Z</time>
      </trkpt>
      <trkpt lat="50.66297" lon="5.17469">
        <ele>126</ele>
        <time>2019-03-26T18:10:53Z</time>
      </trkpt>
      <trkpt lat="50.66244" lon="5.17486">
        <ele>127</ele>
        <time>2019-03-26T18:11:53Z</time>
      </trkpt>
      <trkpt lat="50.6608" lon="5.17582">
        <ele>127</ele>
        <time>2019-03-26T18:12:53Z</time>
      </trkpt>
      <trkpt lat="50.66058" lon="5.17595">
        <ele>127</ele>
        <time>2019-03-26T18:13:53Z</time>
      </trkpt>
      <trkpt lat="50.66043" lon="5.17589">
        <ele>127</ele>
        <time>2019-03-26T18:14:53Z</time>
      </trkpt>
      <trkpt lat="50.65998" lon="5.17574">
        <ele>127</ele>
        <time>2019-03-26T18:15:53Z</time>
      </trkpt>
      <trkpt lat="50.65981" lon="5.17571">
        <ele>127</ele>
        <time>2019-03-26T18:16:53Z</time>
      </trkpt>
      <trkpt lat="50.65976" lon="5.17579">
        <ele>127</ele>
        <time>2019-03-26T18:17:53Z</time>
      </trkpt>
      <trkpt lat="50.65965" lon="5.17604">
        <ele>127</ele>
        <time>2019-03-26T18:18:53Z</time>
      </trkpt>
      <trkpt lat="50.65935" lon="5.17668">
        <ele>126</ele>
        <time>2019-03-26T18:19:53Z</time>
      </trkpt>
      <trkpt lat="50.65923" lon="5.17696">
        <ele>126</ele>
        <time>2019-03-26T18:20:53Z</time>
      </trkpt>
      <trkpt lat="50.65902" lon="5.17751">
        <ele>128</ele>
        <time>2019-03-26T18:21:53Z</time>
      </trkpt>
      <trkpt lat="50.65898" lon="5.17767">
        <ele>128</ele>
        <time>2019-03-26T18:22:53Z</time>
      </trkpt>
      <trkpt lat="50.65901" lon="5.17799">
        <ele>129</ele>
        <time>2019-03-26T18:23:53Z</time>
      </trkpt>
      <trkpt lat="50.65906" lon="5.17835">
        <ele>130</ele>
        <time>2019-03-26T18:24:53Z</time>
      </trkpt>
      <trkpt lat="50.65915" lon="5.1789">
        <ele>131</ele>
        <time>2019-03-26T18:25:53Z</time>
      </trkpt>
      <trkpt lat="50.65919" lon="5.17916">
        <ele>131</ele>
        <time>2019-03-26T18:26:53Z</time>
      </trkpt>
      <trkpt lat="50.65934" lon="5.17952">
        <ele>130</ele>
        <time>2019-03-26T18:27:53Z</time>
      </trkpt>
      <trkpt lat="50.65966" lon="5.18011">
        <ele>129</ele>
        <time>2019-03-26T18:28:53Z</time>
      </trkpt>
      <trkpt lat="50.66001" lon="5.18076">
        <ele>128</ele>
        <time>2019-03-26T18:29:53Z</time>
      </trkpt>
      <trkpt lat="50.66024" lon="5.18108">
        <ele>128</ele>
        <time>2019-03-26T18:30:53Z</time>
      </trkpt>
      <trkpt lat="50.66069" lon="5.18155">
        <ele>129</ele>
        <time>2019-03-26T18:31:53Z</time>
      </trkpt>
      <trkpt lat="50.66122" lon="5.18203">
        <ele>129</ele>
        <time>2019-03-26T18:32:53Z</time>
      </trkpt>
      <trkpt lat="50.66149" lon="5.18227">
        <ele>128</ele>
        <time>2019-03-26T18:33:53Z</time>
      </trkpt>
      <trkpt lat="50.66156" lon="5.18241">
        <ele>128</ele>
        <time>2019-03-26T18:34:53Z</time>
      </trkpt>
      <trkpt lat="50.66166" lon="5.18266">
        <ele>128</ele>
        <time>2019-03-26T18:35:53Z</time>
      </trkpt>
      <trkpt lat="50.66178" lon="5.18293">
        <ele>128</ele>
        <time>2019-03-26T18:36:53Z</time>
      </trkpt>
      <trkpt lat="50.66196" lon="5.18322">
        <ele>127</ele>
        <time>2019-03-26T18:37:53Z</time>
      </trkpt>
      <trkpt lat="50.66208" lon="5.18337">
        <ele>127</ele>
        <time>2019-03-26T18:38:53Z</time>
      </trkpt>
      <trkpt lat="50.66232" lon="5.18364">
        <ele>127</ele>
        <time>2019-03-26T18:39:53Z</time>
      </trkpt>
      <trkpt lat="50.66239" lon="5.18377">
        <ele>127</ele>
        <time>2019-03-26T18:40:53Z</time>
      </trkpt>
      <trkpt lat="50.66247" lon="5.18392">
        <ele>127</ele>
        <time>2019-03-26T18:41:53Z</time>
      </trkpt>
      <trkpt lat="50.66263" lon="5.1844">
        <ele>127</ele>
        <time>2019-03-26T18:42:53Z</time>
      </trkpt>
      <trkpt lat="50.66271" lon="5.18465">
        <ele>127</ele>
        <time>2019-03-26T18:43:53Z</time>
      </trkpt>
      <trkpt lat="50.66278" lon="5.18483">
        <ele>127</ele>
        <time>2019-03-26T18:44:53Z</time>
      </trkpt>
      <trkpt lat="50.6629" lon="5.1851">
        <ele>127</ele>
        <time>2019-03-26T18:45:53Z</time>
      </trkpt>
      <trkpt lat="50.66312" lon="5.18537">
        <ele>126</ele>
        <time>2019-03-26T18:46:53Z</time>
      </trkpt>
      <trkpt lat="50.6633" lon="5.18554">
        <ele>126</ele>
        <time>2019-03-26T18:47:53Z</time>
      </trkpt>
      <trkpt lat="50.66369" lon="5.18586">
        <ele>126</ele>
        <time>2019-03-26T18:48:53Z</time>
      </trkpt>
      <trkpt lat="50.66426" lon="5.18634">
        <ele>127</ele>
        <time>2019-03-26T18:49:53Z</time>
      </trkpt>
      <trkpt lat="50.66442" lon="5.18649">
        <ele>127</ele>
        <time>2019-03-26T18:50:53Z</time>
      </trkpt>
      <trkpt lat="50.66451" lon="5.18658">
        <ele>127</ele>
        <time>2019-03-26T18:51:53Z</time>
      </trkpt>
      <trkpt lat="50.66457" lon="5.18668">
        <ele>127</ele>
        <time>2019-03-26T18:52:53Z</time>
      </trkpt>
      <trkpt lat="50.66464" lon="5.18683">
        <ele>127</ele>
        <time>2019-03-26T18:53:53Z</time>
      </trkpt>
      <trkpt lat="50.66468" lon="5.18695">
        <ele>127</ele>
        <time>2019-03-26T18:54:53Z</time>
      </trkpt>
      <trkpt lat="50.66469" lon="5.18714">
        <ele>127</ele>
        <time>2019-03-26T18:55:53Z</time>
      </trkpt>
      <trkpt lat="50.66468" lon="5.18724">
        <ele>127</ele>
        <time>2019-03-26T18:56:53Z</time>
      </trkpt>
      <trkpt lat="50.66474" lon="5.18732">
        <ele>127</ele>
        <time>2019-03-26T18:57:53Z</time>
      </trkpt>
      <trkpt lat="50.66487" lon="5.18754">
        <ele>127</ele>
        <time>2019-03-26T18:58:53Z</time>
      </trkpt>
      <trkpt lat="50.66514" lon="5.18794">
        <ele>127</ele>
        <time>2019-03-26T18:59:53Z</time>
      </trkpt>
      <trkpt lat="50.66593" lon="5.18915">
        <ele>129</ele>
        <time>2019-03-26T19:00:53Z</time>
      </trkpt>
      <trkpt lat="50.66622" lon="5.18966">
        <ele>130</ele>
        <time>2019-03-26T19:01:53Z</time>
      </trkpt>
      <trkpt lat="50.66643" lon="5.19008">
        <ele>131</ele>
        <time>2019-03-26T19:02:53Z</time>
      </trkpt>
      <trkpt lat="50.66656" lon="5.19036">
        <ele>130</ele>
        <time>2019-03-26T19:03:53Z</time>
      </trkpt>
      <trkpt lat="50.66684" lon="5.19095">
        <ele>128</ele>
        <time>2019-03-26T19:04:53Z</time>
      </trkpt>
      <trkpt lat="50.66716" lon="5.19173">
        <ele>124</ele>
        <time>2019-03-26T19:05:53Z</time>
      </trkpt>
      <trkpt lat="50.66724" lon="5.19188">
        <ele>124</ele>
        <time>2019-03-26T19:06:53Z</time>
      </trkpt>
      <trkpt lat="50.66733" lon="5.19196">
        <ele>124</ele>
        <time>2019-03-26T19:07:53Z</time>
      </trkpt>
      <trkpt lat="50.66744" lon="5.1921">
        <ele>124</ele>
        <time>2019-03-26T19:08:53Z</time>
      </trkpt>
      <trkpt lat="50.66764" lon="5.1923">
        <ele>123</ele>
        <time>2019-03-26T19:09:53Z</time>
      </trkpt>
      <trkpt lat="50.66796" lon="5.19265">
        <ele>124</ele>
        <time>2019-03-26T19:10:53Z</time>
      </trkpt>
      <trkpt lat="50.66823" lon="5.19292">
        <ele>124</ele>
        <time>2019-03-26T19:11:53Z</time>
      </trkpt>
      <trkpt lat="50.66841" lon="5.19311">
        <ele>125</ele>
        <time>2019-03-26T19:12:53Z</time>
      </trkpt>
      <trkpt lat="50.66862" lon="5.19334">
        <ele>124</ele>
        <time>2019-03-26T19:13:53Z</time>
      </trkpt>
      <trkpt lat="50.66874" lon="5.1935">
        <ele>124</ele>
        <time>2019-03-26T19:14:53Z</time>
      </trkpt>
      <trkpt lat="50.66894" lon="5.19385">
        <ele>124</ele>
        <time>2019-03-26T19:15:53Z</time>
      </trkpt>
      <trkpt lat="50.6692" lon="5.19439">
        <ele>124</ele>
        <time>2019-03-26T19:16:53Z</time>
      </trkpt>
      <trkpt lat="50.66938" lon="5.19473">
        <ele>125</ele>
        <time>2019-03-26T19:17:53Z</time>
      </trkpt>
      <trkpt lat="50.66966" lon="5.19529">
        <ele>125</ele>
        <time>2019-03-26T19:18:53Z</time>
      </trkpt>
      <trkpt lat="50.66996" lon="5.19591">
        <ele>125</ele>
        <time>2019-03-26T19:19:53Z</time>
      </trkpt>
      <trkpt lat="50.67029" lon="5.19658">
        <ele>125</ele>
        <time>2019-03-26T19:20:53Z</time>
      </trkpt>
      <trkpt lat="50.67067" lon="5.19734">
        <ele>124</ele>
        <time>2019-03-26T19:21:53Z</time>
      </trkpt>
      <trkpt lat="50.67079" lon="5.19757">
        <ele>123</ele>
        <time>2019-03-26T19:22:53Z</time>
      </trkpt>
      <trkpt lat="50.67109" lon="5.19819">
        <ele>123</ele>
        <time>2019-03-26T19:23:53Z</time>
      </trkpt>
      <trkpt lat="50.67127" lon="5.19852">
        <ele>122</ele>
        <time>2019-03-26T19:24:53Z</time>
      </trkpt>
      <trkpt lat="50.67182" lon="5.19967">
        <ele>121</ele>
        <time>2019-03-26T19:25:53Z</time>
      </trkpt>
      <trkpt lat="50.67194" lon="5.19988">
        <ele>122</ele>
        <time>2019-03-26T19:26:53Z</time>
      </trkpt>
      <trkpt lat="50.67202" lon="5.19992">
        <ele>122</ele>
        <time>2019-03-26T19:27:53Z</time>
      </trkpt>
      <trkpt lat="50.67221" lon="5.19998">
        <ele>122</ele>
        <time>2019-03-26T19:28:53Z</time>
      </trkpt>
      <trkpt lat="50.67236" lon="5.19997">
        <ele>122</ele>
        <time>2019-03-26T19:29:53Z</time>
      </trkpt>
      <trkpt lat="50.67306" lon="5.19996">
        <ele>121</ele>
        <time>2019-03-26T19:30:53Z</time>
      </trkpt>
      <trkpt lat="50.67313" lon="5.19995">
        <ele>121</ele>
        <time>2019-03-26T19:31:53Z</time>
      </trkpt>
      <trkpt lat="50.6732" lon="5.1999">
        <ele>121</ele>
        <time>2019-03-26T19:32:53Z</time>
      </trkpt>
      <trkpt lat="50.67337" lon="5.19965">
        <ele>121</ele>
        <time>2019-03-26T19:33:53Z</time>
      </trkpt>
      <trkpt lat="50.67349" lon="5.19951">
        <ele>121</ele>
        <time>2019-03-26T19:34:53Z</time>
      </trkpt>
      <trkpt lat="50.67376" lon="5.19916">
        <ele>121</ele>
        <time>2019-03-26T19:35:53Z</time>
      </trkpt>
      <trkpt lat="50.67388" lon="5.19909">
        <ele>121</ele>
        <time>2019-03-26T19:36:53Z</time>
      </trkpt>
      <trkpt lat="50.67401" lon="5.19907">
        <ele>121</ele>
        <time>2019-03-26T19:37:53Z</time>
      </trkpt>
      <trkpt lat="50.67447" lon="5.19919">
        <ele>121</ele>
        <time>2019-03-26T19:38:53Z</time>
      </trkpt>
      <trkpt lat="50.67459" lon="5.19933">
        <ele>122</ele>
        <time>2019-03-26T19:39:53Z</time>
      </trkpt>
      <trkpt lat="50.67467" lon="5.19954">
        <ele>122</ele>
        <time>2019-03-26T19:40:53Z</time>
      </trkpt>
      <trkpt lat="50.67484" lon="5.2001">
        <ele>122</ele>
        <time>2019-03-26T19:41:53Z</time>
      </trkpt>
      <trkpt lat="50.67496" lon="5.20064">
        <ele>123</ele>
        <time>2019-03-26T19:42:53Z</time>
      </trkpt>
      <trkpt lat="50.67502" lon="5.20081">
        <ele>123</ele>
        <time>2019-03-26T19:43:53Z</time>
      </trkpt>
      <trkpt lat="50.6751" lon="5.20088">
        <ele>123</ele>
        <time>2019-03-26T19:44:53Z</time>
      </trkpt>
      <trkpt lat="50.6752" lon="5.2009">
        <ele>123</ele>
        <time>2019-03-26T19:45:53Z</time>
      </trkpt>
      <trkpt lat="50.67562" lon="5.20073">
        <ele>124</ele>
        <time>2019-03-26T19:46:53Z</time>
      </trkpt>
      <trkpt lat="50.6758" lon="5.20065">
        <ele>124</ele>
        <time>2019-03-26T19:47:53Z</time>
      </trkpt>
      <trkpt lat="50.67598" lon="5.20164">
        <ele>125</ele>
        <time>2019-03-26T19:48:53Z</time>
      </trkpt>
      <trkpt lat="50.67611" lon="5.20234">
        <ele>126</ele>
        <time>2019-03-26T19:49:53Z</time>
      </trkpt>
      <trkpt lat="50.67661" lon="5.20391">
        <ele>127</ele>
        <time>2019-03-26T19:50:53Z</time>
      </trkpt>
      <trkpt lat="50.6768" lon="5.20461">
        <ele>126</ele>
        <time>2019-03-26T19:51:53Z</time>
      </trkpt>
      <trkpt lat="50.67682" lon="5.2048">
        <ele>126</ele>
        <time>2019-03-26T19:52:53Z</time>
      </trkpt>
      <trkpt lat="50.67679" lon="5.20499">
        <ele>126</ele>
        <time>2019-03-26T19:53:53Z</time>
      </trkpt>
      <trkpt lat="50.67674" lon="5.20511">
        <ele>126</ele>
        <time>2019-03-26T19:54:53Z</time>
      </trkpt>
      <trkpt lat="50.67661" lon="5.20539">
        <ele>126</ele>
        <time>2019-03-26T19:55:53Z</time>
      </trkpt>
      <trkpt lat="50.67651" lon="5.20575">
        <ele>126</ele>
        <time>2019-03-26T19:56:53Z</time>
      </trkpt>
      <trkpt lat="50.67649" lon="5.20619">
        <ele>125</ele>
        <time>2019-03-26T19:57:53Z</time>
      </trkpt>
      <trkpt lat="50.67651" lon="5.20637">
        <ele>125</ele>
        <time>2019-03-26T19:58:53Z</time>
      </trkpt>
      <trkpt lat="50.67655" lon="5.20689">
        <ele>124</ele>
        <time>2019-03-26T19:59:53Z</time>
      </trkpt>
      <trkpt lat="50.6766" lon="5.20734">
        <ele>123</ele>
        <time>2019-03-26T20:00:53Z</time>
      </trkpt>
      <trkpt lat="50.67665" lon="5.20789">
        <ele>123</ele>
        <time>2019-03-26T20:01:53Z</time>
      </trkpt>
      <trkpt lat="50.6767" lon="5.2089">
        <ele>122</ele>
        <time>2019-03-26T20:02:53Z</time>
      </trkpt>
      <trkpt lat="50.67669" lon="5.20917">
        <ele>122</ele>
        <time>2019-03-26T20:03:53Z</time>
      </trkpt>
      <trkpt lat="50.67665" lon="5.20936">
        <ele>122</ele>
        <time>2019-03-26T20:04:53Z</time>
      </trkpt>
      <trkpt lat="50.67661" lon="5.2096">
        <ele>121</ele>
        <time>2019-03-26T20:05:53Z</time>
      </trkpt>
      <trkpt lat="50.67658" lon="5.20971">
        <ele>121</ele>
        <time>2019-03-26T20:06:53Z</time>
      </trkpt>
      <trkpt lat="50.67649" lon="5.20992">
        <ele>121</ele>
        <time>2019-03-26T20:07:53Z</time>
      </trkpt>
      <trkpt lat="50.67637" lon="5.21004">
        <ele>120</ele>
        <time>2019-03-26T20:08:53Z</time>
      </trkpt>
      <trkpt lat="50.67627" lon="5.2101">
        <ele>120</ele>
        <time>2019-03-26T20:09:53Z</time>
      </trkpt>
      <trkpt lat="50.676" lon="5.21035">
        <ele>119</ele>
        <time>2019-03-26T20:10:53Z</time>
      </trkpt>
      <trkpt lat="50.67578" lon="5.21053">
        <ele>118</ele>
        <time>2019-03-26T20:11:53Z</time>
      </trkpt>
      <trkpt lat="50.67564" lon="5.21066">
        <ele>118</ele>
        <time>2019-03-26T20:12:53Z</time>
      </trkpt>
      <trkpt lat="50.67418" lon="5.21214">
        <ele>119</ele>
        <time>2019-03-26T20:13:53Z</time>
      </trkpt>
      <trkpt lat="50.67377" lon="5.21255">
        <ele>120</ele>
        <time>2019-03-26T20:14:53Z</time>
      </trkpt>
      <trkpt lat="50.67372" lon="5.21261">
        <ele>120</ele>
        <time>2019-03-26T20:15:53Z</time>
      </trkpt>
      <trkpt lat="50.67353" lon="5.21279">
        <ele>121</ele>
        <time>2019-03-26T20:16:53Z</time>
      </trkpt>
      <trkpt lat="50.67361" lon="5.21303">
        <ele>121</ele>
        <time>2019-03-26T20:17:53Z</time>
      </trkpt>
      <trkpt lat="50.67373" lon="5.21342">
        <ele>121</ele>
        <time>2019-03-26T20:18:53Z</time>
      </trkpt>
      <trkpt lat="50.6738" lon="5.21371">
        <ele>121</ele>
        <time>2019-03-26T20:19:53Z</time>
      </trkpt>
      <trkpt lat="50.67385" lon="5.21391">
        <ele>121</ele>
        <time>2019-03-26T20:20:53Z</time>
      </trkpt>
      <trkpt lat="50.67386" lon="5.21424">
        <ele>121</ele>
        <time>2019-03-26T20:21:53Z</time>
      </trkpt>
      <trkpt lat="50.67383" lon="5.21469">
        <ele>122</ele>
        <time>2019-03-26T20:22:53Z</time>
      </trkpt>
      <trkpt lat="50.67371" lon="5.21574">
        <ele>122</ele>
        <time>2019-03-26T20:23:53Z</time>
      </trkpt>
      <trkpt lat="50.67377" lon="5.21615">
        <ele>121</ele>
        <time>2019-03-26T20:24:53Z</time>
      </trkpt>
      <trkpt lat="50.67395" lon="5.21663">
        <ele>121</ele>
        <time>2019-03-26T20:25:53Z</time>
      </trkpt>
      <trkpt lat="50.67422" lon="5.21741">
        <ele>119</ele>
        <time>2019-03-26T20:26:53Z</time>
      </trkpt>
      <trkpt lat="50.67443" lon="5.2183">
        <ele>119</ele>
        <time>2019-03-26T20:27:53Z</time>
      </trkpt>
      <trkpt lat="50.67461" lon="5.21905">
        <ele>119</ele>
        <time>2019-03-26T20:28:53Z</time>
      </trkpt>
      <trkpt lat="50.67456" lon="5.2192">
        <ele>120</ele>
        <time>2019-03-26T20:29:53Z</time>
      </trkpt>
      <trkpt lat="50.67454" lon="5.21939">
        <ele>120</ele>
        <time>2019-03-26T20:30:53Z</time>
      </trkpt>
      <trkpt lat="50.67444" lon="5.21952">
        <ele>120</ele>
        <time>2019-03-26T20:31:53Z</time>
      </trkpt>
      <trkpt lat="50.67432" lon="5.21964">
        <ele>120</ele>
        <time>2019-03-26T20:32:53Z</time>
      </trkpt>
      <trkpt lat="50.67412" lon="5.21987">
        <ele>120</ele>
        <time>2019-03-26T20:33:53Z</time>
      </trkpt>
      <trkpt lat="50.67394" lon="5.2201">
        <ele>120</ele>
        <time>2019-03-26T20:34:53Z</time>
      </trkpt>
      <trkpt lat="50.67381" lon="5.22038">
        <ele>119</ele>
        <time>2019-03-26T20:35:53Z</time>
      </trkpt>
      <trkpt lat="50.67371" lon="5.22062">
        <ele>119</ele>
        <time>2019-03-26T20:36:53Z</time>
      </trkpt>
      <trkpt lat="50.67323" lon="5.22211">
        <ele>120</ele>
        <time>2019-03-26T20:37:53Z</time>
      </trkpt>
      <trkpt lat="50.67301" lon="5.22274">
        <ele>119</ele>
        <time>2019-03-26T20:38:53Z</time>
      </trkpt>
      <trkpt lat="50.67287" lon="5.223">
        <ele>119</ele>
        <time>2019-03-26T20:39:53Z</time>
      </trkpt>
      <trkpt lat="50.67271" lon="5.2233">
        <ele>119</ele>
        <time>2019-03-26T20:40:53Z</time>
      </trkpt>
      <trkpt lat="50.67255" lon="5.2235">
        <ele>119</ele>
        <time>2019-03-26T20:41:53Z</time>
      </trkpt>
      <trkpt lat="50.67208" lon="5.22411">
        <ele>121</ele>
        <time>2019-03-26T20:42:53Z</time>
      </trkpt>
      <trkpt lat="50.6717" lon="5.22463">
        <ele>121</ele>
        <time>2019-03-26T20:43:53Z</time>
      </trkpt>
      <trkpt lat="50.6712" lon="5.22528">
        <ele>121</ele>
        <time>2019-03-26T20:44:53Z</time>
      </trkpt>
      <trkpt lat="50.67095" lon="5.22561">
        <ele>121</ele>
        <time>2019-03-26T20:45:53Z</time>
      </trkpt>
      <trkpt lat="50.67061" lon="5.22604">
        <ele>122</ele>
        <time>2019-03-26T20:46:53Z</time>
      </trkpt>
      <trkpt lat="50.67029" lon="5.22647">
        <ele>122</ele>
        <time>2019-03-26T20:47:53Z</time>
      </trkpt>
      <trkpt lat="50.67022" lon="5.2264">
        <ele>122</ele>
        <time>2019-03-26T20:48:53Z</time>
      </trkpt>
      <trkpt lat="50.67012" lon="5.22639">
        <ele>123</ele>
        <time>2019-03-26T20:49:53Z</time>
      </trkpt>
      <trkpt lat="50.67004" lon="5.22652">
        <ele>123</ele>
        <time>2019-03-26T20:50:53Z</time>
      </trkpt>
      <trkpt lat="50.67002" lon="5.22661">
        <ele>123</ele>
        <time>2019-03-26T20:51:53Z</time>
      </trkpt>
      <trkpt lat="50.67005" lon="5.22679">
        <ele>123</ele>
        <time>2019-03-26T20:52:53Z</time>
      </trkpt>
      <trkpt lat="50.66992" lon="5.22695">
        <ele>123</ele>
        <time>2019-03-26T20:53:53Z</time>
      </trkpt>
      <trkpt lat="50.66968" lon="5.22724">
        <ele>123</ele>
        <time>2019-03-26T20:54:53Z</time>
      </trkpt>
      <trkpt lat="50.66944" lon="5.22757">
        <ele>123</ele>
        <time>2019-03-26T20:55:53Z</time>
      </trkpt>
      <trkpt lat="50.66933" lon="5.22768">
        <ele>123</ele>
        <time>2019-03-26T20:56:53Z</time>
      </trkpt>
      <trkpt lat="50.66833" lon="5.22612">
        <ele>125</ele>
        <time>2019-03-26T20:57:53Z</time>
      </trkpt>
      <trkpt lat="50.66813" lon="5.22579">
        <ele>125</ele>
        <time>2019-03-26T20:58:53Z</time>
      </trkpt>
      <trkpt lat="50.66793" lon="5.22553">
        <ele>126</ele>
        <time>2019-03-26T20:59:53Z</time>
      </trkpt>
      <trkpt lat="50.66785" lon="5.22541">
        <ele>126</ele>
        <time>2019-03-26T21:00:53Z</time>
      </trkpt>
      <trkpt lat="50.66777" lon="5.22549">
        <ele>126</ele>
        <time>2019-03-26T21:01:53Z</time>
      </trkpt>
      <trkpt lat="50.66766" lon="5.22555">
        <ele>126</ele>
        <time>2019-03-26T21:02:53Z</time>
      </trkpt>
      <trkpt lat="50.66706" lon="5.22598">
        <ele>126</ele>
        <time>2019-03-26T21:03:53Z</time>
      </trkpt>
      <trkpt lat="50.66653" lon="5.22635">
        <ele>126</ele>
        <time>2019-03-26T21:04:53Z</time>
      </trkpt>
      <trkpt lat="50.66646" lon="5.22642">
        <ele>126</ele>
        <time>2019-03-26T21:05:53Z</time>
      </trkpt>
      <trkpt lat="50.66625" lon="5.22664">
        <ele>126</ele>
        <time>2019-03-26T21:06:53Z</time>
      </trkpt>
      <trkpt lat="50.66603" lon="5.22689">
        <ele>126</ele>
        <time>2019-03-26T21:07:53Z</time>
      </trkpt>
      <trkpt lat="50.66565" lon="5.22748">
        <ele>125</ele>
        <time>2019-03-26T21:08:53Z</time>
      </trkpt>
      <trkpt lat="50.6648" lon="5.2289">
        <ele>125</ele>
        <time>2019-03-26T21:09:53Z</time>
      </trkpt>
      <trkpt lat="50.66459" lon="5.22923">
        <ele>125</ele>
        <time>2019-03-26T21:10:53Z</time>
      </trkpt>
      <trkpt lat="50.66439" lon="5.2296">
        <ele>125</ele>
        <time>2019-03-26T21:11:53Z</time>
      </trkpt>
      <trkpt lat="50.66404" lon="5.23019">
        <ele>125</ele>
        <time>2019-03-26T21:12:53Z</time>
      </trkpt>
      <trkpt lat="50.66327" lon="5.23142">
        <ele>126</ele>
        <time>2019-03-26T21:13:53Z</time>
      </trkpt>
      <trkpt lat="50.66289" lon="5.23197">
        <ele>128</ele>
        <time>2019-03-26T21:14:53Z</time>
      </trkpt>
      <trkpt lat="50.66265" lon="5.23229">
        <ele>129</ele>
        <time>2019-03-26T21:15:53Z</time>
      </trkpt>
      <trkpt lat="50.66218" lon="5.23288">
        <ele>129</ele>
        <time>2019-03-26T21:16:53Z</time>
      </trkpt>
      <trkpt lat="50.66146" lon="5.23372">
        <ele>131</ele>
        <time>2019-03-26T21:17:53Z</time>
      </trkpt>
      <trkpt lat="50.66105" lon="5.2342">
        <ele>132</ele>
        <time>2019-03-26T21:18:53Z</time>
      </trkpt>
      <trkpt lat="50.6604" lon="5.23494">
        <ele>133</ele>
        <time>2019-03-26T21:19:53Z</time>
      </trkpt>
      <trkpt lat="50.66031" lon="5.23506">
        <ele>134</ele>
        <time>2019-03-26T21:20:53Z</time>
      </trkpt>
      <trkpt lat="50.6601" lon="5.23498">
        <ele>134</ele>
        <time>2019-03-26T21:21:53Z</time>
      </trkpt>
      <trkpt lat="50.65991" lon="5.23489">
        <ele>134</ele>
        <time>2019-03-26T21:22:53Z</time>
      </trkpt>
      <trkpt lat="50.65954" lon="5.23474">
        <ele>134</ele>
        <time>2019-03-26T21:23:53Z</time>
      </trkpt>
      <trkpt lat="50.65935" lon="5.23483">
        <ele>134</ele>
        <time>2019-03-26T21:24:53Z</time>
      </trkpt>
      <trkpt lat="50.65917" lon="5.23498">
        <ele>135</ele>
        <time>2019-03-26T21:25:53Z</time>
      </trkpt>
      <trkpt lat="50.65856" lon="5.23554">
        <ele>136</ele>
        <time>2019-03-26T21:26:53Z</time>
      </trkpt>
      <trkpt lat="50.65838" lon="5.23571">
        <ele>136</ele>
        <time>2019-03-26T21:27:53Z</time>
      </trkpt>
      <trkpt lat="50.65698" lon="5.23696">
        <ele>138</ele>
        <time>2019-03-26T21:28:53Z</time>
      </trkpt>
      <trkpt lat="50.6567" lon="5.23718">
        <ele>138</ele>
        <time>2019-03-26T21:29:53Z</time>
      </trkpt>
      <trkpt lat="50.65644" lon="5.23733">
        <ele>138</ele>
        <time>2019-03-26T21:30:53Z</time>
      </trkpt>
      <trkpt lat="50.65593" lon="5.23747">
        <ele>138</ele>
        <time>2019-03-26T21:31:53Z</time>
      </trkpt>
      <trkpt lat="50.65556" lon="5.23753">
        <ele>138</ele>
        <time>2019-03-26T21:32:53Z</time>
      </trkpt>
      <trkpt lat="50.65536" lon="5.23751">
        <ele>139</ele>
        <time>2019-03-26T21:33:53Z</time>
      </trkpt>
      <trkpt lat="50.65532" lon="5.23809">
        <ele>139</ele>
        <time>2019-03-26T21:34:53Z</time>
      </trkpt>
      <trkpt lat="50.65531" lon="5.23838">
        <ele>139</ele>
        <time>2019-03-26T21:35:53Z</time>
      </trkpt>
      <trkpt lat="50.65524" lon="5.23872">
        <ele>139</ele>
        <time>2019-03-26T21:36:53Z</time>
      </trkpt>
      <trkpt lat="50.65513" lon="5.23926">
        <ele>140</ele>
        <time>2019-03-26T21:37:53Z</time>
      </trkpt>
      <trkpt lat="50.65489" lon="5.24057">
        <ele>143</ele>
        <time>2019-03-26T21:38:53Z</time>
      </trkpt>
      <trkpt lat="50.65479" lon="5.24119">
        <ele>144</ele>
        <time>2019-03-26T21:39:53Z</time>
      </trkpt>
      <trkpt lat="50.65475" lon="5.24157">
        <ele>144</ele>
        <time>2019-03-26T21:40:53Z</time>
      </trkpt>
      <trkpt lat="50.65475" lon="5.24188">
        <ele>145</ele>
        <time>2019-03-26T21:41:53Z</time>
      </trkpt>
      <trkpt lat="50.65471" lon="5.24291">
        <ele>147</ele>
        <time>2019-03-26T21:42:53Z</time>
      </trkpt>
      <trkpt lat="50.65467" lon="5.24323">
        <ele>147</ele>
        <time>2019-03-26T21:43:53Z</time>
      </trkpt>
      <trkpt lat="50.65463" lon="5.24336">
        <ele>147</ele>
        <time>2019-03-26T21:44:53Z</time>
      </trkpt>
      <trkpt lat="50.65442" lon="5.2438">
        <ele>148</ele>
        <time>2019-03-26T21:45:53Z</time>
      </trkpt>
      <trkpt lat="50.65419" lon="5.24426">
        <ele>148</ele>
        <time>2019-03-26T21:46:53Z</time>
      </trkpt>
      <trkpt lat="50.65392" lon="5.24475">
        <ele>146</ele>
        <time>2019-03-26T21:47:53Z</time>
      </trkpt>
      <trkpt lat="50.65381" lon="5.245">
        <ele>145</ele>
        <time>2019-03-26T21:48:53Z</time>
      </trkpt>
      <trkpt lat="50.65371" lon="5.24532">
        <ele>144</ele>
        <time>2019-03-26T21:49:53Z</time>
      </trkpt>
      <trkpt lat="50.65365" lon="5.24556">
        <ele>143</ele>
        <time>2019-03-26T21:50:53Z</time>
      </trkpt>
      <trkpt lat="50.6536" lon="5.2458">
        <ele>142</ele>
        <time>2019-03-26T21:51:53Z</time>
      </trkpt>
      <trkpt lat="50.65353" lon="5.24597">
        <ele>142</ele>
        <time>2019-03-26T21:52:53Z</time>
      </trkpt>
      <trkpt lat="50.65354" lon="5.24615">
        <ele>142</ele>
        <time>2019-03-26T21:53:53Z</time>
      </trkpt>
      <trkpt lat="50.65346" lon="5.24631">
        <ele>141</ele>
        <time>2019-03-26T21:54:53Z</time>
      </trkpt>
      <trkpt lat="50.65331" lon="5.2466">
        <ele>141</ele>
        <time>2019-03-26T21:55:53Z</time>
      </trkpt>
      <trkpt lat="50.65314" lon="5.24687">
        <ele>141</ele>
        <time>2019-03-26T21:56:53Z</time>
      </trkpt>
      <trkpt lat="50.65302" lon="5.24702">
        <ele>141</ele>
        <time>2019-03-26T21:57:53Z</time>
      </trkpt>
      <trkpt lat="50.65288" lon="5.24712">
        <ele>141</ele>
        <time>2019-03-26T21:58:53Z</time>
      </trkpt>
      <trkpt lat="50.65273" lon="5.24718">
        <ele>141</ele>
        <time>2019-03-26T21:59:53Z</time>
      </trkpt>
      <trkpt lat="50.65251" lon="5.24725">
        <ele>141</ele>
        <time>2019-03-26T22:00:53Z</time>
      </trkpt>
      <trkpt lat="50.6523" lon="5.24739">
        <ele>141</ele>
        <time>2019-03-26T22:01:53Z</time>
      </trkpt>
      <trkpt lat="50.65215" lon="5.24751">
        <ele>141</ele>
        <time>2019-03-26T22:02:53Z</time>
      </trkpt>
      <trkpt lat="50.652" lon="5.24768">
        <ele>142</ele>
        <time>2019-03-26T22:03:53Z</time>
      </trkpt>
      <trkpt lat="50.65151" lon="5.24836">
        <ele>142</ele>
        <time>2019-03-26T22:04:53Z</time>
      </trkpt>
      <trkpt lat="50.65131" lon="5.24864">
        <ele>143</ele>
        <time>2019-03-26T22:05:53Z</time>
      </trkpt>
      <trkpt lat="50.65114" lon="5.24891">
        <ele>144</ele>
        <time>2019-03-26T22:06:53Z</time>
      </trkpt>
      <trkpt lat="50.65098" lon="5.24938">
        <ele>144</ele>
        <time>2019-03-26T22:07:53Z</time>
      </trkpt>
      <trkpt lat="50.65073" lon="5.24999">
        <ele>144</ele>
        <time>2019-03-26T22:08:53Z</time>
      </trkpt>
      <trkpt lat="50.65045" lon="5.25064">
        <ele>144</ele>
        <time>2019-03-26T22:09:53Z</time>
      </trkpt>
      <trkpt lat="50.65029" lon="5.25105">
        <ele>144</ele>
        <time>2019-03-26T22:10:53Z</time>
      </trkpt>
      <trkpt lat="50.65019" lon="5.25118">
        <ele>144</ele>
        <time>2019-03-26T22:11:53Z</time>
      </trkpt>
      <trkpt lat="50.64985" lon="5.25156">
        <ele>143</ele>
        <time>2019-03-26T22:12:53Z</time>
      </trkpt>
      <trkpt lat="50.64949" lon="5.2519">
        <ele>143</ele>
        <time>2019-03-26T22:13:53Z</time>
      </trkpt>
      <trkpt lat="50.64918" lon="5.25215">
        <ele>142</ele>
        <time>2019-03-26T22:14:53Z</time>
      </trkpt>
      <trkpt lat="50.64892" lon="5.25235">
        <ele>142</ele>
        <time>2019-03-26T22:15:53Z</time>
      </trkpt>
      <trkpt lat="50.64868" lon="5.25255">
        <ele>143</ele>
        <time>2019-03-26T22:16:53Z</time>
      </trkpt>
      <trkpt lat="50.64842" lon="5.25286">
        <ele>143</ele>
        <time>2019-03-26T22:17:53Z</time>
      </trkpt>
      <trkpt lat="50.64805" lon="5.25343">
        <ele>144</ele>
        <time>2019-03-26T22:18:53Z</time>
      </trkpt>
      <trkpt lat="50.64774" lon="5.25391">
        <ele>145</ele>
        <time>2019-03-26T22:19:53Z</time>
      </trkpt>
      <trkpt lat="50.64741" lon="5.25446">
        <ele>147</ele>
        <time>2019-03-26T22:20:53Z</time>
      </trkpt>
      <trkpt lat="50.64704" lon="5.25502">
        <ele>149</ele>
        <time>2019-03-26T22:21:53Z</time>
      </trkpt>
      <trkpt lat="50.64664" lon="5.25566">
        <ele>151</ele>
        <time>2019-03-26T22:22:53Z</time>
      </trkpt>
      <trkpt lat="50.64637" lon="5.25607">
        <ele>152</ele>
        <time>2019-03-26T22:23:53Z</time>
      </trkpt>
      <trkpt lat="50.64588" lon="5.25688">
        <ele>154</ele>
        <time>2019-03-26T22:24:53Z</time>
      </trkpt>
      <trkpt lat="50.64575" lon="5.25709">
        <ele>154</ele>
        <time>2019-03-26T22:25:53Z</time>
      </trkpt>
      <trkpt lat="50.64567" lon="5.25728">
        <ele>154</ele>
        <time>2019-03-26T22:26:53Z</time>
      </trkpt>
      <trkpt lat="50.64549" lon="5.25768">
        <ele>154</ele>
        <time>2019-03-26T22:27:53Z</time>
      </trkpt>
      <trkpt lat="50.64516" lon="5.25862">
        <ele>153</ele>
        <time>2019-03-26T22:28:53Z</time>
      </trkpt>
      <trkpt lat="50.64489" lon="5.25936">
        <ele>151</ele>
        <time>2019-03-26T22:29:53Z</time>
      </trkpt>
      <trkpt lat="50.64469" lon="5.25992">
        <ele>149</ele>
        <time>2019-03-26T22:30:53Z</time>
      </trkpt>
      <trkpt lat="50.64442" lon="5.26062">
        <ele>149</ele>
        <time>2019-03-26T22:31:53Z</time>
      </trkpt>
      <trkpt lat="50.64422" lon="5.26116">
        <ele>149</ele>
        <time>2019-03-26T22:32:53Z</time>
      </trkpt>
      <trkpt lat="50.64384" lon="5.26205">
        <ele>151</ele>
        <time>2019-03-26T22:33:53Z</time>
      </trkpt>
      <trkpt lat="50.6438" lon="5.26213">
        <ele>151</ele>
        <time>2019-03-26T22:34:53Z</time>
      </trkpt>
      <trkpt lat="50.64364" lon="5.26239">
        <ele>152</ele>
        <time>2019-03-26T22:35:53Z</time>
      </trkpt>
      <trkpt lat="50.64356" lon="5.2625">
        <ele>152</ele>
        <time>2019-03-26T22:36:53Z</time>
      </trkpt>
      <trkpt lat="50.64337" lon="5.26278">
        <ele>152</ele>
        <time>2019-03-26T22:37:53Z</time>
      </trkpt>
      <trkpt lat="50.64324" lon="5.2631">
        <ele>151</ele>
        <time>2019-03-26T22:38:53Z</time>
      </trkpt>
      <trkpt lat="50.64317" lon="5.26328">
        <ele>151</ele>
        <time>2019-03-26T22:39:53Z</time>
      </trkpt>
      <trkpt lat="50.64311" lon="5.26354">
        <ele>151</ele>
        <time>2019-03-26T22:40:53Z</time>
      </trkpt>
      <trkpt lat="50.64306" lon="5.26377">
        <ele>150</ele>
        <time>2019-03-26T22:41:53Z</time>
      </trkpt>
      <trkpt lat="50.64289" lon="5.2649">
        <ele>150</ele>
        <time>2019-03-26T22:42:53Z</time>
      </trkpt>
      <trkpt lat="50.64284" lon="5.26521">
        <ele>150</ele>
        <time>2019-03-26T22:43:53Z</time>
      </trkpt>
      <trkpt lat="50.64278" lon="5.26552">
        <ele>150</ele>
        <time>2019-03-26T22:44:53Z</time>
      </trkpt>
      <trkpt lat="50.64272" lon="5.26569">
        <ele>150</ele>
        <time>2019-03-26T22:45:53Z</time>
      </trkpt>
      <trkpt lat="50.64255" lon="5.26616">
        <ele>150</ele>
        <time>2019-03-26T22:46:53Z</time>
      </trkpt>
      <trkpt lat="50.6423" lon="5.26675">
        <ele>151</ele>
        <time>2019-03-26T22:47:53Z</time>
      </trkpt>
      <trkpt lat="50.64215" lon="5.26712">
        <ele>153</ele>
        <time>2019-03-26T22:48:53Z</time>
      </trkpt>
      <trkpt lat="50.642" lon="5.26743">
        <ele>153</ele>
        <time>2019-03-26T22:49:53Z</time>
      </trkpt>
      <trkpt lat="50.64174" lon="5.26788">
        <ele>155</ele>
        <time>2019-03-26T22:50:53Z</time>
      </trkpt>
      <trkpt lat="50.64139" lon="5.26855">
        <ele>157</ele>
        <time>2019-03-26T22:51:53Z</time>
      </trkpt>
      <trkpt lat="50.64134" lon="5.26876">
        <ele>157</ele>
        <time>2019-03-26T22:52:53Z</time>
      </trkpt>
      <trkpt lat="50.64127" lon="5.26881">
        <ele>157</ele>
        <time>2019-03-26T22:53:53Z</time>
      </trkpt>
      <trkpt lat="50.64121" lon="5.2689">
        <ele>158</ele>
        <time>2019-03-26T22:54:53Z</time>
      </trkpt>
      <trkpt lat="50.64121" lon="5.26907">
        <ele>158</ele>
        <time>2019-03-26T22:55:53Z</time>
      </trkpt>
      <trkpt lat="50.64128" lon="5.26921">
        <ele>158</ele>
        <time>2019-03-26T22:56:53Z</time>
      </trkpt>
      <trkpt lat="50.64137" lon="5.26926">
        <ele>158</ele>
        <time>2019-03-26T22:57:53Z</time>
      </trkpt>
      <trkpt lat="50.6414" lon="5.26941">
        <ele>158</ele>
        <time>2019-03-26T22:58:53Z</time>
      </trkpt>
      <trkpt lat="50.64145" lon="5.26962">
        <ele>159</ele>
        <time>2019-03-26T22:59:53Z</time>
      </trkpt>
      <trkpt lat="50.64151" lon="5.26994">
        <ele>159</ele>
        <time>2019-03-26T23:00:53Z</time>
      </trkpt>
      <trkpt lat="50.64157" lon="5.27023">
        <ele>159</ele>
        <time>2019-03-26T23:01:53Z</time>
      </trkpt>
      <trkpt lat="50.64169" lon="5.27074">
        <ele>160</ele>
        <time>2019-03-26T23:02:53Z</time>
      </trkpt>
      <trkpt lat="50.64177" lon="5.27111">
        <ele>160</ele>
        <time>2019-03-26T23:03:53Z</time>
      </trkpt>
      <trkpt lat="50.64191" lon="5.27192">
        <ele>160</ele>
        <time>2019-03-26T23:04:53Z</time>
      </trkpt>
      <trkpt lat="50.64201" lon="5.27249">
        <ele>160</ele>
        <time>2019-03-26T23:05:53Z</time>
      </trkpt>
      <trkpt lat="50.64207" lon="5.27276">
        <ele>160</ele>
        <time>2019-03-26T23:06:53Z</time>
      </trkpt>
      <trkpt lat="50.64213" lon="5.27297">
        <ele>159</ele>
        <time>2019-03-26T23:07:53Z</time>
      </trkpt>
      <trkpt lat="50.64235" lon="5.27353">
        <ele>158</ele>
        <time>2019-03-26T23:08:53Z</time>
      </trkpt>
      <trkpt lat="50.64251" lon="5.27386">
        <ele>158</ele>
        <time>2019-03-26T23:09:53Z</time>
      </trkpt>
      <trkpt lat="50.64269" lon="5.27429">
        <ele>158</ele>
        <time>2019-03-26T23:10:53Z</time>
      </trkpt>
      <trkpt lat="50.64303" lon="5.27512">
        <ele>156</ele>
        <time>2019-03-26T23:11:53Z</time>
      </trkpt>
      <trkpt lat="50.64427" lon="5.27805">
        <ele>155</ele>
        <time>2019-03-26T23:12:53Z</time>
      </trkpt>
      <trkpt lat="50.6444" lon="5.27846">
        <ele>155</ele>
        <time>2019-03-26T23:13:53Z</time>
      </trkpt>
      <trkpt lat="50.6452" lon="5.28145">
        <ele>153</ele>
        <time>2019-03-26T23:14:53Z</time>
      </trkpt>
      <trkpt lat="50.64539" lon="5.28216">
        <ele>152</ele>
        <time>2019-03-26T23:15:53Z</time>
      </trkpt>
      <trkpt lat="50.64564" lon="5.28313">
        <ele>150</ele>
        <time>2019-03-26T23:16:53Z</time>
      </trkpt>
      <trkpt lat="50.64583" lon="5.28388">
        <ele>149</ele>
        <time>2019-03-26T23:17:53Z</time>
      </trkpt>
      <trkpt lat="50.64589" lon="5.28407">
        <ele>149</ele>
        <time>2019-03-26T23:18:53Z</time>
      </trkpt>
      <trkpt lat="50.64596" lon="5.28437">
        <ele>149</ele>
        <time>2019-03-26T23:19:53Z</time>
      </trkpt>
      <trkpt lat="50.64599" lon="5.28471">
        <ele>149</ele>
        <time>2019-03-26T23:20:53Z</time>
      </trkpt>
      <trkpt lat="50.64603" lon="5.28519">
        <ele>149</ele>
        <time>2019-03-26T23:21:53Z</time>
      </trkpt>
      <trkpt lat="50.64604" lon="5.28564">
        <ele>150</ele>
        <time>2019-03-26T23:22:53Z</time>
      </trkpt>
      <trkpt lat="50.64602" lon="5.28597">
        <ele>150</ele>
        <time>2019-03-26T23:23:53Z</time>
      </trkpt>
      <trkpt lat="50.646" lon="5.28655">
        <ele>152</ele>
        <time>2019-03-26T23:24:53Z</time>
      </trkpt>
      <trkpt lat="50.64597" lon="5.28684">
        <ele>152</ele>
        <time>2019-03-26T23:25:53Z</time>
      </trkpt>
      <trkpt lat="50.64596" lon="5.28729">
        <ele>153</ele>
        <time>2019-03-26T23:26:53Z</time>
      </trkpt>
      <trkpt lat="50.64593" lon="5.28777">
        <ele>154</ele>
        <time>2019-03-26T23:27:53Z</time>
      </trkpt>
      <trkpt lat="50.6459" lon="5.28836">
        <ele>155</ele>
        <time>2019-03-26T23:28:53Z</time>
      </trkpt>
      <trkpt lat="50.64588" lon="5.28902">
        <ele>157</ele>
        <time>2019-03-26T23:29:53Z</time>
      </trkpt>
      <trkpt lat="50.64581" lon="5.29037">
        <ele>158</ele>
        <time>2019-03-26T23:30:53Z</time>
      </trkpt>
      <trkpt lat="50.6458" lon="5.29061">
        <ele>159</ele>
        <time>2019-03-26T23:31:53Z</time>
      </trkpt>
      <trkpt lat="50.64575" lon="5.2909">
        <ele>159</ele>
        <time>2019-03-26T23:32:53Z</time>
      </trkpt>
      <trkpt lat="50.64572" lon="5.29105">
        <ele>159</ele>
        <time>2019-03-26T23:33:53Z</time>
      </trkpt>
      <trkpt lat="50.64567" lon="5.29123">
        <ele>159</ele>
        <time>2019-03-26T23:34:53Z</time>
      </trkpt>
      <trkpt lat="50.64553" lon="5.29167">
        <ele>159</ele>
        <time>2019-03-26T23:35:53Z</time>
      </trkpt>
      <trkpt lat="50.64535" lon="5.29216">
        <ele>159</ele>
        <time>2019-03-26T23:36:53Z</time>
      </trkpt>
      <trkpt lat="50.64504" lon="5.29305">
        <ele>159</ele>
        <time>2019-03-26T23:37:53Z</time>
      </trkpt>
      <trkpt lat="50.64491" lon="5.29334">
        <ele>159</ele>
        <time>2019-03-26T23:38:53Z</time>
      </trkpt>
      <trkpt lat="50.64477" lon="5.29367">
        <ele>160</ele>
        <time>2019-03-26T23:39:53Z</time>
      </trkpt>
      <trkpt lat="50.64431" lon="5.29487">
        <ele>161</ele>
        <time>2019-03-26T23:40:53Z</time>
      </trkpt>
      <trkpt lat="50.64418" lon="5.29521">
        <ele>160</ele>
        <time>2019-03-26T23:41:53Z</time>
      </trkpt>
      <trkpt lat="50.64369" lon="5.29643">
        <ele>158</ele>
        <time>2019-03-26T23:42:53Z</time>
      </trkpt>
      <trkpt lat="50.64357" lon="5.29675">
        <ele>158</ele>
        <time>2019-03-26T23:43:53Z</time>
      </trkpt>
      <trkpt lat="50.64315" lon="5.29778">
        <ele>158</ele>
        <time>2019-03-26T23:44:53Z</time>
      </trkpt>
      <trkpt lat="50.64292" lon="5.29836">
        <ele>158</ele>
        <time>2019-03-26T23:45:53Z</time>
      </trkpt>
      <trkpt lat="50.64265" lon="5.2991">
        <ele>159</ele>
        <time>2019-03-26T23:46:53Z</time>
      </trkpt>
      <trkpt lat="50.64254" lon="5.29943">
        <ele>159</ele>
        <time>2019-03-26T23:47:53Z</time>
      </trkpt>
      <trkpt lat="50.64245" lon="5.29986">
        <ele>159</ele>
        <time>2019-03-26T23:48:53Z</time>
      </trkpt>
      <trkpt lat="50.64225" lon="5.30098">
        <ele>157</ele>
        <time>2019-03-26T23:49:53Z</time>
      </trkpt>
      <trkpt lat="50.6421" lon="5.30181">
        <ele>155</ele>
        <time>2019-03-26T23:50:53Z</time>
      </trkpt>
      <trkpt lat="50.64193" lon="5.30299">
        <ele>154</ele>
        <time>2019-03-26T23:51:53Z</time>
      </trkpt>
      <trkpt lat="50.64186" lon="5.30353">
        <ele>155</ele>
        <time>2019-03-26T23:52:53Z</time>
      </trkpt>
      <trkpt lat="50.64179" lon="5.3042">
        <ele>155</ele>
        <time>2019-03-26T23:53:53Z</time>
      </trkpt>
      <trkpt lat="50.64171" lon="5.30516">
        <ele>157</ele>
        <time>2019-03-26T23:54:53Z</time>
      </trkpt>
      <trkpt lat="50.64165" lon="5.30593">
        <ele>160</ele>
        <time>2019-03-26T23:55:53Z</time>
      </trkpt>
      <trkpt lat="50.64163" lon="5.30642">
        <ele>160</ele>
        <time>2019-03-26T23:56:53Z</time>
      </trkpt>
      <trkpt lat="50.64159" lon="5.30715">
        <ele>161</ele>
        <time>2019-03-26T23:57:53Z</time>
      </trkpt>
      <trkpt lat="50.64152" lon="5.30823">
        <ele>163</ele>
        <time>2019-03-26T23:58:53Z</time>
      </trkpt>
      <trkpt lat="50.64151" lon="5.30859">
        <ele>163</ele>
        <time>2019-03-26T23:59:53Z</time>
      </trkpt>
      <trkpt lat="50.64146" lon="5.30883">
        <ele>162</ele>
        <time>2019-03-27T00:00:53Z</time>
      </trkpt>
      <trkpt lat="50.64138" lon="5.30921">
        <ele>162</ele>
        <time>2019-03-27T00:01:53Z</time>
      </trkpt>
      <trkpt lat="50.64098" lon="5.31093">
        <ele>161</ele>
        <time>2019-03-27T00:02:53Z</time>
      </trkpt>
      <trkpt lat="50.64088" lon="5.31136">
        <ele>161</ele>
        <time>2019-03-27T00:03:53Z</time>
      </trkpt>
      <trkpt lat="50.64054" lon="5.31274">
        <ele>156</ele>
        <time>2019-03-27T00:04:53Z</time>
      </trkpt>
      <trkpt lat="50.64044" lon="5.31313">
        <ele>155</ele>
        <time>2019-03-27T00:05:53Z</time>
      </trkpt>
      <trkpt lat="50.64033" lon="5.31371">
        <ele>153</ele>
        <time>2019-03-27T00:06:53Z</time>
      </trkpt>
      <trkpt lat="50.64024" lon="5.31412">
        <ele>151</ele>
        <time>2019-03-27T00:07:53Z</time>
      </trkpt>
      <trkpt lat="50.64015" lon="5.31452">
        <ele>151</ele>
        <time>2019-03-27T00:08:53Z</time>
      </trkpt>
      <trkpt lat="50.64005" lon="5.31509">
        <ele>150</ele>
        <time>2019-03-27T00:09:53Z</time>
      </trkpt>
      <trkpt lat="50.64002" lon="5.31535">
        <ele>150</ele>
        <time>2019-03-27T00:10:53Z</time>
      </trkpt>
      <trkpt lat="50.64001" lon="5.31549">
        <ele>149</ele>
        <time>2019-03-27T00:11:53Z</time>
      </trkpt>
      <trkpt lat="50.63999" lon="5.31593">
        <ele>149</ele>
        <time>2019-03-27T00:12:53Z</time>
      </trkpt>
      <trkpt lat="50.63999" lon="5.31648">
        <ele>147</ele>
        <time>2019-03-27T00:13:53Z</time>
      </trkpt>
      <trkpt lat="50.63999" lon="5.31675">
        <ele>147</ele>
        <time>2019-03-27T00:14:53Z</time>
      </trkpt>
      <trkpt lat="50.63998" lon="5.31697">
        <ele>147</ele>
        <time>2019-03-27T00:15:53Z</time>
      </trkpt>
      <trkpt lat="50.63995" lon="5.31714">
        <ele>147</ele>
        <time>2019-03-27T00:16:53Z</time>
      </trkpt>
      <trkpt lat="50.63992" lon="5.31735">
        <ele>147</ele>
        <time>2019-03-27T00:17:53Z</time>
      </trkpt>
      <trkpt lat="50.63973" lon="5.31772">
        <ele>148</ele>
        <time>2019-03-27T00:18:53Z</time>
      </trkpt>
      <trkpt lat="50.63914" lon="5.31875">
        <ele>148</ele>
        <time>2019-03-27T00:19:53Z</time>
      </trkpt>
      <trkpt lat="50.63895" lon="5.31908">
        <ele>147</ele>
        <time>2019-03-27T00:20:53Z</time>
      </trkpt>
      <trkpt lat="50.63846" lon="5.31998">
        <ele>146</ele>
        <time>2019-03-27T00:21:53Z</time>
      </trkpt>
      <trkpt lat="50.63843" lon="5.32008">
        <ele>146</ele>
        <time>2019-03-27T00:22:53Z</time>
      </trkpt>
      <trkpt lat="50.63847" lon="5.32031">
        <ele>146</ele>
        <time>2019-03-27T00:23:53Z</time>
      </trkpt>
      <trkpt lat="50.63855" lon="5.32126">
        <ele>146</ele>
        <time>2019-03-27T00:24:53Z</time>
      </trkpt>
      <trkpt lat="50.63861" lon="5.3219">
        <ele>146</ele>
        <time>2019-03-27T00:25:53Z</time>
      </trkpt>
      <trkpt lat="50.63867" lon="5.32235">
        <ele>146</ele>
        <time>2019-03-27T00:26:53Z</time>
      </trkpt>
      <trkpt lat="50.63876" lon="5.32265">
        <ele>147</ele>
        <time>2019-03-27T00:27:53Z</time>
      </trkpt>
      <trkpt lat="50.63889" lon="5.32311">
        <ele>148</ele>
        <time>2019-03-27T00:28:53Z</time>
      </trkpt>
      <trkpt lat="50.63887" lon="5.32342">
        <ele>148</ele>
        <time>2019-03-27T00:29:53Z</time>
      </trkpt>
      <trkpt lat="50.63883" lon="5.32369">
        <ele>149</ele>
        <time>2019-03-27T00:30:53Z</time>
      </trkpt>
      <trkpt lat="50.63865" lon="5.3244">
        <ele>151</ele>
        <time>2019-03-27T00:31:53Z</time>
      </trkpt>
      <trkpt lat="50.63855" lon="5.32474">
        <ele>152</ele>
        <time>2019-03-27T00:32:53Z</time>
      </trkpt>
      <trkpt lat="50.63853" lon="5.32497">
        <ele>153</ele>
        <time>2019-03-27T00:33:53Z</time>
      </trkpt>
      <trkpt lat="50.63851" lon="5.32537">
        <ele>154</ele>
        <time>2019-03-27T00:34:53Z</time>
      </trkpt>
      <trkpt lat="50.63852" lon="5.32565">
        <ele>154</ele>
        <time>2019-03-27T00:35:53Z</time>
      </trkpt>
      <trkpt lat="50.63859" lon="5.32616">
        <ele>156</ele>
        <time>2019-03-27T00:36:53Z</time>
      </trkpt>
      <trkpt lat="50.63866" lon="5.32671">
        <ele>158</ele>
        <time>2019-03-27T00:37:53Z</time>
      </trkpt>
      <trkpt lat="50.63891" lon="5.3283">
        <ele>161</ele>
        <time>2019-03-27T00:38:53Z</time>
      </trkpt>
      <trkpt lat="50.63902" lon="5.329">
        <ele>163</ele>
        <time>2019-03-27T00:39:53Z</time>
      </trkpt>
      <trkpt lat="50.63909" lon="5.32954">
        <ele>164</ele>
        <time>2019-03-27T00:40:53Z</time>
      </trkpt>
      <trkpt lat="50.63913" lon="5.32989">
        <ele>164</ele>
        <time>2019-03-27T00:41:53Z</time>
      </trkpt>
      <trkpt lat="50.6391" lon="5.33001">
        <ele>164</ele>
        <time>2019-03-27T00:42:53Z</time>
      </trkpt>
      <trkpt lat="50.6391" lon="5.33011">
        <ele>164</ele>
        <time>2019-03-27T00:43:53Z</time>
      </trkpt>
      <trkpt lat="50.63902" lon="5.33019">
        <ele>165</ele>
        <time>2019-03-27T00:44:53Z</time>
      </trkpt>
      <trkpt lat="50.63894" lon="5.33029">
        <ele>165</ele>
        <time>2019-03-27T00:45:53Z</time>
      </trkpt>
      <trkpt lat="50.63881" lon="5.33043">
        <ele>165</ele>
        <time>2019-03-27T00:46:53Z</time>
      </trkpt>
      <trkpt lat="50.63864" lon="5.3306">
        <ele>166</ele>
        <time>2019-03-27T00:47:53Z</time>
      </trkpt>
      <trkpt lat="50.63847" lon="5.33077">
        <ele>167</ele>
        <time>2019-03-27T00:48:53Z</time>
      </trkpt>
      <trkpt lat="50.63753" lon="5.33177">
        <ele>169</ele>
        <time>2019-03-27T00:49:53Z</time>
      </trkpt>
      <trkpt lat="50.6373" lon="5.33201">
        <ele>170</ele>
        <time>2019-03-27T00:50:53Z</time>
      </trkpt>
      <trkpt lat="50.63658" lon="5.3328">
        <ele>171</ele>
        <time>2019-03-27T00:51:53Z</time>
      </trkpt>
      <trkpt lat="50.63621" lon="5.3332">
        <ele>171</ele>
        <time>2019-03-27T00:52:53Z</time>
      </trkpt>
      <trkpt lat="50.63601" lon="5.33351">
        <ele>171</ele>
        <time>2019-03-27T00:53:53Z</time>
      </trkpt>
      <trkpt lat="50.63589" lon="5.33367">
        <ele>171</ele>
        <time>2019-03-27T00:54:53Z</time>
      </trkpt>
      <trkpt lat="50.63541" lon="5.33437">
        <ele>170</ele>
        <time>2019-03-27T00:55:53Z</time>
      </trkpt>
      <trkpt lat="50.63516" lon="5.33475">
        <ele>170</ele>
        <time>2019-03-27T00:56:53Z</time>
      </trkpt>
      <trkpt lat="50.6351" lon="5.335">
        <ele>170</ele>
        <time>2019-03-27T00:57:53Z</time>
      </trkpt>
      <trkpt lat="50.63504" lon="5.33531">
        <ele>170</ele>
        <time>2019-03-27T00:58:53Z</time>
      </trkpt>
      <trkpt lat="50.63498" lon="5.33559">
        <ele>171</ele>
        <time>2019-03-27T00:59:53Z</time>
      </trkpt>
      <trkpt lat="50.63492" lon="5.33604">
        <ele>171</ele>
        <time>2019-03-27T01:00:53Z</time>
      </trkpt>
      <trkpt lat="50.63487" lon="5.33661">
        <ele>172</ele>
        <time>2019-03-27T01:01:53Z</time>
      </trkpt>
      <trkpt lat="50.63483" lon="5.33726">
        <ele>173</ele>
        <time>2019-03-27T01:02:53Z</time>
      </trkpt>
      <trkpt lat="50.63482" lon="5.33832">
        <ele>172</ele>
        <time>2019-03-27T01:03:53Z</time>
      </trkpt>
      <trkpt lat="50.63482" lon="5.33872">
        <ele>172</ele>
        <time>2019-03-27T01:04:53Z</time>
      </trkpt>
      <trkpt lat="50.63479" lon="5.34104">
        <ele>175</ele>
        <time>2019-03-27T01:05:53Z</time>
      </trkpt>
      <trkpt lat="50.63478" lon="5.34127">
        <ele>175</ele>
        <time>2019-03-27T01:06:53Z</time>
      </trkpt>
      <trkpt lat="50.63471" lon="5.34174">
        <ele>176</ele>
        <time>2019-03-27T01:07:53Z</time>
      </trkpt>
      <trkpt lat="50.63459" lon="5.34249">
        <ele>175</ele>
        <time>2019-03-27T01:08:53Z</time>
      </trkpt>
      <trkpt lat="50.63433" lon="5.34394">
        <ele>172</ele>
        <time>2019-03-27T01:09:53Z</time>
      </trkpt>
      <trkpt lat="50.63425" lon="5.34445">
        <ele>172</ele>
        <time>2019-03-27T01:10:53Z</time>
      </trkpt>
      <trkpt lat="50.63381" lon="5.34686">
        <ele>174</ele>
        <time>2019-03-27T01:11:53Z</time>
      </trkpt>
      <trkpt lat="50.63363" lon="5.34781">
        <ele>177</ele>
        <time>2019-03-27T01:12:53Z</time>
      </trkpt>
      <trkpt lat="50.63353" lon="5.34845">
        <ele>177</ele>
        <time>2019-03-27T01:13:53Z</time>
      </trkpt>
      <trkpt lat="50.63346" lon="5.34914">
        <ele>175</ele>
        <time>2019-03-27T01:14:53Z</time>
      </trkpt>
      <trkpt lat="50.6334" lon="5.34999">
        <ele>174</ele>
        <time>2019-03-27T01:15:53Z</time>
      </trkpt>
      <trkpt lat="50.63337" lon="5.35065">
        <ele>174</ele>
        <time>2019-03-27T01:16:53Z</time>
      </trkpt>
      <trkpt lat="50.63332" lon="5.35114">
        <ele>174</ele>
        <time>2019-03-27T01:17:53Z</time>
      </trkpt>
      <trkpt lat="50.63329" lon="5.35175">
        <ele>173</ele>
        <time>2019-03-27T01:18:53Z</time>
      </trkpt>
      <trkpt lat="50.63323" lon="5.35398">
        <ele>170</ele>
        <time>2019-03-27T01:19:53Z</time>
      </trkpt>
      <trkpt lat="50.63319" lon="5.35483">
        <ele>171</ele>
        <time>2019-03-27T01:20:53Z</time>
      </trkpt>
      <trkpt lat="50.63315" lon="5.35525">
        <ele>172</ele>
        <time>2019-03-27T01:21:53Z</time>
      </trkpt>
      <trkpt lat="50.63311" lon="5.35574">
        <ele>172</ele>
        <time>2019-03-27T01:22:53Z</time>
      </trkpt>
      <trkpt lat="50.63299" lon="5.35675">
        <ele>174</ele>
        <time>2019-03-27T01:23:53Z</time>
      </trkpt>
      <trkpt lat="50.63292" lon="5.35741">
        <ele>175</ele>
        <time>2019-03-27T01:24:53Z</time>
      </trkpt>
      <trkpt lat="50.63287" lon="5.35799">
        <ele>176</ele>
        <time>2019-03-27T01:25:53Z</time>
      </trkpt>
      <trkpt lat="50.63277" lon="5.3589">
        <ele>177</ele>
        <time>2019-03-27T01:26:53Z</time>
      </trkpt>
      <trkpt lat="50.6327" lon="5.35948">
        <ele>178</ele>
        <time>2019-03-27T01:27:53Z</time>
      </trkpt>
      <trkpt lat="50.63265" lon="5.36001">
        <ele>178</ele>
        <time>2019-03-27T01:28:53Z</time>
      </trkpt>
      <trkpt lat="50.63262" lon="5.36067">
        <ele>178</ele>
        <time>2019-03-27T01:29:53Z</time>
      </trkpt>
      <trkpt lat="50.63266" lon="5.3611">
        <ele>178</ele>
        <time>2019-03-27T01:30:53Z</time>
      </trkpt>
      <trkpt lat="50.63271" lon="5.36145">
        <ele>179</ele>
        <time>2019-03-27T01:31:53Z</time>
      </trkpt>
      <trkpt lat="50.63277" lon="5.36209">
        <ele>179</ele>
        <time>2019-03-27T01:32:53Z</time>
      </trkpt>
      <trkpt lat="50.6329" lon="5.36306">
        <ele>179</ele>
        <time>2019-03-27T01:33:53Z</time>
      </trkpt>
      <trkpt lat="50.63293" lon="5.36336">
        <ele>179</ele>
        <time>2019-03-27T01:34:53Z</time>
      </trkpt>
      <trkpt lat="50.63294" lon="5.36359">
        <ele>179</ele>
        <time>2019-03-27T01:35:53Z</time>
      </trkpt>
      <trkpt lat="50.63295" lon="5.36424">
        <ele>179</ele>
        <time>2019-03-27T01:36:53Z</time>
      </trkpt>
      <trkpt lat="50.63293" lon="5.36473">
        <ele>179</ele>
        <time>2019-03-27T01:37:53Z</time>
      </trkpt>
      <trkpt lat="50.63294" lon="5.36546">
        <ele>178</ele>
        <time>2019-03-27T01:38:53Z</time>
      </trkpt>
      <trkpt lat="50.63294" lon="5.36736">
        <ele>177</ele>
        <time>2019-03-27T01:39:53Z</time>
      </trkpt>
      <trkpt lat="50.63295" lon="5.36803">
        <ele>176</ele>
        <time>2019-03-27T01:40:53Z</time>
      </trkpt>
      <trkpt lat="50.63298" lon="5.36834">
        <ele>175</ele>
        <time>2019-03-27T01:41:53Z</time>
      </trkpt>
      <trkpt lat="50.63314" lon="5.3704">
        <ele>176</ele>
        <time>2019-03-27T01:42:53Z</time>
      </trkpt>
      <trkpt lat="50.63325" lon="5.37181">
        <ele>177</ele>
        <time>2019-03-27T01:43:53Z</time>
      </trkpt>
      <trkpt lat="50.63331" lon="5.3724">
        <ele>177</ele>
        <time>2019-03-27T01:44:53Z</time>
      </trkpt>
      <trkpt lat="50.63353" lon="5.37507">
        <ele>175</ele>
        <time>2019-03-27T01:45:53Z</time>
      </trkpt>
      <trkpt lat="50.63362" lon="5.37618">
        <ele>174</ele>
        <time>2019-03-27T01:46:53Z</time>
      </trkpt>
      <trkpt lat="50.63368" lon="5.37717">
        <ele>172</ele>
        <time>2019-03-27T01:47:53Z</time>
      </trkpt>
      <trkpt lat="50.63385" lon="5.37939">
        <ele>170</ele>
        <time>2019-03-27T01:48:53Z</time>
      </trkpt>
      <trkpt lat="50.63391" lon="5.38014">
        <ele>170</ele>
        <time>2019-03-27T01:49:53Z</time>
      </trkpt>
      <trkpt lat="50.63402" lon="5.38174">
        <ele>167</ele>
        <time>2019-03-27T01:50:53Z</time>
      </trkpt>
      <trkpt lat="50.63403" lon="5.38197">
        <ele>167</ele>
        <time>2019-03-27T01:51:53Z</time>
      </trkpt>
      <trkpt lat="50.63408" lon="5.38261">
        <ele>166</ele>
        <time>2019-03-27T01:52:53Z</time>
      </trkpt>
      <trkpt lat="50.63414" lon="5.38321">
        <ele>165</ele>
        <time>2019-03-27T01:53:53Z</time>
      </trkpt>
      <trkpt lat="50.6342" lon="5.384">
        <ele>164</ele>
        <time>2019-03-27T01:54:53Z</time>
      </trkpt>
      <trkpt lat="50.63424" lon="5.38459">
        <ele>164</ele>
        <time>2019-03-27T01:55:53Z</time>
      </trkpt>
      <trkpt lat="50.63439" lon="5.38647">
        <ele>162</ele>
        <time>2019-03-27T01:56:53Z</time>
      </trkpt>
      <trkpt lat="50.63445" lon="5.38739">
        <ele>162</ele>
        <time>2019-03-27T01:57:53Z</time>
      </trkpt>
      <trkpt lat="50.63471" lon="5.39056">
        <ele>163</ele>
        <time>2019-03-27T01:58:53Z</time>
      </trkpt>
      <trkpt lat="50.63475" lon="5.39117">
        <ele>162</ele>
        <time>2019-03-27T01:59:53Z</time>
      </trkpt>
      <trkpt lat="50.63486" lon="5.39244">
        <ele>161</ele>
        <time>2019-03-27T02:00:53Z</time>
      </trkpt>
      <trkpt lat="50.63488" lon="5.39257">
        <ele>161</ele>
        <time>2019-03-27T02:01:53Z</time>
      </trkpt>
      <trkpt lat="50.63489" lon="5.3927">
        <ele>161</ele>
        <time>2019-03-27T02:02:53Z</time>
      </trkpt>
      <trkpt lat="50.63491" lon="5.39304">
        <ele>161</ele>
        <time>2019-03-27T02:03:53Z</time>
      </trkpt>
      <trkpt lat="50.63498" lon="5.39382">
        <ele>162</ele>
        <time>2019-03-27T02:04:53Z</time>
      </trkpt>
      <trkpt lat="50.63504" lon="5.39465">
        <ele>163</ele>
        <time>2019-03-27T02:05:53Z</time>
      </trkpt>
      <trkpt lat="50.63514" lon="5.39582">
        <ele>165</ele>
        <time>2019-03-27T02:06:53Z</time>
      </trkpt>
      <trkpt lat="50.63513" lon="5.39604">
        <ele>165</ele>
        <time>2019-03-27T02:07:53Z</time>
      </trkpt>
      <trkpt lat="50.63509" lon="5.39607">
        <ele>166</ele>
        <time>2019-03-27T02:08:53Z</time>
      </trkpt>
      <trkpt lat="50.63502" lon="5.3961">
        <ele>166</ele>
        <time>2019-03-27T02:09:53Z</time>
      </trkpt>
      <trkpt lat="50.63489" lon="5.39598">
        <ele>165</ele>
        <time>2019-03-27T02:10:53Z</time>
      </trkpt>
      <trkpt lat="50.63469" lon="5.39575">
        <ele>165</ele>
        <time>2019-03-27T02:11:53Z</time>
      </trkpt>
      <trkpt lat="50.63461" lon="5.39564">
        <ele>165</ele>
        <time>2019-03-27T02:12:53Z</time>
      </trkpt>
      <trkpt lat="50.63454" lon="5.39552">
        <ele>165</ele>
        <time>2019-03-27T02:13:53Z</time>
      </trkpt>
      <trkpt lat="50.63446" lon="5.3954">
        <ele>164</ele>
        <time>2019-03-27T02:14:53Z</time>
      </trkpt>
      <trkpt lat="50.63437" lon="5.39518">
        <ele>164</ele>
        <time>2019-03-27T02:15:53Z</time>
      </trkpt>
      <trkpt lat="50.63427" lon="5.39495">
        <ele>163</ele>
        <time>2019-03-27T02:16:53Z</time>
      </trkpt>
      <trkpt lat="50.63423" lon="5.39488">
        <ele>163</ele>
        <time>2019-03-27T02:17:53Z</time>
      </trkpt>
      <trkpt lat="50.63412" lon="5.39467">
        <ele>162</ele>
        <time>2019-03-27T02:18:53Z</time>
      </trkpt>
      <trkpt lat="50.63404" lon="5.39454">
        <ele>163</ele>
        <time>2019-03-27T02:19:53Z</time>
      </trkpt>
      <trkpt lat="50.63387" lon="5.3943">
        <ele>164</ele>
        <time>2019-03-27T02:20:53Z</time>
      </trkpt>
      <trkpt lat="50.63378" lon="5.39417">
        <ele>164</ele>
        <time>2019-03-27T02:21:53Z</time>
      </trkpt>
      <trkpt lat="50.63359" lon="5.39401">
        <ele>165</ele>
        <time>2019-03-27T02:22:53Z</time>
      </trkpt>
      <trkpt lat="50.63344" lon="5.39392">
        <ele>166</ele>
        <time>2019-03-27T02:23:53Z</time>
      </trkpt>
      <trkpt lat="50.63331" lon="5.39383">
        <ele>166</ele>
        <time>2019-03-27T02:24:53Z</time>
      </trkpt>
      <trkpt lat="50.63315" lon="5.39375">
        <ele>166</ele>
        <time>2019-03-27T02:25:53Z</time>
      </trkpt>
      <trkpt lat="50.6331" lon="5.39374">
        <ele>166</ele>
        <time>2019-03-27T02:26:53Z</time>
      </trkpt>
      <trkpt lat="50.63299" lon="5.39375">
        <ele>167</ele>
        <time>2019-03-27T02:27:53Z</time>
      </trkpt>
      <trkpt lat="50.63293" lon="5.39374">
        <ele>167</ele>
        <time>2019-03-27T02:28:53Z</time>
      </trkpt>
      <trkpt lat="50.63277" lon="5.39373">
        <ele>168</ele>
        <time>2019-03-27T02:29:53Z</time>
      </trkpt>
      <trkpt lat="50.63266" lon="5.39375">
        <ele>168</ele>
        <time>2019-03-27T02:30:53Z</time>
      </trkpt>
      <trkpt lat="50.63261" lon="5.39378">
        <ele>169</ele>
        <time>2019-03-27T02:31:53Z</time>
      </trkpt>
      <trkpt lat="50.63219" lon="5.3939">
        <ele>169</ele>
        <time>2019-03-27T02:32:53Z</time>
      </trkpt>
      <trkpt lat="50.63166" lon="5.39409">
        <ele>168</ele>
        <time>2019-03-27T02:33:53Z</time>
      </trkpt>
      <trkpt lat="50.63112" lon="5.39432">
        <ele>167</ele>
        <time>2019-03-27T02:34:53Z</time>
      </trkpt>
      <trkpt lat="50.62989" lon="5.39478">
        <ele>165</ele>
        <time>2019-03-27T02:35:53Z</time>
      </trkpt>
      <trkpt lat="50.62983" lon="5.39481">
        <ele>165</ele>
        <time>2019-03-27T02:36:53Z</time>
      </trkpt>
      <trkpt lat="50.629" lon="5.39511">
        <ele>163</ele>
        <time>2019-03-27T02:37:53Z</time>
      </trkpt>
      <trkpt lat="50.62866" lon="5.39524">
        <ele>161</ele>
        <time>2019-03-27T02:38:53Z</time>
      </trkpt>
      <trkpt lat="50.62828" lon="5.39535">
        <ele>158</ele>
        <time>2019-03-27T02:39:53Z</time>
      </trkpt>
      <trkpt lat="50.62803" lon="5.39546">
        <ele>157</ele>
        <time>2019-03-27T02:40:53Z</time>
      </trkpt>
      <trkpt lat="50.62773" lon="5.39555">
        <ele>154</ele>
        <time>2019-03-27T02:41:53Z</time>
      </trkpt>
      <trkpt lat="50.62737" lon="5.39568">
        <ele>152</ele>
        <time>2019-03-27T02:42:53Z</time>
      </trkpt>
      <trkpt lat="50.6269" lon="5.39585">
        <ele>150</ele>
        <time>2019-03-27T02:43:53Z</time>
      </trkpt>
      <trkpt lat="50.62657" lon="5.39596">
        <ele>148</ele>
        <time>2019-03-27T02:44:53Z</time>
      </trkpt>
      <trkpt lat="50.62631" lon="5.39602">
        <ele>146</ele>
        <time>2019-03-27T02:45:53Z</time>
      </trkpt>
      <trkpt lat="50.62595" lon="5.39603">
        <ele>144</ele>
        <time>2019-03-27T02:46:53Z</time>
      </trkpt>
      <trkpt lat="50.62568" lon="5.39604">
        <ele>144</ele>
        <time>2019-03-27T02:47:53Z</time>
      </trkpt>
      <trkpt lat="50.6248" lon="5.39605">
        <ele>142</ele>
        <time>2019-03-27T02:48:53Z</time>
      </trkpt>
      <trkpt lat="50.62455" lon="5.39607">
        <ele>142</ele>
        <time>2019-03-27T02:49:53Z</time>
      </trkpt>
      <trkpt lat="50.62382" lon="5.39608">
        <ele>139</ele>
        <time>2019-03-27T02:50:53Z</time>
      </trkpt>
      <trkpt lat="50.62345" lon="5.39607">
        <ele>136</ele>
        <time>2019-03-27T02:51:53Z</time>
      </trkpt>
      <trkpt lat="50.6231" lon="5.39609">
        <ele>135</ele>
        <time>2019-03-27T02:52:53Z</time>
      </trkpt>
      <trkpt lat="50.62272" lon="5.39611">
        <ele>135</ele>
        <time>2019-03-27T02:53:53Z</time>
      </trkpt>
      <trkpt lat="50.62253" lon="5.39611">
        <ele>134</ele>
        <time>2019-03-27T02:54:53Z</time>
      </trkpt>
      <trkpt lat="50.62228" lon="5.39611">
        <ele>135</ele>
        <time>2019-03-27T02:55:53Z</time>
      </trkpt>
      <trkpt lat="50.622" lon="5.39615">
        <ele>136</ele>
        <time>2019-03-27T02:56:53Z</time>
      </trkpt>
      <trkpt lat="50.62182" lon="5.39615">
        <ele>136</ele>
        <time>2019-03-27T02:57:53Z</time>
      </trkpt>
      <trkpt lat="50.62164" lon="5.39613">
        <ele>136</ele>
        <time>2019-03-27T02:58:53Z</time>
      </trkpt>
      <trkpt lat="50.62147" lon="5.39602">
        <ele>138</ele>
        <time>2019-03-27T02:59:53Z</time>
      </trkpt>
      <trkpt lat="50.62131" lon="5.39592">
        <ele>139</ele>
        <time>2019-03-27T03:00:53Z</time>
      </trkpt>
      <trkpt lat="50.62068" lon="5.39537">
        <ele>138</ele>
        <time>2019-03-27T03:01:53Z</time>
      </trkpt>
      <trkpt lat="50.62046" lon="5.39518">
        <ele>137</ele>
        <time>2019-03-27T03:02:53Z</time>
      </trkpt>
      <trkpt lat="50.61968" lon="5.39442">
        <ele>136</ele>
        <time>2019-03-27T03:03:53Z</time>
      </trkpt>
      <trkpt lat="50.61949" lon="5.39423">
        <ele>139</ele>
      </trkpt>
      <trkpt lat="50.6192" lon="5.39394">
        <ele>136</ele>
        <time>2019-03-27T03:05:53Z</time>
      </trkpt>
      <trkpt lat="50.61909" lon="5.39383">
        <ele>139.3</ele>
      </trkpt>
      <trkpt lat="50.61896" lon="5.39367">
        <ele>135</ele>
        <time>2019-03-27T03:07:53Z</time>
      </trkpt>
      <trkpt lat="50.61874" lon="5.39338">
        <ele>139</ele>
      </trkpt>
      <trkpt lat="50.61868" lon="5.39329">
        <ele>135</ele>
        <time>2019-03-27T03:09:53Z</time>
      </trkpt>
      <trkpt lat="50.61822" lon="5.3926">
        <ele>131</ele>
        <time>2019-03-27T03:10:53Z</time>
      </trkpt>
      <trkpt lat="50.6177" lon="5.39185">
        <ele>131</ele>
        <time>2019-03-27T03:11:53Z</time>
      </trkpt>
      <trkpt lat="50.6175" lon="5.39157">
        <ele>129</ele>
        <time>2019-03-27T03:12:53Z</time>
      </trkpt>
      <trkpt lat="50.61718" lon="5.39115">
        <ele>129</ele>
        <time>2019-03-27T03:13:53Z</time>
      </trkpt>
      <trkpt lat="50.61706" lon="5.39102">
        <ele>129</ele>
        <time>2019-03-27T03:14:53Z</time>
      </trkpt>
      <trkpt lat="50.61692" lon="5.39086">
        <ele>128</ele>
        <time>2019-03-27T03:15:53Z</time>
      </trkpt>
      <trkpt lat="50.61673" lon="5.3907">
        <ele>129</ele>
        <time>2019-03-27T03:16:53Z</time>
      </trkpt>
      <trkpt lat="50.61656" lon="5.39057">
        <ele>128</ele>
        <time>2019-03-27T03:17:53Z</time>
      </trkpt>
      <trkpt lat="50.61621" lon="5.39033">
        <ele>126</ele>
        <time>2019-03-27T03:18:53Z</time>
      </trkpt>
      <trkpt lat="50.61589" lon="5.39013">
        <ele>125</ele>
        <time>2019-03-27T03:19:53Z</time>
      </trkpt>
      <trkpt lat="50.61572" lon="5.39003">
        <ele>124</ele>
        <time>2019-03-27T03:20:53Z</time>
      </trkpt>
      <trkpt lat="50.61505" lon="5.38941">
        <ele>123</ele>
        <time>2019-03-27T03:21:53Z</time>
      </trkpt>
      <trkpt lat="50.61492" lon="5.3893">
        <ele>121</ele>
        <time>2019-03-27T03:22:53Z</time>
      </trkpt>
      <trkpt lat="50.61474" lon="5.38928">
        <ele>120</ele>
        <time>2019-03-27T03:23:53Z</time>
      </trkpt>
      <trkpt lat="50.6146" lon="5.3893">
        <ele>119</ele>
        <time>2019-03-27T03:24:53Z</time>
      </trkpt>
      <trkpt lat="50.61453" lon="5.38931">
        <ele>119</ele>
        <time>2019-03-27T03:25:53Z</time>
      </trkpt>
      <trkpt lat="50.61408" lon="5.38958">
        <ele>118</ele>
        <time>2019-03-27T03:26:53Z</time>
      </trkpt>
      <trkpt lat="50.61398" lon="5.38967">
        <ele>118</ele>
        <time>2019-03-27T03:27:53Z</time>
      </trkpt>
      <trkpt lat="50.61371" lon="5.38997">
        <ele>116</ele>
        <time>2019-03-27T03:28:53Z</time>
      </trkpt>
      <trkpt lat="50.61363" lon="5.39007">
        <ele>116</ele>
        <time>2019-03-27T03:29:53Z</time>
      </trkpt>
      <trkpt lat="50.61355" lon="5.39014">
        <ele>115</ele>
        <time>2019-03-27T03:30:53Z</time>
      </trkpt>
      <trkpt lat="50.61311" lon="5.39066">
        <ele>112</ele>
        <time>2019-03-27T03:31:53Z</time>
      </trkpt>
      <trkpt lat="50.61285" lon="5.39099">
        <ele>112</ele>
        <time>2019-03-27T03:32:53Z</time>
      </trkpt>
      <trkpt lat="50.61225" lon="5.39165">
        <ele>110</ele>
        <time>2019-03-27T03:33:53Z</time>
      </trkpt>
      <trkpt lat="50.61204" lon="5.39181">
        <ele>110</ele>
        <time>2019-03-27T03:34:53Z</time>
      </trkpt>
      <trkpt lat="50.61194" lon="5.39187">
        <ele>111</ele>
        <time>2019-03-27T03:35:53Z</time>
      </trkpt>
      <trkpt lat="50.61161" lon="5.39198">
        <ele>111</ele>
        <time>2019-03-27T03:36:53Z</time>
      </trkpt>
      <trkpt lat="50.61091" lon="5.3921">
        <ele>111.6</ele>
      </trkpt>
      <trkpt lat="50.61069" lon="5.39212">
        <ele>110.4</ele>
      </trkpt>
      <trkpt lat="50.61057" lon="5.39214">
        <ele>110.3</ele>
      </trkpt>
      <trkpt lat="50.61014" lon="5.39223">
        <ele>110</ele>
        <time>2019-03-27T03:40:53Z</time>
      </trkpt>
      <trkpt lat="50.61002" lon="5.39229">
        <ele>109.9</ele>
      </trkpt>
      <trkpt lat="50.60962" lon="5.39256">
        <ele>110</ele>
        <time>2019-03-27T03:42:53Z</time>
      </trkpt>
      <trkpt lat="50.60927" lon="5.39298">
        <ele>109</ele>
        <time>2019-03-27T03:43:53Z</time>
      </trkpt>
      <trkpt lat="50.60918" lon="5.39309">
        <ele>108</ele>
        <time>2019-03-27T03:44:53Z</time>
      </trkpt>
      <trkpt lat="50.60877" lon="5.39367">
        <ele>115</ele>
        <time>2019-03-27T03:45:53Z</time>
      </trkpt>
      <trkpt lat="50.6087" lon="5.3938">
        <ele>115</ele>
        <time>2019-03-27T03:46:53Z</time>
      </trkpt>
      <trkpt lat="50.60851" lon="5.39423">
        <ele>115</ele>
        <time>2019-03-27T03:47:53Z</time>
      </trkpt>
      <trkpt lat="50.60826" lon="5.39504">
        <ele>111</ele>
        <time>2019-03-27T03:48:53Z</time>
      </trkpt>
      <trkpt lat="50.60816" lon="5.39537">
        <ele>110</ele>
        <time>2019-03-27T03:49:53Z</time>
      </trkpt>
      <trkpt lat="50.6079" lon="5.3962">
        <ele>109.4</ele>
      </trkpt>
      <trkpt lat="50.6078" lon="5.3966">
        <ele>110.1</ele>
      </trkpt>
      <trkpt lat="50.60731" lon="5.39811">
        <ele>105</ele>
        <time>2019-03-27T03:52:53Z</time>
      </trkpt>
      <trkpt lat="50.60709" lon="5.39881">
        <ele>103</ele>
        <time>2019-03-27T03:53:53Z</time>
      </trkpt>
      <trkpt lat="50.60681" lon="5.39961">
        <ele>101</ele>
        <time>2019-03-27T03:54:53Z</time>
      </trkpt>
      <trkpt lat="50.60653" lon="5.40032">
        <ele>100</ele>
        <time>2019-03-27T03:55:53Z</time>
      </trkpt>
      <trkpt lat="50.60626" lon="5.40096">
        <ele>99</ele>
        <time>2019-03-27T03:56:53Z</time>
      </trkpt>
      <trkpt lat="50.60613" lon="5.40117">
        <ele>99</ele>
        <time>2019-03-27T03:57:53Z</time>
      </trkpt>
      <trkpt lat="50.60588" lon="5.40143">
        <ele>98</ele>
        <time>2019-03-27T03:58:53Z</time>
      </trkpt>
      <trkpt lat="50.60546" lon="5.40191">
        <ele>98</ele>
        <time>2019-03-27T03:59:53Z</time>
      </trkpt>
      <trkpt lat="50.60539" lon="5.40197">
        <ele>98</ele>
        <time>2019-03-27T04:00:53Z</time>
      </trkpt>
      <trkpt lat="50.60518" lon="5.40224">
        <ele>97</ele>
        <time>2019-03-27T04:01:53Z</time>
      </trkpt>
      <trkpt lat="50.60478" lon="5.40267">
        <ele>95</ele>
        <time>2019-03-27T04:02:53Z</time>
      </trkpt>
      <trkpt lat="50.60453" lon="5.40289">
        <ele>96</ele>
        <time>2019-03-27T04:03:53Z</time>
      </trkpt>
      <trkpt lat="50.60416" lon="5.40312">
        <ele>96</ele>
        <time>2019-03-27T04:04:53Z</time>
      </trkpt>
      <trkpt lat="50.60364" lon="5.4034">
        <ele>97</ele>
        <time>2019-03-27T04:05:53Z</time>
      </trkpt>
      <trkpt lat="50.60272" lon="5.40386">
        <ele>97</ele>
        <time>2019-03-27T04:06:53Z</time>
      </trkpt>
      <trkpt lat="50.60227" lon="5.4041">
        <ele>95</ele>
        <time>2019-03-27T04:07:53Z</time>
      </trkpt>
      <trkpt lat="50.6021" lon="5.4042">
        <ele>94</ele>
        <time>2019-03-27T04:08:53Z</time>
      </trkpt>
      <trkpt lat="50.60195" lon="5.40429">
        <ele>94</ele>
        <time>2019-03-27T04:09:53Z</time>
      </trkpt>
      <trkpt lat="50.60154" lon="5.40455">
        <ele>93</ele>
        <time>2019-03-27T04:10:53Z</time>
      </trkpt>
      <trkpt lat="50.6014" lon="5.40465">
        <ele>93</ele>
        <time>2019-03-27T04:11:53Z</time>
      </trkpt>
      <trkpt lat="50.60126" lon="5.40471">
        <ele>93</ele>
        <time>2019-03-27T04:12:53Z</time>
      </trkpt>
      <trkpt lat="50.60064" lon="5.40507">
        <ele>90</ele>
        <time>2019-03-27T04:13:53Z</time>
      </trkpt>
      <trkpt lat="50.60016" lon="5.40536">
        <ele>89</ele>
        <time>2019-03-27T04:14:53Z</time>
      </trkpt>
      <trkpt lat="50.60006" lon="5.40552">
        <ele>89</ele>
        <time>2019-03-27T04:15:53Z</time>
      </trkpt>
      <trkpt lat="50.59993" lon="5.40583">
        <ele>88</ele>
        <time>2019-03-27T04:16:53Z</time>
      </trkpt>
      <trkpt lat="50.59926" lon="5.40808">
        <ele>88</ele>
        <time>2019-03-27T04:17:53Z</time>
      </trkpt>
      <trkpt lat="50.59918" lon="5.40839">
        <ele>87</ele>
        <time>2019-03-27T04:18:53Z</time>
      </trkpt>
      <trkpt lat="50.59894" lon="5.40917">
        <ele>91</ele>
        <time>2019-03-27T04:19:53Z</time>
      </trkpt>
      <trkpt lat="50.59883" lon="5.40952">
        <ele>90</ele>
        <time>2019-03-27T04:20:53Z</time>
      </trkpt>
      <trkpt lat="50.59872" lon="5.40995">
        <ele>89</ele>
        <time>2019-03-27T04:21:53Z</time>
      </trkpt>
      <trkpt lat="50.59866" lon="5.41013">
        <ele>88</ele>
        <time>2019-03-27T04:22:53Z</time>
      </trkpt>
      <trkpt lat="50.59853" lon="5.41038">
        <ele>88</ele>
        <time>2019-03-27T04:23:53Z</time>
      </trkpt>
      <trkpt lat="50.59829" lon="5.41071">
        <ele>87</ele>
        <time>2019-03-27T04:24:53Z</time>
      </trkpt>
      <trkpt lat="50.5982" lon="5.41081">
        <ele>87</ele>
        <time>2019-03-27T04:25:53Z</time>
      </trkpt>
      <trkpt lat="50.59803" lon="5.41096">
        <ele>87</ele>
        <time>2019-03-27T04:26:53Z</time>
      </trkpt>
      <trkpt lat="50.59793" lon="5.41103">
        <ele>87</ele>
        <time>2019-03-27T04:27:53Z</time>
      </trkpt>
      <trkpt lat="50.59783" lon="5.41108">
        <ele>87</ele>
        <time>2019-03-27T04:28:53Z</time>
      </trkpt>
      <trkpt lat="50.59738" lon="5.41111">
        <ele>88</ele>
        <time>2019-03-27T04:29:53Z</time>
      </trkpt>
      <trkpt lat="50.59699" lon="5.41111">
        <ele>86</ele>
        <time>2019-03-27T04:30:53Z</time>
      </trkpt>
      <trkpt lat="50.59658" lon="5.41114">
        <ele>85</ele>
        <time>2019-03-27T04:31:53Z</time>
      </trkpt>
      <trkpt lat="50.59604" lon="5.411">
        <ele>84</ele>
        <time>2019-03-27T04:32:53Z</time>
      </trkpt>
      <trkpt lat="50.59524" lon="5.41083">
        <ele>82</ele>
        <time>2019-03-27T04:33:53Z</time>
      </trkpt>
      <trkpt lat="50.595" lon="5.41083">
        <ele>81</ele>
        <time>2019-03-27T04:34:53Z</time>
      </trkpt>
      <trkpt lat="50.59473" lon="5.41086">
        <ele>81</ele>
        <time>2019-03-27T04:35:53Z</time>
      </trkpt>
      <trkpt lat="50.59355" lon="5.41109">
        <ele>84</ele>
        <time>2019-03-27T04:36:53Z</time>
      </trkpt>
      <trkpt lat="50.59321" lon="5.41114">
        <ele>85</ele>
        <time>2019-03-27T04:37:53Z</time>
      </trkpt>
      <trkpt lat="50.59287" lon="5.41123">
        <ele>88</ele>
        <time>2019-03-27T04:38:53Z</time>
      </trkpt>
      <trkpt lat="50.59264" lon="5.4113">
        <ele>89</ele>
        <time>2019-03-27T04:39:53Z</time>
      </trkpt>
      <trkpt lat="50.59229" lon="5.41145">
        <ele>88</ele>
        <time>2019-03-27T04:40:53Z</time>
      </trkpt>
      <trkpt lat="50.59217" lon="5.41149">
        <ele>87</ele>
        <time>2019-03-27T04:41:53Z</time>
      </trkpt>
      <trkpt lat="50.59209" lon="5.41148">
        <ele>87</ele>
        <time>2019-03-27T04:42:53Z</time>
      </trkpt>
      <trkpt lat="50.59197" lon="5.41147">
        <ele>86</ele>
        <time>2019-03-27T04:43:53Z</time>
      </trkpt>
      <trkpt lat="50.59173" lon="5.4114">
        <ele>84</ele>
        <time>2019-03-27T04:44:53Z</time>
      </trkpt>
      <trkpt lat="50.59161" lon="5.41137">
        <ele>84</ele>
        <time>2019-03-27T04:45:53Z</time>
      </trkpt>
      <trkpt lat="50.59069" lon="5.41102">
        <ele>82</ele>
        <time>2019-03-27T04:46:53Z</time>
      </trkpt>
      <trkpt lat="50.59024" lon="5.41086">
        <ele>78</ele>
        <time>2019-03-27T04:47:53Z</time>
      </trkpt>
      <trkpt lat="50.59011" lon="5.41085">
        <ele>77</ele>
        <time>2019-03-27T04:48:53Z</time>
      </trkpt>
      <trkpt lat="50.58993" lon="5.41091">
        <ele>76</ele>
        <time>2019-03-27T04:49:53Z</time>
      </trkpt>
      <trkpt lat="50.58976" lon="5.41106">
        <ele>76</ele>
        <time>2019-03-27T04:50:53Z</time>
      </trkpt>
      <trkpt lat="50.58955" lon="5.41149">
        <ele>77</ele>
        <time>2019-03-27T04:51:53Z</time>
      </trkpt>
      <trkpt lat="50.58936" lon="5.41199">
        <ele>76</ele>
        <time>2019-03-27T04:52:53Z</time>
      </trkpt>
      <trkpt lat="50.58919" lon="5.4125">
        <ele>73</ele>
        <time>2019-03-27T04:53:53Z</time>
      </trkpt>
      <trkpt lat="50.58897" lon="5.41305">
        <ele>72</ele>
        <time>2019-03-27T04:54:53Z</time>
      </trkpt>
      <trkpt lat="50.58889" lon="5.41323">
        <ele>72</ele>
        <time>2019-03-27T04:55:53Z</time>
      </trkpt>
      <trkpt lat="50.58876" lon="5.41342">
        <ele>71</ele>
        <time>2019-03-27T04:56:53Z</time>
      </trkpt>
      <trkpt lat="50.58857" lon="5.41363">
        <ele>70</ele>
        <time>2019-03-27T04:57:53Z</time>
      </trkpt>
      <trkpt lat="50.58837" lon="5.41382">
        <ele>68</ele>
        <time>2019-03-27T04:58:53Z</time>
      </trkpt>
      <trkpt lat="50.58818" lon="5.414">
        <ele>68</ele>
        <time>2019-03-27T04:59:53Z</time>
      </trkpt>
      <trkpt lat="50.58801" lon="5.41421">
        <ele>68</ele>
        <time>2019-03-27T05:00:53Z</time>
      </trkpt>
      <trkpt lat="50.58751" lon="5.41489">
        <ele>70</ele>
        <time>2019-03-27T05:01:53Z</time>
      </trkpt>
      <trkpt lat="50.58712" lon="5.41535">
        <ele>70</ele>
        <time>2019-03-27T05:02:53Z</time>
      </trkpt>
      <trkpt lat="50.58679" lon="5.41552">
        <ele>68</ele>
        <time>2019-03-27T05:03:53Z</time>
      </trkpt>
      <trkpt lat="50.58628" lon="5.41574">
        <ele>67</ele>
        <time>2019-03-27T05:04:53Z</time>
      </trkpt>
      <trkpt lat="50.58612" lon="5.41577">
        <ele>68</ele>
        <time>2019-03-27T05:05:53Z</time>
      </trkpt>
      <trkpt lat="50.5861" lon="5.41611">
        <ele>67</ele>
        <time>2019-03-27T05:06:53Z</time>
      </trkpt>
      <trkpt lat="50.58608" lon="5.41661">
        <ele>66</ele>
        <time>2019-03-27T05:07:53Z</time>
      </trkpt>
      <trkpt lat="50.58609" lon="5.41686">
        <ele>66</ele>
        <time>2019-03-27T05:08:53Z</time>
      </trkpt>
      <trkpt lat="50.58609" lon="5.41755">
        <ele>65</ele>
        <time>2019-03-27T05:09:53Z</time>
      </trkpt>
      <trkpt lat="50.58615" lon="5.41816">
        <ele>66</ele>
        <time>2019-03-27T05:10:53Z</time>
      </trkpt>
      <trkpt lat="50.58621" lon="5.41883">
        <ele>66</ele>
        <time>2019-03-27T05:11:53Z</time>
      </trkpt>
      <trkpt lat="50.58631" lon="5.41971">
        <ele>66</ele>
        <time>2019-03-27T05:12:53Z</time>
      </trkpt>
      <trkpt lat="50.58643" lon="5.42094">
        <ele>65</ele>
        <time>2019-03-27T05:13:53Z</time>
      </trkpt>
      <trkpt lat="50.58651" lon="5.42174">
        <ele>64</ele>
        <time>2019-03-27T05:14:53Z</time>
      </trkpt>
      <trkpt lat="50.58661" lon="5.42272">
        <ele>64</ele>
        <time>2019-03-27T05:15:53Z</time>
      </trkpt>
      <trkpt lat="50.5867" lon="5.42353">
        <ele>65</ele>
        <time>2019-03-27T05:16:53Z</time>
      </trkpt>
      <trkpt lat="50.58677" lon="5.42426">
        <ele>65</ele>
        <time>2019-03-27T05:17:53Z</time>
      </trkpt>
      <trkpt lat="50.58691" lon="5.42545">
        <ele>64</ele>
        <time>2019-03-27T05:18:53Z</time>
      </trkpt>
      <trkpt lat="50.58706" lon="5.42633">
        <ele>63</ele>
        <time>2019-03-27T05:19:53Z</time>
      </trkpt>
      <trkpt lat="50.58735" lon="5.42754">
        <ele>64</ele>
        <time>2019-03-27T05:20:53Z</time>
      </trkpt>
      <trkpt lat="50.58782" lon="5.42943">
        <ele>66</ele>
        <time>2019-03-27T05:21:53Z</time>
      </trkpt>
      <trkpt lat="50.58807" lon="5.43047">
        <ele>66</ele>
        <time>2019-03-27T05:22:53Z</time>
      </trkpt>
      <trkpt lat="50.58849" lon="5.4321">
        <ele>70</ele>
        <time>2019-03-27T05:23:53Z</time>
      </trkpt>
      <trkpt lat="50.58868" lon="5.43288">
        <ele>73</ele>
        <time>2019-03-27T05:24:53Z</time>
      </trkpt>
      <trkpt lat="50.5888" lon="5.43386">
        <ele>72</ele>
        <time>2019-03-27T05:25:53Z</time>
      </trkpt>
      <trkpt lat="50.58888" lon="5.43483">
        <ele>69</ele>
        <time>2019-03-27T05:26:53Z</time>
      </trkpt>
      <trkpt lat="50.58897" lon="5.4361">
        <ele>70</ele>
        <time>2019-03-27T05:27:53Z</time>
      </trkpt>
      <trkpt lat="50.58908" lon="5.43726">
        <ele>69</ele>
        <time>2019-03-27T05:28:53Z</time>
      </trkpt>
      <trkpt lat="50.5892" lon="5.43805">
        <ele>67</ele>
        <time>2019-03-27T05:29:53Z</time>
      </trkpt>
      <trkpt lat="50.58929" lon="5.43868">
        <ele>66</ele>
        <time>2019-03-27T05:30:53Z</time>
      </trkpt>
      <trkpt lat="50.58951" lon="5.44038">
        <ele>68</ele>
        <time>2019-03-27T05:31:53Z</time>
      </trkpt>
      <trkpt lat="50.58965" lon="5.4414">
        <ele>70</ele>
        <time>2019-03-27T05:32:53Z</time>
      </trkpt>
      <trkpt lat="50.58997" lon="5.44338">
        <ele>70</ele>
        <time>2019-03-27T05:33:53Z</time>
      </trkpt>
      <trkpt lat="50.59022" lon="5.44467">
        <ele>67</ele>
        <time>2019-03-27T05:34:53Z</time>
      </trkpt>
      <trkpt lat="50.59032" lon="5.44517">
        <ele>67</ele>
        <time>2019-03-27T05:35:53Z</time>
      </trkpt>
      <trkpt lat="50.59049" lon="5.44582">
        <ele>67</ele>
        <time>2019-03-27T05:36:53Z</time>
      </trkpt>
      <trkpt lat="50.59074" lon="5.44644">
        <ele>66</ele>
        <time>2019-03-27T05:37:53Z</time>
      </trkpt>
      <trkpt lat="50.59104" lon="5.4471">
        <ele>65</ele>
        <time>2019-03-27T05:38:53Z</time>
      </trkpt>
      <trkpt lat="50.59128" lon="5.44759">
        <ele>64</ele>
        <time>2019-03-27T05:39:53Z</time>
      </trkpt>
      <trkpt lat="50.59172" lon="5.44851">
        <ele>64</ele>
        <time>2019-03-27T05:40:53Z</time>
      </trkpt>
      <trkpt lat="50.5918" lon="5.44879">
        <ele>64</ele>
        <time>2019-03-27T05:41:53Z</time>
      </trkpt>
      <trkpt lat="50.59191" lon="5.44923">
        <ele>65</ele>
        <time>2019-03-27T05:42:53Z</time>
      </trkpt>
      <trkpt lat="50.59204" lon="5.44994">
        <ele>65</ele>
        <time>2019-03-27T05:43:53Z</time>
      </trkpt>
      <trkpt lat="50.59221" lon="5.45104">
        <ele>66</ele>
        <time>2019-03-27T05:44:53Z</time>
      </trkpt>
      <trkpt lat="50.59236" lon="5.45199">
        <ele>66</ele>
        <time>2019-03-27T05:45:53Z</time>
      </trkpt>
      <trkpt lat="50.5924" lon="5.4524">
        <ele>64</ele>
        <time>2019-03-27T05:46:53Z</time>
      </trkpt>
      <trkpt lat="50.59241" lon="5.45262">
        <ele>64</ele>
        <time>2019-03-27T05:47:53Z</time>
      </trkpt>
      <trkpt lat="50.5924" lon="5.45289">
        <ele>64</ele>
        <time>2019-03-27T05:48:53Z</time>
      </trkpt>
      <trkpt lat="50.59236" lon="5.45346">
        <ele>64</ele>
        <time>2019-03-27T05:49:53Z</time>
      </trkpt>
      <trkpt lat="50.59236" lon="5.45388">
        <ele>66</ele>
        <time>2019-03-27T05:50:53Z</time>
      </trkpt>
      <trkpt lat="50.5926" lon="5.45399">
        <ele>66</ele>
        <time>2019-03-27T05:51:53Z</time>
      </trkpt>
      <trkpt lat="50.59268" lon="5.45404">
        <ele>67</ele>
        <time>2019-03-27T05:52:53Z</time>
      </trkpt>
      <trkpt lat="50.59275" lon="5.45411">
        <ele>67</ele>
        <time>2019-03-27T05:53:53Z</time>
      </trkpt>
      <trkpt lat="50.59285" lon="5.45439">
        <ele>67</ele>
        <time>2019-03-27T05:54:53Z</time>
      </trkpt>
      <trkpt lat="50.59314" lon="5.45496">
        <ele>67</ele>
        <time>2019-03-27T05:55:53Z</time>
      </trkpt>
      <trkpt lat="50.59334" lon="5.45533">
        <ele>67</ele>
        <time>2019-03-27T05:56:53Z</time>
      </trkpt>
      <trkpt lat="50.59354" lon="5.45566">
        <ele>67</ele>
        <time>2019-03-27T05:57:53Z</time>
      </trkpt>
      <trkpt lat="50.59378" lon="5.45611">
        <ele>68</ele>
        <time>2019-03-27T05:58:53Z</time>
      </trkpt>
      <trkpt lat="50.59405" lon="5.45684">
        <ele>68</ele>
        <time>2019-03-27T05:59:53Z</time>
      </trkpt>
      <trkpt lat="50.59435" lon="5.4576">
        <ele>66</ele>
        <time>2019-03-27T06:00:53Z</time>
      </trkpt>
      <trkpt lat="50.59456" lon="5.45816">
        <ele>66</ele>
        <time>2019-03-27T06:01:53Z</time>
      </trkpt>
      <trkpt lat="50.59507" lon="5.45945">
        <ele>68</ele>
        <time>2019-03-27T06:02:53Z</time>
      </trkpt>
      <trkpt lat="50.5953" lon="5.46007">
        <ele>68</ele>
        <time>2019-03-27T06:03:53Z</time>
      </trkpt>
      <trkpt lat="50.59547" lon="5.46048">
        <ele>68</ele>
        <time>2019-03-27T06:04:53Z</time>
      </trkpt>
      <trkpt lat="50.59571" lon="5.46102">
        <ele>68</ele>
        <time>2019-03-27T06:05:53Z</time>
      </trkpt>
      <trkpt lat="50.59585" lon="5.46146">
        <ele>68</ele>
        <time>2019-03-27T06:06:53Z</time>
      </trkpt>
      <trkpt lat="50.59636" lon="5.46283">
        <ele>67</ele>
        <time>2019-03-27T06:07:53Z</time>
      </trkpt>
      <trkpt lat="50.59655" lon="5.46335">
        <ele>66</ele>
        <time>2019-03-27T06:08:53Z</time>
      </trkpt>
      <trkpt lat="50.5968" lon="5.46392">
        <ele>66</ele>
        <time>2019-03-27T06:09:53Z</time>
      </trkpt>
      <trkpt lat="50.59697" lon="5.4644">
        <ele>66</ele>
        <time>2019-03-27T06:10:53Z</time>
      </trkpt>
      <trkpt lat="50.59733" lon="5.4653">
        <ele>67</ele>
        <time>2019-03-27T06:11:53Z</time>
      </trkpt>
      <trkpt lat="50.59759" lon="5.46596">
        <ele>68</ele>
        <time>2019-03-27T06:12:53Z</time>
      </trkpt>
      <trkpt lat="50.59801" lon="5.46675">
        <ele>67</ele>
        <time>2019-03-27T06:13:53Z</time>
      </trkpt>
      <trkpt lat="50.59831" lon="5.46742">
        <ele>68</ele>
        <time>2019-03-27T06:14:53Z</time>
      </trkpt>
      <trkpt lat="50.59853" lon="5.4681">
        <ele>68</ele>
        <time>2019-03-27T06:15:53Z</time>
      </trkpt>
      <trkpt lat="50.59872" lon="5.46882">
        <ele>67</ele>
        <time>2019-03-27T06:16:53Z</time>
      </trkpt>
      <trkpt lat="50.5988" lon="5.46924">
        <ele>66</ele>
        <time>2019-03-27T06:17:53Z</time>
      </trkpt>
      <trkpt lat="50.59897" lon="5.4703">
        <ele>64</ele>
        <time>2019-03-27T06:18:53Z</time>
      </trkpt>
      <trkpt lat="50.59915" lon="5.47133">
        <ele>64</ele>
        <time>2019-03-27T06:19:53Z</time>
      </trkpt>
      <trkpt lat="50.59921" lon="5.47177">
        <ele>64</ele>
        <time>2019-03-27T06:20:53Z</time>
      </trkpt>
      <trkpt lat="50.59931" lon="5.47216">
        <ele>64</ele>
        <time>2019-03-27T06:21:53Z</time>
      </trkpt>
      <trkpt lat="50.5994" lon="5.47245">
        <ele>65</ele>
        <time>2019-03-27T06:22:53Z</time>
      </trkpt>
      <trkpt lat="50.5995" lon="5.47271">
        <ele>65</ele>
        <time>2019-03-27T06:23:53Z</time>
      </trkpt>
      <trkpt lat="50.59965" lon="5.47298">
        <ele>66</ele>
        <time>2019-03-27T06:24:53Z</time>
      </trkpt>
      <trkpt lat="50.59995" lon="5.47349">
        <ele>66</ele>
        <time>2019-03-27T06:25:53Z</time>
      </trkpt>
      <trkpt lat="50.60011" lon="5.4738">
        <ele>66</ele>
        <time>2019-03-27T06:26:53Z</time>
      </trkpt>
      <trkpt lat="50.60049" lon="5.47448">
        <ele>66</ele>
        <time>2019-03-27T06:27:53Z</time>
      </trkpt>
      <trkpt lat="50.60088" lon="5.47519">
        <ele>67</ele>
        <time>2019-03-27T06:28:53Z</time>
      </trkpt>
      <trkpt lat="50.60165" lon="5.47652">
        <ele>65</ele>
        <time>2019-03-27T06:29:53Z</time>
      </trkpt>
      <trkpt lat="50.60205" lon="5.47725">
        <ele>65</ele>
        <time>2019-03-27T06:30:53Z</time>
      </trkpt>
      <trkpt lat="50.60265" lon="5.47827">
        <ele>65</ele>
        <time>2019-03-27T06:31:53Z</time>
      </trkpt>
      <trkpt lat="50.60301" lon="5.47892">
        <ele>67</ele>
        <time>2019-03-27T06:32:53Z</time>
      </trkpt>
      <trkpt lat="50.60321" lon="5.47925">
        <ele>67</ele>
        <time>2019-03-27T06:33:53Z</time>
      </trkpt>
      <trkpt lat="50.6034" lon="5.47959">
        <ele>67</ele>
        <time>2019-03-27T06:34:53Z</time>
      </trkpt>
      <trkpt lat="50.60359" lon="5.47996">
        <ele>67</ele>
        <time>2019-03-27T06:35:53Z</time>
      </trkpt>
      <trkpt lat="50.60387" lon="5.48056">
        <ele>67</ele>
        <time>2019-03-27T06:36:53Z</time>
      </trkpt>
      <trkpt lat="50.60406" lon="5.48104">
        <ele>67</ele>
        <time>2019-03-27T06:37:53Z</time>
      </trkpt>
      <trkpt lat="50.60434" lon="5.48173">
        <ele>68</ele>
        <time>2019-03-27T06:38:53Z</time>
      </trkpt>
      <trkpt lat="50.60452" lon="5.48227">
        <ele>68</ele>
        <time>2019-03-27T06:39:53Z</time>
      </trkpt>
      <trkpt lat="50.60474" lon="5.48298">
        <ele>68</ele>
        <time>2019-03-27T06:40:53Z</time>
      </trkpt>
      <trkpt lat="50.60485" lon="5.48341">
        <ele>68</ele>
        <time>2019-03-27T06:41:53Z</time>
      </trkpt>
      <trkpt lat="50.6049" lon="5.48366">
        <ele>67</ele>
        <time>2019-03-27T06:42:53Z</time>
      </trkpt>
      <trkpt lat="50.60486" lon="5.48376">
        <ele>67</ele>
        <time>2019-03-27T06:43:53Z</time>
      </trkpt>
      <trkpt lat="50.60485" lon="5.48392">
        <ele>67</ele>
        <time>2019-03-27T06:44:53Z</time>
      </trkpt>
      <trkpt lat="50.60421" lon="5.48467">
        <ele>65</ele>
        <time>2019-03-27T06:45:53Z</time>
      </trkpt>
      <trkpt lat="50.60405" lon="5.48437">
        <ele>65</ele>
        <time>2019-03-27T06:46:53Z</time>
      </trkpt>
      <trkpt lat="50.60431" lon="5.48428">
        <ele>65</ele>
        <time>2019-03-27T06:47:53Z</time>
      </trkpt>
    </trkseg>
  </trk>
</gpx>